[[{"header":{"parameterUnit":"m.s-1","parameterCategory":1,"la1":31.0,"la2":29.5877,"lo1":-88.7671,"lo2":-86.6584,"dy":0.0162,"dx":0.0185,"nx":115,"ny":88,"refTime":"2024-07-02T06:00:00:Z","depth":0,"parameterNumber":2,"parameterNumberName":"U-component_of_WINDS"},"data":[0.0,0.0,0.0,0.0,0.0,0.0,0.0,0.0,0.0,0.0,0.0,0.0,0.0,0.0,0.0,0.0,0.0,0.0,0.0,0.0,0.0,0.0,0.0,0.0,0.0,0.0,0.0,0.0,0.0,0.0,0.0,0.0,0.0,0.0,0.0,0.0,0.0,0.0,0.0,0.0,0.0,0.0,0.0,0.0,0.0,0.0,0.0,0.0,0.0,0.0,0.0,0.0,0.0,0.0,0.0,0.0,0.0,0.0,0.0,0.0,0.0,0.0,0.0,0.0,0.0,0.0,0.0,0.0,0.0,0.0,0.0,0.0,0.0,0.0,0.0,0.0,0.0,0.0,0.0,0.0,0.0,0.0,0.0,0.0,0.0,0.0,0.0,0.0,0.0,0.0,0.0,0.0,0.0,0.0,0.0,0.0,0.0,0.0,0.0,0.0,0.0,0.0,0.0,0.0,0.0,0.0,0.0,0.0,0.0,0.0,0.0,0.0,0.0,0.0,0.0,0.0,0.0,0.0,0.0,0.0,0.0,0.0,0.0,0.0,0.0,0.0,0.0,0.0,0.0,0.0,0.0,0.0,0.0,0.0,0.0,0.0,0.0,0.0,0.0,0.0,0.0,0.0,0.0,0.0,0.0,0.0,0.0,0.0,0.0,0.0,0.0,0.0,0.0,0.0,0.0,0.0,0.0,0.0,0.0,0.0,0.0,0.0,0.0,0.0,0.0,0.0,0.0,0.0,0.0,0.0,0.0,0.0,0.0,0.0,0.0,0.0,0.0,0.0,0.0,0.0,0.0,0.0,0.0,0.0,0.0,0.0,0.0,0.0,0.0,0.0,0.0,0.0,0.0,0.0,0.0,0.0,0.0,0.0,0.0,0.0,0.0,0.0,0.0,0.0,0.0,0.0,0.0,0.0,0.0,0.0,0.0,0.0,0.0,0.0,0.0,0.0,0.0,0.0,0.0,0.0,0.0,0.0,0.0,0.0,0.0,0.0,0.0,0.0,0.0,0.0,0.0,0.0,0.0,0.0,0.0,0.0,0.0,0.0,0.0,0.0,0.0,0.0,0.0,0.0,0.0,0.0,0.0,0.0,0.0,0.0,0.0,0.0,0.0,0.0,0.0,0.0,0.0,0.0,0.0,0.0,0.0,0.0,0.0,0.0,0.0,0.0,0.0,0.0,0.0,0.0,0.0,0.0,0.0,0.0,0.0,0.0,0.0,0.0,0.0,0.0,0.0,0.0,0.0,0.0,0.0,0.0,0.0,0.0,0.0,0.0,0.0,0.0,0.0,0.0,0.0,0.0,0.0,0.0,0.0,0.0,0.0,0.0,0.0,0.0,0.0,0.0,0.0,0.0,0.0,0.0,0.0,0.0,0.0,0.0,0.0,0.0,0.0,0.0,0.0,0.0,0.0,0.0,0.0,0.0,0.0,0.0,0.0,0.0,0.0,0.0,0.0,0.0,0.0,0.0,0.0,0.0,0.0,0.0,0.0,0.0,0.0,0.0,0.0,0.0,0.0,0.0,0.0,0.0,0.0,0.0,0.0,0.0,0.0,0.0,0.0,0.0,0.0,0.0,0.0,0.0,0.0,0.0,0.0,0.0,0.0,0.0,0.0,0.0,0.0,0.0,0.0,0.0,0.0,0.0,0.0,0.0,0.0,0.0,0.0,0.0,0.0,0.0,0.0,0.0,0.0,0.0,0.0,0.0,0.0,0.0,0.0,0.0,0.0,0.0,0.0,0.0,0.0,0.0,0.0,0.0,0.0,0.0,0.0,0.0,0.0,0.0,0.0,0.0,0.0,0.0,0.0,0.0,0.0,0.0,0.0,0.0,0.0,0.0,0.0,0.0,0.0,0.0,0.0,0.0,0.0,0.0,0.0,0.0,0.0,0.0,0.0,0.0,0.0,0.0,0.0,0.0,0.0,0.0,0.0,0.0,0.0,0.0,0.0,0.0,0.0,0.0,0.0,0.0,0.0,0.0,0.0,0.0,0.0,0.0,0.0,0.0,0.0,0.0,0.0,0.0,0.0,0.0,0.0,0.0,0.0,0.0,0.0,0.0,0.0,0.0,0.0,0.0,0.0,0.0,0.0,0.0,0.0,0.0,0.0,0.0,0.0,0.0,0.0,0.0,0.0,0.0,0.0,0.0,0.0,0.0,0.0,0.0,0.0,0.0,0.0,0.0,0.0,0.0,0.0,0.0,0.0,0.0,0.0,0.0,0.0,0.0,0.0,0.0,0.0,0.0,0.0,0.0,0.0,0.0,0.0,0.0,0.0,0.0,0.0,0.0,0.0,0.0,0.0,0.0,0.0,0.0,0.0,0.0,0.0,0.0,0.0,0.0,0.0,0.0,0.0,0.0,0.0,0.0,0.0,0.0,0.0,0.0,0.0,0.0,0.0,0.0,0.0,0.0,0.0,0.0,0.0,0.0,0.0,0.0,0.0,0.0,0.0,0.0,0.0,0.0,0.0,0.0,0.0,0.0,0.0,0.0,0.0,0.0,0.0,0.0,0.0,0.0,0.0,0.0,0.0,0.0,0.0,0.0,0.0,0.0,0.0,0.0,0.0,0.0,0.0,0.0,0.0,0.0,0.0,0.0,0.0,0.0,0.0,0.0,0.0,0.0,0.0,0.0,0.0,0.0,0.0,0.0,0.0,0.0,0.0,0.0,0.0,0.0,0.0,0.0,0.0,0.0,0.0,0.0,0.0,0.0,0.0,0.0,0.0,0.0,0.0,0.0,0.0,0.0,0.0,0.0,0.0,0.0,0.0,0.0,0.0,0.0,0.0,0.0,0.0,0.0,0.0,0.0,0.0,0.0,0.0,0.0,0.0,0.0,0.0,0.0,0.0,0.0,0.0,0.0,0.0,0.0,0.0,0.0,0.0,0.0,0.0,0.0,0.0,0.0,0.0,0.0,0.0,0.0,0.0,0.0,0.0,0.0,0.0,0.0,0.0,0.0,0.0,0.0,0.0,0.0,0.0,0.0,0.0,0.0,0.0,0.0,0.0,0.0,0.0,0.0,0.0,0.0,0.0,0.0,0.0,0.0,0.0,0.0,0.0,0.0,0.0,0.0,0.0,0.0,0.0,0.0,0.0,0.0,0.0,0.0,0.0,0.0,0.0,0.0,0.0,0.0,0.0,0.0,0.0,0.0,0.0,0.0,0.0,0.0,0.0,0.0,0.0,0.0,0.0,0.0,0.0,0.0,0.0,0.0,0.0,0.0,0.0,0.0,0.0,0.0,0.0,0.0,0.0,0.0,0.0,0.0,0.0,0.0,0.0,0.0,0.0,0.0,0.0,0.0,0.0,0.0,0.0,0.0,0.0,0.0,0.0,0.0,0.0,0.0,0.0,0.0,0.0,0.0,0.0,0.0,0.0,0.0,0.0,0.0,0.0,0.0,0.0,0.0,0.0,0.0,0.0,0.0,0.0,0.0,0.0,0.0,0.0,0.0,0.0,0.0,0.0,0.0,0.0,0.0,0.0,0.0,0.0,0.0,0.0,0.0,0.0,0.0,0.0,0.0,0.0,0.0,0.0,0.0,0.0,0.0,0.0,0.0,0.0,0.0,0.0,0.0,0.0,0.0,0.0,0.0,0.0,0.0,0.0,0.0,0.0,0.0,0.0,0.0,0.0,0.0,0.0,0.0,0.0,0.0,0.0,0.0,0.0,0.0,0.0,0.0,0.0,0.0,0.0,0.0,0.0,0.0,0.0,0.0,0.0,0.0,0.0,0.0,0.0,0.0,0.0,0.0,0.0,0.0,0.0,0.0,0.0,0.0,0.0,0.0,0.0,0.0,0.0,0.0,0.0,0.0,0.0,0.0,0.0,0.0,0.0,0.0,0.0,0.0,0.0,0.0,0.0,0.0,0.0,0.0,0.0,0.0,0.0,0.0,0.0,0.0,0.0,0.0,0.0,0.0,0.0,0.0,0.0,0.0,0.0,0.0,0.0,0.0,0.0,0.0,0.0,0.0,0.0,0.0,0.0,0.0,0.0,0.0,0.0,0.0,0.0,0.0,0.0,0.0,0.0,0.0,0.0,0.0,0.0,0.0,0.0,0.0,0.0,0.0,0.0,0.0,0.0,0.0,0.0,0.0,0.0,0.0,0.0,0.0,0.0,0.0,0.0,0.0,0.0,0.0,0.0,0.0,0.0,0.0,0.0,0.0,0.0,0.0,0.0,0.0,0.0,0.0,0.0,0.0,0.0,0.0,0.0,0.0,0.0,0.0,0.0,0.0,0.0,0.0,0.0,0.0,-0.4603,0.0,0.0,0.0,0.0,0.0,0.0,0.0,0.0,0.0,0.0,0.0,0.0,0.0,0.0,0.0,0.0,0.0,0.0,0.0,0.0,0.0,0.0,0.0,0.0,0.0,0.0,0.0,0.0,0.0,0.0,0.0,0.0,0.0,0.0,0.0,0.0,0.0,0.0,0.0,0.0,0.0,0.0,0.0,0.0,0.0,0.0,0.0,0.0,0.0,0.0,0.0,0.0,0.0,0.0,0.0,0.0,0.0,0.0,0.0,0.0,0.0,0.0,0.0,0.0,0.0,0.0,0.0,0.0,0.0,0.0,0.0,0.0,0.0,0.0,0.0,0.0,0.0,0.0,0.0,0.0,0.0,0.0,0.0,0.0,0.0,0.0,0.0,0.0,0.0,0.0,0.0,0.0,0.0,0.0,0.0,0.0,0.0,0.0,0.0,0.0,0.0,0.0,0.0,0.0,0.0,0.0,0.0,0.0,0.0,0.0,-0.4586,-0.4237,-0.4928,-0.5046,-0.449,0.0,0.0,0.0,0.0,0.0,0.0,0.0,0.0,0.0,0.0,0.0,0.0,0.0,0.0,0.0,0.0,0.0,0.0,0.0,0.0,0.0,0.0,0.0,0.0,0.0,0.0,0.0,0.0,0.0,0.0,0.0,0.0,0.0,0.0,0.0,0.0,0.0,0.0,0.0,0.0,0.0,0.0,0.0,0.0,0.0,0.0,0.0,0.0,0.0,0.0,0.0,0.0,0.0,0.0,0.0,0.0,0.0,0.0,0.0,0.0,0.0,0.0,0.0,0.0,0.0,0.0,0.0,0.0,0.0,0.0,0.0,0.0,0.0,0.0,0.0,0.0,0.0,0.0,0.0,0.0,0.0,0.0,0.0,0.0,0.0,0.0,0.0,0.0,0.0,0.0,0.0,0.0,0.0,0.0,0.0,0.0,0.0,0.0,0.0,0.0,0.0,0.0,0.0,0.0,0.0,0.0,0.0,0.0,0.0,0.0,0.0,0.0,-0.5307,-0.5274,-0.476,0.0,0.0,0.0,0.0,0.0,0.0,0.0,0.0,0.0,0.0,0.0,0.0,0.0,0.0,0.0,0.0,0.0,0.0,0.0,0.0,0.0,0.0,0.0,0.0,0.0,0.0,0.0,0.0,0.0,0.0,0.0,0.0,0.0,0.0,0.0,0.0,0.0,0.0,0.0,0.0,0.0,0.0,0.0,0.0,0.0,0.0,0.0,0.0,0.0,0.0,0.0,0.0,0.0,0.0,0.0,0.0,0.0,0.0,0.0,0.0,0.0,0.0,0.0,0.0,0.0,0.0,0.0,0.0,0.0,0.0,0.0,0.0,0.0,0.0,0.0,0.0,0.0,0.0,0.0,0.0,0.0,0.0,0.0,0.0,0.0,0.0,0.0,0.0,0.0,0.0,0.0,0.0,0.0,0.0,0.0,0.0,0.0,0.0,0.0,0.0,0.0,0.0,0.0,0.0,0.0,0.0,0.0,0.0,0.0,0.0,-0.5186,-0.6524,-0.6327,0.0,-0.576,0.0,0.0,0.0,0.0,0.0,0.0,0.0,0.0,0.0,0.0,0.0,0.0,0.0,0.0,0.0,0.0,0.0,0.0,0.0,0.0,0.0,0.0,0.0,0.0,0.0,0.0,0.0,0.0,0.0,0.0,0.0,0.0,0.0,0.0,0.0,0.0,0.0,0.0,0.0,0.0,0.0,0.0,0.0,0.0,0.0,0.0,0.0,0.0,0.0,0.0,0.0,0.0,0.0,0.0,0.0,0.0,0.0,0.0,0.0,0.0,0.0,0.0,0.0,0.0,0.0,0.0,0.0,0.0,0.0,0.0,0.0,0.0,0.0,0.0,0.0,0.0,0.0,0.0,0.0,0.0,0.0,0.0,0.0,0.0,0.0,0.0,0.0,0.0,0.0,0.0,0.0,0.0,0.0,0.0,0.0,0.0,0.0,0.0,0.0,0.0,0.0,0.0,0.0,0.0,0.0,0.0,0.0,0.0,0.0,0.0,0.0,-0.713,-0.687,-0.6235,0.0,0.0,0.0,0.0,0.0,0.0,0.0,0.0,0.0,0.0,0.0,0.0,0.0,0.0,0.0,0.0,0.0,0.0,0.0,0.0,0.0,0.0,0.0,0.0,0.0,0.0,0.0,0.0,0.0,0.0,0.0,0.0,0.0,0.0,0.0,0.0,0.0,0.0,0.0,0.0,0.0,0.0,0.0,0.0,0.0,0.0,0.0,0.0,0.0,0.0,0.0,0.0,0.0,0.0,0.0,0.0,0.0,0.0,0.0,0.0,0.0,0.0,0.0,0.0,0.0,0.0,0.0,0.0,0.0,0.0,0.0,0.0,0.0,0.0,0.0,0.0,0.0,0.0,0.0,0.0,0.0,0.0,0.0,0.0,0.0,0.0,0.0,0.0,0.0,0.0,0.0,0.0,0.0,0.0,0.0,0.0,0.0,0.0,0.0,0.0,0.0,0.0,0.0,0.0,0.0,0.0,0.0,0.0,0.0,0.0,-0.6689,0.0,-0.8084,-0.7314,-0.6303,-0.5186,0.0,0.0,0.0,0.0,0.0,0.0,0.0,0.0,0.0,0.0,0.0,0.0,0.0,0.0,0.0,0.0,0.0,0.0,0.0,0.0,0.0,0.0,0.0,0.0,0.0,0.0,0.0,0.0,0.0,0.0,0.0,0.0,0.0,0.0,0.0,0.0,0.0,0.0,0.0,0.0,0.0,0.0,0.0,0.0,0.0,0.0,0.0,0.0,0.0,0.0,0.0,0.0,0.0,0.0,0.0,0.0,0.0,0.0,0.0,0.0,0.0,0.0,0.0,0.0,0.0,0.0,0.0,0.0,0.0,0.0,0.0,0.0,0.0,0.0,0.0,0.0,0.0,0.0,0.0,0.0,0.0,0.0,0.0,0.0,0.0,0.0,0.0,0.0,0.0,0.0,0.0,0.0,0.0,0.0,0.0,0.0,0.0,0.0,0.0,0.0,0.0,0.0,0.0,0.0,0.0,0.0,0.0,0.0,0.0,-0.9116,-0.9031,-1.0028,-0.7807,-0.6425,0.0,0.0,0.0,0.0,0.0,0.0,0.0,0.0,0.0,0.0,0.0,0.0,0.0,0.0,0.0,0.0,0.0,0.0,0.0,0.0,0.0,0.0,0.0,0.0,0.0,0.0,0.0,0.0,0.0,0.0,0.0,0.0,0.0,0.0,0.0,0.0,0.0,0.0,0.0,0.0,0.0,0.0,0.0,0.0,0.0,0.0,0.0,0.0,0.0,0.0,0.0,0.0,0.0,0.0,0.0,0.0,0.0,0.0,0.0,0.0,0.0,0.0,0.0,0.0,0.0,0.0,0.0,0.0,0.0,0.0,0.0,0.0,0.0,0.0,0.0,0.0,0.0,0.0,0.0,0.0,0.0,0.0,0.0,0.0,0.0,0.0,0.0,0.0,0.0,0.0,0.0,0.0,0.0,0.0,0.0,0.0,0.0,0.0,0.0,0.0,0.0,0.0,0.0,0.0,0.0,0.0,0.0,0.0,0.0,-0.8101,-0.8898,-0.9549,-1.0021,-0.8622,-0.7654,0.0,0.0,0.0,0.0,0.0,0.0,0.0,0.0,0.0,0.0,0.0,0.0,0.0,0.0,0.0,0.0,0.0,0.0,0.0,0.0,0.0,0.0,0.0,0.0,0.0,0.0,0.0,0.0,0.0,0.0,0.0,0.0,0.0,0.0,0.0,0.0,0.0,0.0,0.0,0.0,0.0,0.0,0.0,0.0,0.0,0.0,0.0,0.0,0.0,0.0,0.0,0.0,0.0,0.0,0.0,0.0,0.0,0.0,0.0,0.0,0.0,0.0,0.0,0.0,0.0,0.0,0.0,0.0,0.0,0.0,0.0,0.0,0.0,0.0,0.0,0.0,0.0,0.0,0.0,0.0,0.0,0.0,0.0,0.0,0.0,0.0,0.0,0.0,0.0,0.0,0.0,0.0,0.0,0.0,0.0,0.0,0.0,0.0,0.0,0.0,0.0,0.0,0.0,0.0,0.0,0.0,0.0,0.0,0.0,-0.8937,0.0,-1.1812,0.0,-0.9971,-0.8691,0.0,0.0,0.0,0.0,0.0,0.0,0.0,0.0,0.0,0.0,0.0,0.0,0.0,0.0,0.0,0.0,0.0,0.0,0.0,0.0,0.0,0.0,0.0,0.0,0.0,0.0,0.0,0.0,0.0,0.0,0.0,0.0,0.0,0.0,0.0,0.0,0.0,0.0,0.0,0.0,0.0,0.0,0.0,0.0,0.0,0.0,0.0,0.0,0.0,0.0,0.0,0.0,0.0,0.0,0.0,0.0,0.0,0.0,0.0,0.0,0.0,0.0,0.0,0.0,0.0,0.0,0.0,0.0,0.0,0.0,0.0,0.0,0.0,0.0,0.0,0.0,0.0,0.0,0.0,0.0,0.0,0.0,0.0,0.0,0.0,0.0,0.0,0.0,0.0,0.0,0.0,0.0,0.0,0.0,0.0,0.0,0.0,0.0,0.0,0.0,0.0,0.0,0.0,0.0,0.0,0.0,0.0,0.0,-0.9375,-1.3392,-1.5611,-1.5787,-1.4135,-1.1801,-0.944,0.0,0.0,0.0,0.0,0.0,0.0,0.0,0.0,0.0,0.0,0.0,0.0,0.0,0.0,0.0,0.0,0.0,0.0,0.0,0.0,0.0,0.0,0.0,0.0,0.0,0.0,0.0,0.0,0.0,0.0,0.0,0.0,0.0,0.0,0.0,0.0,0.0,0.0,0.0,0.0,0.0,0.0,0.0,0.0,0.0,0.0,0.0,0.0,0.0,0.0,0.0,0.0,0.0,0.0,0.0,0.0,0.0,0.0,0.0,0.0,0.0,0.0,0.0,0.0,0.0,0.0,0.0,0.0,0.0,0.0,0.0,0.0,0.0,0.0,0.0,0.0,0.0,0.0,0.0,0.0,0.0,0.0,0.0,0.0,0.0,0.0,0.0,0.0,0.0,0.0,0.0,0.0,0.0,0.0,0.0,0.0,0.0,0.0,0.0,0.0,0.0,0.0,0.0,0.0,0.0,0.0,0.0,0.0,0.0,-1.3489,-1.5668,-1.6636,-1.6141,-1.2854,-1.0802,0.0,0.0,0.0,0.0,0.0,0.0,0.0,0.0,0.0,0.0,0.0,0.0,0.0,0.0,0.0,0.0,0.0,0.0,0.0,0.0,0.0,0.0,0.0,0.0,0.0,0.0,0.0,0.0,0.0,0.0,0.0,0.0,0.0,0.0,0.0,0.0,0.0,0.0,0.0,0.0,0.0,0.0,0.0,0.0,0.0,0.0,0.0,0.0,0.0,0.0,0.0,0.0,0.0,0.0,0.0,0.0,0.0,0.0,0.0,0.0,0.0,0.0,0.0,0.0,0.0,0.0,0.0,0.0,0.0,0.0,0.0,0.0,0.0,0.0,0.0,0.0,0.0,0.0,0.0,0.0,0.0,0.0,0.0,0.0,0.0,0.0,0.0,0.0,0.0,0.0,0.0,0.0,0.0,0.0,0.0,0.0,0.0,0.0,0.0,0.0,0.0,0.0,0.0,0.0,0.0,0.0,0.0,0.0,0.0,-1.7359,-1.8804,-1.921,-1.8408,-1.4949,-1.2677,-1.1765,0.0,0.0,0.0,0.0,0.0,0.0,0.0,0.0,0.0,0.0,0.0,0.0,0.0,0.0,0.0,0.0,0.0,0.0,0.0,0.0,0.0,0.0,0.0,0.0,0.0,0.0,0.0,0.0,0.0,0.0,0.0,0.0,0.0,0.0,0.0,0.0,0.0,0.0,0.0,0.0,0.0,0.0,0.0,0.0,0.0,0.0,0.0,0.0,0.0,0.0,0.0,0.0,0.0,0.0,0.0,0.0,0.0,0.0,0.0,0.0,0.0,0.0,0.0,0.0,0.0,0.0,0.0,0.0,0.0,0.0,0.0,0.0,0.0,0.0,0.0,0.0,0.0,0.0,0.0,0.0,0.0,0.0,0.0,0.0,0.0,0.0,0.0,0.0,0.0,0.0,0.0,0.0,0.0,0.0,0.0,0.0,0.0,0.0,0.0,0.0,0.0,0.0,0.0,0.0,0.0,0.0,0.0,0.0,-2.3852,-2.4335,-2.3301,-2.0704,-1.7831,-1.4899,0.0,0.0,0.0,0.0,0.0,0.0,0.0,0.0,0.0,0.0,0.0,0.0,0.0,0.0,0.0,0.0,0.0,0.0,0.0,0.0,0.0,0.0,0.0,0.0,0.0,0.0,0.0,0.0,0.0,0.0,0.0,0.0,0.0,0.0,0.0,0.0,0.0,0.0,0.0,0.0,0.0,0.0,0.0,0.0,0.0,0.0,0.0,0.0,0.0,0.0,0.0,0.0,0.0,0.0,0.0,0.0,0.0,0.0,0.0,0.0,0.0,0.0,0.0,0.0,0.0,0.0,0.0,0.0,0.0,0.0,0.0,0.0,0.0,0.0,0.0,0.0,0.0,0.0,0.0,0.0,0.0,0.0,0.0,0.0,0.0,0.0,0.0,0.0,0.0,0.0,0.0,0.0,0.0,0.0,0.0,0.0,0.0,0.0,0.0,0.0,0.0,0.0,0.0,0.0,0.0,0.0,0.0,0.0,0.0,-2.5054,-2.6848,-2.6513,-2.3819,-1.9311,-1.5864,0.0,0.0,0.0,0.0,0.0,0.0,0.0,0.0,0.0,0.0,0.0,0.0,0.0,0.0,0.0,0.0,0.0,0.0,0.0,0.0,0.0,0.0,0.0,0.0,0.0,0.0,0.0,0.0,0.0,0.0,0.0,0.0,0.0,0.0,0.0,0.0,0.0,0.0,0.0,0.0,0.0,0.0,0.0,0.0,0.0,0.0,0.0,0.0,0.0,0.0,0.0,0.0,0.0,0.0,0.0,0.0,0.0,0.0,0.0,0.0,0.0,0.0,0.0,0.0,0.0,0.0,0.0,0.0,0.0,0.0,0.0,0.0,0.0,0.0,0.0,0.0,0.0,0.0,0.0,0.0,0.0,0.0,0.0,0.0,0.0,0.0,0.0,0.0,0.0,0.0,0.0,0.0,0.0,0.0,0.0,0.0,0.0,0.0,0.0,0.0,0.0,0.0,0.0,0.0,0.0,0.0,0.0,0.0,-2.4034,-2.7672,-2.9032,-2.8898,-2.7198,-2.2312,-1.8237,0.0,0.0,0.0,0.0,0.0,0.0,0.0,0.0,0.0,0.0,0.0,0.0,0.0,0.0,0.0,0.0,0.0,0.0,0.0,0.0,0.0,0.0,0.0,0.0,0.0,0.0,0.0,0.0,0.0,0.0,0.0,0.0,0.0,0.0,0.0,0.0,0.0,0.0,0.0,0.0,0.0,0.0,0.0,0.0,0.0,0.0,0.0,0.0,0.0,0.0,0.0,0.0,0.0,0.0,0.0,0.0,0.0,0.0,0.0,0.0,0.0,0.0,0.0,0.0,0.0,0.0,0.0,0.0,0.0,0.0,0.0,0.0,0.0,0.0,0.0,0.0,0.0,0.0,0.0,0.0,0.0,0.0,0.0,0.0,0.0,0.0,0.0,0.0,0.0,0.0,0.0,0.0,0.0,0.0,0.0,0.0,0.0,0.0,0.0,0.0,0.0,0.0,0.0,0.0,0.0,0.0,0.0,0.0,-2.6347,-3.0631,-3.0884,-3.074,-3.017,-2.5717,-2.1077,0.0,0.0,0.0,0.0,0.0,0.0,0.0,0.0,0.0,0.0,0.0,0.0,0.0,0.0,0.0,0.0,0.0,0.0,0.0,0.0,0.0,0.0,0.0,0.0,0.0,0.0,0.0,0.0,0.0,0.0,0.0,0.0,0.0,0.0,0.0,0.0,0.0,0.0,0.0,0.0,0.0,0.0,0.0,0.0,0.0,0.0,0.0,0.0,0.0,0.0,0.0,0.0,0.0,0.0,0.0,0.0,0.0,0.0,0.0,0.0,0.0,0.0,0.0,0.0,0.0,0.0,0.0,0.0,0.0,0.0,0.0,0.0,0.0,0.0,0.0,0.0,0.0,0.0,0.0,0.0,0.0,0.0,0.0,0.0,0.0,0.0,0.0,0.0,0.0,0.0,0.0,0.0,0.0,0.0,0.0,0.0,0.0,0.0,0.0,0.0,0.0,0.0,0.0,0.0,0.0,0.0,0.0,0.0,-2.7419,-3.0978,-3.2031,-3.2224,-3.1574,-2.5899,-2.1294,0.0,0.0,0.0,0.0,0.0,0.0,0.0,0.0,0.0,0.0,0.0,0.0,0.0,0.0,0.0,0.0,0.0,0.0,0.0,0.0,0.0,0.0,0.0,0.0,0.0,0.0,0.0,0.0,0.0,0.0,0.0,0.0,0.0,0.0,0.0,0.0,0.0,0.0,0.0,0.0,0.0,0.0,0.0,0.0,0.0,0.0,0.0,0.0,-1.0671,0.0,0.0,0.0,0.0,0.0,0.0,0.0,0.0,0.0,0.0,0.0,0.0,0.0,0.0,0.0,0.0,0.0,0.0,0.0,0.0,0.0,0.0,0.0,0.0,0.0,0.0,0.0,0.0,0.0,0.0,0.0,0.0,0.0,0.0,0.0,0.0,0.0,0.0,0.0,0.0,0.0,0.0,0.0,0.0,0.0,0.0,0.0,0.0,0.0,0.0,0.0,0.0,0.0,0.0,0.0,0.0,0.0,0.0,0.0,-2.9176,-3.1885,-3.316,-3.3486,-3.2715,-2.8077,-2.3588,0.0,0.0,0.0,0.0,0.0,0.0,0.0,0.0,0.0,0.0,0.0,0.0,0.0,0.0,0.0,0.0,0.0,0.0,0.0,0.0,0.0,0.0,0.0,0.0,0.0,0.0,0.0,0.0,0.0,0.0,0.0,0.0,0.0,0.0,0.0,0.0,0.0,0.0,0.0,0.0,0.0,0.0,0.0,0.0,0.0,0.0,0.0,0.0,0.0,0.0,0.0,0.0,0.0,0.0,0.0,0.0,0.0,0.0,0.0,0.0,0.0,0.0,0.0,0.0,0.0,0.0,0.0,0.0,0.0,0.0,0.0,0.0,0.0,0.0,0.0,0.0,0.0,0.0,0.0,0.0,0.0,0.0,0.0,0.0,0.0,0.0,0.0,0.0,0.0,0.0,0.0,0.0,0.0,0.0,0.0,0.0,0.0,0.0,0.0,0.0,0.0,0.0,0.0,0.0,0.0,0.0,0.0,-2.7665,-3.065,-3.2798,-3.4129,-3.4522,-3.3889,-3.0836,-2.6586,-2.1231,0.0,0.0,0.0,0.0,0.0,0.0,0.0,0.0,0.0,0.0,0.0,0.0,0.0,0.0,0.0,0.0,0.0,0.0,0.0,0.0,0.0,0.0,0.0,0.0,0.0,0.0,0.0,0.0,0.0,0.0,0.0,0.0,0.0,0.0,0.0,0.0,0.0,0.0,-1.1768,-1.3247,0.0,0.0,0.0,0.0,0.0,0.0,0.0,0.0,-1.2835,0.0,0.0,0.0,0.0,0.0,0.0,0.0,0.0,0.0,0.0,0.0,0.0,0.0,0.0,0.0,0.0,0.0,0.0,0.0,0.0,0.0,0.0,0.0,0.0,0.0,0.0,0.0,0.0,0.0,0.0,0.0,0.0,0.0,0.0,0.0,0.0,0.0,0.0,0.0,0.0,0.0,0.0,0.0,0.0,0.0,0.0,0.0,0.0,0.0,0.0,0.0,0.0,0.0,0.0,0.0,0.0,-2.458,-2.7267,-3.0089,-3.3065,-3.4551,-3.5065,-3.4524,-3.232,-2.8819,-2.3893,0.0,0.0,0.0,0.0,0.0,0.0,0.0,0.0,0.0,0.0,0.0,0.0,0.0,0.0,0.0,0.0,0.0,0.0,0.0,0.0,0.0,0.0,0.0,0.0,0.0,0.0,0.0,0.0,0.0,0.0,0.0,0.0,0.0,0.0,0.0,0.0,0.0,0.0,0.0,-1.5276,-1.5642,0.0,0.0,0.0,0.0,0.0,0.0,0.0,0.0,-1.398,0.0,0.0,0.0,0.0,0.0,0.0,0.0,0.0,0.0,0.0,0.0,0.0,0.0,0.0,0.0,0.0,0.0,0.0,0.0,0.0,0.0,0.0,0.0,0.0,0.0,0.0,0.0,0.0,0.0,0.0,0.0,0.0,0.0,0.0,0.0,0.0,0.0,0.0,0.0,0.0,0.0,0.0,0.0,0.0,0.0,0.0,0.0,0.0,0.0,0.0,0.0,0.0,0.0,0.0,0.0,-2.5329,-2.9036,-3.1912,-3.3872,-3.5032,-3.5437,-3.5065,-3.2155,-2.8668,0.0,0.0,0.0,0.0,0.0,0.0,0.0,0.0,0.0,0.0,0.0,0.0,0.0,0.0,0.0,0.0,0.0,0.0,0.0,0.0,0.0,0.0,0.0,0.0,0.0,0.0,0.0,0.0,0.0,0.0,0.0,0.0,0.0,0.0,0.0,0.0,0.0,0.0,0.0,0.0,-1.7446,-1.8031,-1.8176,0.0,0.0,0.0,0.0,0.0,0.0,-1.6125,-1.5754,0.0,0.0,0.0,0.0,0.0,0.0,0.0,0.0,0.0,0.0,0.0,0.0,0.0,0.0,0.0,0.0,0.0,0.0,0.0,0.0,0.0,0.0,0.0,0.0,0.0,0.0,0.0,0.0,0.0,0.0,0.0,0.0,0.0,0.0,0.0,0.0,0.0,0.0,0.0,0.0,0.0,0.0,0.0,0.0,0.0,0.0,0.0,0.0,0.0,0.0,0.0,0.0,0.0,0.0,0.0,-2.6026,-3.043,-3.3315,-3.4526,-3.5367,-3.5622,-3.5236,-3.1783,-2.8265,0.0,0.0,0.0,0.0,0.0,0.0,0.0,0.0,0.0,0.0,0.0,0.0,0.0,0.0,0.0,0.0,0.0,0.0,0.0,0.0,0.0,0.0,0.0,0.0,0.0,0.0,0.0,0.0,0.0,0.0,0.0,0.0,0.0,0.0,0.0,0.0,0.0,0.0,0.0,0.0,0.0,-2.0402,-1.9881,-2.0189,0.0,0.0,0.0,0.0,-1.8355,-1.8174,0.0,0.0,0.0,0.0,0.0,0.0,0.0,0.0,0.0,0.0,0.0,0.0,0.0,0.0,0.0,0.0,0.0,0.0,0.0,0.0,0.0,0.0,0.0,0.0,0.0,0.0,0.0,0.0,0.0,0.0,0.0,0.0,0.0,0.0,0.0,0.0,0.0,0.0,0.0,0.0,0.0,0.0,0.0,0.0,0.0,0.0,0.0,0.0,0.0,0.0,0.0,0.0,0.0,0.0,0.0,0.0,-2.616,-2.9199,-3.197,-3.4396,-3.5317,-3.5329,-3.453,-3.2188,-2.9087,0.0,0.0,0.0,0.0,0.0,0.0,0.0,0.0,0.0,0.0,0.0,0.0,0.0,0.0,0.0,0.0,0.0,0.0,0.0,0.0,0.0,0.0,0.0,0.0,0.0,0.0,0.0,0.0,0.0,0.0,0.0,0.0,0.0,0.0,0.0,0.0,0.0,0.0,0.0,0.0,0.0,-2.1863,-2.1856,-2.1826,-2.1854,0.0,0.0,-2.1515,-2.2897,-2.191,0.0,0.0,0.0,0.0,0.0,0.0,0.0,0.0,0.0,0.0,0.0,0.0,0.0,0.0,0.0,0.0,0.0,0.0,0.0,0.0,0.0,0.0,0.0,0.0,0.0,0.0,0.0,0.0,0.0,0.0,0.0,0.0,0.0,0.0,0.0,0.0,0.0,0.0,0.0,0.0,0.0,0.0,0.0,0.0,0.0,0.0,0.0,0.0,0.0,0.0,0.0,0.0,0.0,0.0,0.0,-2.305,-2.7033,-3.0333,-3.3015,-3.5081,-3.5591,-3.5388,-3.448,-3.1025,-2.7784,0.0,0.0,0.0,0.0,0.0,0.0,0.0,0.0,0.0,0.0,0.0,0.0,0.0,0.0,0.0,0.0,0.0,0.0,0.0,0.0,0.0,0.0,0.0,0.0,0.0,0.0,0.0,0.0,0.0,0.0,0.0,0.0,0.0,0.0,0.0,0.0,0.0,0.0,0.0,0.0,0.0,0.0,-2.3315,-2.4067,0.0,0.0,0.0,-2.3957,-2.3667,0.0,0.0,0.0,0.0,0.0,0.0,0.0,0.0,0.0,0.0,0.0,0.0,0.0,0.0,0.0,0.0,0.0,0.0,0.0,0.0,0.0,0.0,0.0,0.0,0.0,0.0,0.0,0.0,0.0,0.0,0.0,0.0,0.0,0.0,0.0,0.0,0.0,0.0,0.0,0.0,0.0,0.0,0.0,0.0,0.0,0.0,0.0,0.0,0.0,0.0,0.0,0.0,0.0,0.0,0.0,0.0,0.0,-2.7713,-3.1315,-3.4005,-3.5644,-3.5825,-3.5317,-3.4143,-3.0574,0.0,0.0,0.0,0.0,0.0,0.0,0.0,0.0,0.0,0.0,0.0,0.0,0.0,0.0,0.0,0.0,0.0,0.0,0.0,0.0,0.0,0.0,0.0,0.0,0.0,0.0,0.0,-1.1468,0.0,0.0,0.0,0.0,0.0,0.0,0.0,0.0,0.0,0.0,0.0,0.0,0.0,0.0,-2.4201,-2.4487,-2.5977,-2.697,0.0,0.0,-2.6125,-2.5058,-2.5476,-2.5194,0.0,0.0,0.0,0.0,0.0,0.0,0.0,0.0,0.0,0.0,0.0,0.0,0.0,0.0,0.0,0.0,0.0,0.0,0.0,0.0,0.0,0.0,0.0,0.0,0.0,0.0,0.0,0.0,0.0,0.0,0.0,0.0,0.0,0.0,0.0,0.0,0.0,0.0,0.0,0.0,0.0,0.0,0.0,0.0,0.0,0.0,0.0,0.0,0.0,0.0,0.0,0.0,0.0,0.0,0.0,-2.7773,-3.1294,-3.395,-3.5633,-3.5772,-3.5004,-3.3319,-3.1949,-2.9139,0.0,0.0,0.0,0.0,0.0,0.0,0.0,0.0,0.0,0.0,0.0,0.0,0.0,0.0,0.0,0.0,0.0,0.0,0.0,0.0,0.0,0.0,0.0,0.0,0.0,0.0,0.0,0.0,0.0,0.0,0.0,0.0,0.0,0.0,0.0,0.0,0.0,0.0,0.0,0.0,0.0,-2.4779,-2.5329,-2.7098,-2.8639,0.0,-2.8525,-2.811,-2.8793,-2.8015,-2.6871,-2.5474,0.0,0.0,0.0,0.0,0.0,0.0,0.0,0.0,0.0,0.0,0.0,0.0,0.0,0.0,0.0,0.0,0.0,0.0,0.0,0.0,0.0,0.0,0.0,0.0,0.0,0.0,0.0,0.0,0.0,0.0,0.0,0.0,0.0,0.0,0.0,0.0,0.0,0.0,0.0,0.0,0.0,0.0,0.0,0.0,0.0,0.0,0.0,0.0,0.0,0.0,0.0,0.0,0.0,-2.4375,-2.7828,-3.1312,-3.3949,-3.5621,-3.5768,-3.5225,-3.4034,-3.197,-2.9469,0.0,0.0,0.0,0.0,0.0,0.0,0.0,0.0,0.0,0.0,0.0,0.0,0.0,0.0,0.0,0.0,0.0,0.0,0.0,0.0,0.0,0.0,0.0,0.0,0.0,0.0,0.0,0.0,-1.3598,-1.3622,-1.3474,0.0,0.0,0.0,0.0,0.0,0.0,0.0,0.0,0.0,0.0,-2.6814,-2.8215,-3.0075,0.0,0.0,-3.0964,-3.0655,-2.9806,-2.9554,-2.8932,-2.7416,-2.685,0.0,0.0,0.0,0.0,0.0,0.0,0.0,0.0,0.0,0.0,0.0,0.0,0.0,0.0,0.0,0.0,0.0,0.0,0.0,0.0,0.0,0.0,0.0,0.0,0.0,0.0,0.0,0.0,0.0,0.0,0.0,0.0,0.0,0.0,0.0,0.0,0.0,0.0,0.0,0.0,0.0,0.0,0.0,0.0,0.0,0.0,0.0,0.0,0.0,0.0,0.0,0.0,-2.4703,-2.7913,-3.1352,-3.3936,-3.5672,-3.5743,-3.5365,-3.4509,-3.2454,-3.0286,0.0,0.0,0.0,0.0,0.0,0.0,0.0,0.0,0.0,0.0,0.0,0.0,0.0,0.0,0.0,0.0,0.0,0.0,0.0,0.0,0.0,0.0,0.0,0.0,0.0,0.0,0.0,0.0,-1.4618,-1.4691,-1.427,0.0,0.0,0.0,0.0,0.0,0.0,0.0,0.0,0.0,0.0,-2.8458,-2.9979,-3.1879,-3.2917,-3.2299,-3.2396,-3.2036,-3.067,-3.0743,-3.0386,-2.8681,0.0,0.0,0.0,0.0,0.0,0.0,0.0,0.0,0.0,0.0,0.0,0.0,0.0,0.0,0.0,0.0,0.0,0.0,0.0,0.0,0.0,0.0,0.0,0.0,0.0,0.0,0.0,-1.1265,0.0,0.0,-0.9973,0.0,0.0,0.0,0.0,0.0,0.0,0.0,0.0,0.0,0.0,0.0,0.0,0.0,0.0,0.0,0.0,0.0,0.0,0.0,0.0,0.0,0.0,-2.5377,-2.8002,-3.1409,-3.3958,-3.5641,-3.5712,-3.5337,-3.4634,-3.3709,-3.19,-2.9103,0.0,0.0,0.0,0.0,0.0,0.0,0.0,0.0,0.0,0.0,0.0,0.0,0.0,0.0,0.0,0.0,0.0,0.0,0.0,0.0,0.0,0.0,0.0,0.0,0.0,0.0,-1.5013,-1.59,-1.616,0.0,0.0,0.0,0.0,0.0,0.0,0.0,0.0,0.0,0.0,-2.7225,-2.9366,-3.0161,-3.1955,-3.3266,-3.3191,-3.2504,-3.1907,-3.1743,-3.1634,-3.096,0.0,0.0,0.0,0.0,0.0,0.0,0.0,0.0,0.0,0.0,0.0,0.0,0.0,0.0,0.0,0.0,0.0,0.0,0.0,0.0,0.0,0.0,0.0,0.0,0.0,0.0,0.0,-1.3377,-1.3123,0.0,0.0,0.0,0.0,0.0,0.0,0.0,0.0,0.0,0.0,0.0,-2.4259,-2.5106,0.0,0.0,0.0,0.0,0.0,0.0,0.0,0.0,0.0,0.0,0.0,0.0,-2.6286,-2.8952,-3.2204,-3.4483,-3.5653,-3.5699,-3.5577,-3.5337,-3.4,-3.171,-2.8339,0.0,0.0,0.0,0.0,0.0,0.0,0.0,0.0,0.0,0.0,0.0,0.0,0.0,0.0,0.0,0.0,0.0,0.0,0.0,0.0,0.0,0.0,0.0,0.0,0.0,-1.6255,0.0,0.0,0.0,0.0,0.0,0.0,0.0,0.0,0.0,0.0,0.0,-2.6323,-2.759,-3.0117,-3.214,-3.3013,-3.4192,-3.4806,0.0,0.0,0.0,0.0,0.0,0.0,0.0,0.0,0.0,0.0,0.0,0.0,0.0,0.0,-2.6739,-2.3597,-2.2394,-2.1871,-2.1817,0.0,0.0,0.0,0.0,0.0,0.0,0.0,0.0,0.0,0.0,0.0,0.0,0.0,0.0,-1.7494,-1.7394,-1.5994,0.0,0.0,0.0,0.0,0.0,0.0,0.0,0.0,-2.5987,-2.7972,-2.8468,-2.9401,-2.96,0.0,-2.777,-2.5256,0.0,0.0,0.0,0.0,0.0,0.0,0.0,0.0,-2.7345,-2.9407,-3.259,-3.4685,-3.5544,-3.5558,-3.5563,-3.5644,-3.4127,-3.1893,-2.8924,-2.654,-2.4629,0.0,0.0,0.0,0.0,0.0,0.0,0.0,0.0,0.0,0.0,0.0,0.0,0.0,0.0,0.0,0.0,0.0,0.0,0.0,0.0,0.0,0.0,0.0,-1.8342,0.0,0.0,0.0,0.0,0.0,0.0,0.0,0.0,0.0,-2.3598,-2.6328,-2.8869,-3.0451,-3.2421,-3.3924,-3.4489,0.0,0.0,0.0,0.0,0.0,0.0,0.0,-3.1693,-3.1268,-3.1492,-3.1909,-3.2522,-3.3212,-3.3569,-3.3313,0.0,0.0,-2.7618,-2.6205,-2.5653,-2.5853,-2.5702,-2.5571,-2.5864,-2.5921,-2.5861,0.0,0.0,0.0,0.0,0.0,0.0,0.0,0.0,-2.4083,-2.3915,0.0,-2.1335,0.0,0.0,0.0,0.0,-2.0693,-2.2992,0.0,0.0,-3.2024,-3.3237,-3.1865,-3.2856,-3.2788,-3.17,-3.0974,-3.0085,-2.8912,-2.5162,0.0,0.0,0.0,0.0,0.0,0.0,-2.8554,-2.9535,-3.2585,-3.4562,-3.5372,-3.5266,-3.5328,-3.5509,-3.4082,-3.2497,-3.0868,-2.8991,-2.7215,-2.5444,-2.3482,0.0,0.0,0.0,0.0,0.0,0.0,0.0,0.0,0.0,0.0,0.0,0.0,0.0,0.0,0.0,0.0,0.0,0.0,0.0,0.0,-1.9874,0.0,0.0,0.0,0.0,0.0,0.0,0.0,0.0,0.0,0.0,-2.6506,-2.8229,-3.0392,-3.2772,0.0,0.0,0.0,0.0,-3.4241,-3.3368,-3.2522,-3.2005,-3.1857,-3.3301,-3.4151,-3.3321,0.0,0.0,-3.4951,-3.4656,-3.4461,-3.3721,-3.3643,-3.3085,-3.1941,-3.0051,-2.8919,-2.9576,-2.9136,-2.8938,-2.96,-2.9652,-2.9505,-3.1216,0.0,0.0,0.0,0.0,-2.6179,-2.6403,-2.6672,-2.6,-2.5678,-2.5484,-2.4154,0.0,0.0,0.0,0.0,0.0,0.0,-2.8468,-3.1574,-3.3324,-3.4873,-3.6273,-3.6601,-3.6514,-3.6034,-3.5321,-3.4738,-3.4274,-3.2667,-2.9299,-2.434,0.0,0.0,0.0,0.0,-2.9894,-3.1932,-3.3923,-3.5081,-3.5307,-3.5281,-3.5082,-3.4694,-3.3793,-3.2814,-3.1754,-3.0056,-2.8589,-2.7329,-2.5568,0.0,0.0,0.0,0.0,0.0,0.0,0.0,0.0,0.0,0.0,0.0,0.0,0.0,0.0,0.0,0.0,0.0,0.0,0.0,-2.1005,-2.1115,-2.1383,0.0,0.0,0.0,0.0,0.0,0.0,0.0,0.0,0.0,-3.1097,-3.1165,-3.1428,0.0,0.0,-3.3605,-3.3518,-3.4632,-3.5385,-3.5065,-3.5379,0.0,-3.547,-3.4878,-3.4527,-3.4752,-3.6071,-3.6868,-3.6397,-3.6878,-3.7278,-3.7047,-3.7021,-3.6893,-3.644,-3.3986,-3.2162,-3.2194,-3.2072,-3.1977,-3.2218,-3.2271,-3.2198,-3.6104,-3.3365,-3.0987,-3.0191,-3.0486,-3.0486,-3.0767,-3.1141,-3.0574,-3.0395,-3.0418,-2.8962,-2.836,-2.8415,-2.7682,0.0,0.0,0.0,-3.2165,-3.5438,-3.59,-3.7004,-3.8534,-3.9026,-3.8936,-3.8358,-3.7947,-3.7647,-3.7469,-3.611,-3.3404,-2.9375,0.0,0.0,-2.8813,-3.0353,-3.2034,-3.3792,-3.504,-3.5668,-3.5684,-3.5431,-3.5128,-3.4745,-3.4132,-3.3455,-3.2621,-3.1325,-3.0018,-2.875,-2.7288,-2.5247,0.0,0.0,0.0,0.0,0.0,0.0,0.0,0.0,0.0,0.0,0.0,-1.778,-1.7143,0.0,0.0,0.0,-2.0849,-2.2387,-2.3467,-2.3698,0.0,0.0,0.0,0.0,0.0,0.0,0.0,-2.8593,-3.1054,-3.3011,-3.3617,-3.3534,-3.3774,-3.4838,-3.5193,-3.5301,-3.5216,0.0,-3.6234,-3.5825,-3.6239,-3.658,-3.6505,-3.6213,-3.6371,-3.7543,-3.8191,-3.8438,-3.8192,-3.8601,-3.8859,-3.8578,-3.8489,-3.845,-3.8437,-3.6671,-3.5275,-3.5269,-3.4999,-3.4765,-3.4761,-3.4542,-3.434,-4.0051,-3.9805,-3.5475,-3.4019,-3.4538,-3.4549,-3.5309,-3.6504,-3.6385,-3.6632,-3.6903,-3.4752,-3.3856,-3.3884,-3.1977,0.0,-3.4697,-3.4551,-3.6186,-3.9214,-3.9287,-3.9311,-3.9375,-4.0409,-4.0319,-3.9231,-3.9342,-3.9331,-3.9027,-3.6913,-3.5656,-3.5315,-3.41,-3.2924,-3.193,-3.3228,-3.4353,-3.5108,-3.5744,-3.6169,-3.6245,-3.5643,-3.5299,-3.5268,-3.4777,-3.4094,-3.33,-3.2452,-3.1267,-2.9766,-2.8668,-2.7011,-2.4629,0.0,0.0,0.0,0.0,0.0,0.0,0.0,0.0,0.0,0.0,0.0,0.0,0.0,0.0,0.0,-2.436,0.0,-2.5877,-2.7067,0.0,0.0,0.0,-2.9125,-2.9316,-3.0934,-3.2051,-3.2099,0.0,0.0,-3.4811,-3.5511,-3.6982,-3.9558,-3.9016,-3.8317,-3.8207,-3.7559,-3.6881,-3.6138,-3.6102,-3.6184,-3.6639,-3.7644,-3.902,-4.0463,-4.1108,-4.0674,-3.9976,-3.9809,-3.9491,-3.8936,-3.8642,-3.861,-3.8527,-3.8478,-3.8466,-3.8383,-3.765,-3.7021,-3.6953,-3.6406,-3.5905,-4.1189,-4.0775,-3.9804,-3.841,-3.6818,-3.6875,-3.6889,-3.6882,-3.6828,-3.6855,-3.6807,-3.6307,-3.6306,-3.664,-3.6243,-3.6834,-3.8163,-3.7963,-3.904,-4.1104,-4.0406,-4.0471,-4.1243,-4.1574,-4.1234,-4.0402,-4.1022,-4.1009,-4.0364,-3.9799,-3.8478,-3.6566,-3.6239,-3.4938,-3.2706,-3.29,-3.3736,-3.517,-3.5299,-3.5598,-3.612,-3.5605,-3.5004,-3.4356,-3.3819,-3.3131,-3.2279,-3.148,-3.0842,-3.0437,-2.961,-2.8553,-2.7236,-2.5403,0.0,0.0,0.0,0.0,0.0,0.0,0.0,0.0,0.0,-2.1432,-1.9917,0.0,-2.3415,0.0,-2.5416,-2.7297,-2.9193,-2.9122,0.0,0.0,-3.0537,-3.1326,-3.2122,-3.3746,-3.4796,-3.478,-3.6304,-3.7396,-3.7474,-3.8212,-3.9235,-4.0537,-3.8293,-3.6437,-3.6386,-3.741,-3.8021,-3.7915,-3.8853,-3.9794,-3.9711,-4.0142,-4.0569,-4.1027,-4.1118,-4.0981,-4.0678,-4.0668,-4.0597,-4.0445,-4.0338,-4.0312,-4.0235,-4.0157,-4.0029,-3.9908,-3.8842,-3.7875,-3.7946,-3.7334,-3.6756,-4.2308,-4.2019,-4.1873,-4.0564,-3.8642,-3.9137,-3.9083,-3.8682,-3.9027,-3.8883,-3.8401,-3.8252,-3.8572,-3.9185,-3.9052,-3.9535,-4.04,-3.9914,-4.0452,-4.1809,-4.128,-4.1543,-4.2468,-4.2526,-4.2291,-4.186,-4.2363,-4.2144,-4.1371,-4.1339,-4.0326,-3.8414,-3.8387,-3.7209,-3.4905,-3.3871,-3.4145,-3.5702,-3.6027,-3.615,-3.6048,-3.5925,-3.5265,-3.4096,-3.3856,-3.3212,-3.2021,-3.155,-3.1157,-3.0754,-3.0323,-2.9667,-2.8758,-2.7399,-2.5856,0.0,0.0,0.0,0.0,0.0,0.0,0.0,0.0,0.0,0.0,0.0,-2.5982,-2.634,-2.8062,-2.9723,-3.1069,-3.1419,-3.1753,-3.2246,-3.3359,-3.4294,-3.4889,-3.6482,-3.7534,-3.7495,-3.8669,-3.9539,-3.9609,-4.036,-4.109,-4.1602,-3.9989,-3.8586,-3.8249,-3.8997,-3.9601,-3.964,-4.0455,-4.1103,-4.1066,-4.0995,-4.098,-4.1037,-4.1059,-4.1031,-4.1,-4.1007,-4.1007,-4.1042,-4.0975,-4.0878,-4.0811,-4.0704,-4.0556,-4.0334,-3.9719,-3.9044,-3.8743,-3.8082,-3.7519,-4.3245,-4.3168,-4.2611,-4.1544,-4.0249,-4.1201,-4.1119,-4.0303,-4.0879,-4.0774,-4.0142,-4.0116,-4.0569,-4.1328,-4.0971,-4.1219,-4.1879,-4.1181,-4.1285,-4.2104,-4.2067,-4.251,-4.3339,-4.3357,-4.3354,-4.3291,-4.3414,-4.3015,-4.2183,-4.213,-4.1424,-4.0136,-3.9986,-3.8975,-3.7033,-3.5216,-3.4985,-3.6383,-3.7108,-3.7061,-3.6218,-3.6322,-3.5614,-3.4075,-3.4204,-3.359,-3.2005,-3.1932,-3.1582,-3.0855,-3.08,-3.0447,-2.9689,-2.8831,-2.7696,0.0,-2.5048,0.0,0.0,0.0,0.0,0.0,0.0,0.0,0.0,-2.7961,-2.8975,-2.9889,-3.1514,-3.2553,-3.2691,-3.4038,-3.4922,-3.5009,-3.6384,-3.7366,-3.749,-3.8883,-3.9861,-3.9843,-4.0549,-4.1042,-4.1214,-4.193,-4.2402,-4.2512,-4.2423,-4.1983,-4.1518,-4.1126,-4.0971,-4.1109,-4.1087,-4.107,-4.0989,-4.0902,-4.087,-4.096,-4.0987,-4.1006,-4.105,-4.1031,-4.1028,-4.1055,-4.0984,-4.0856,-4.0721,-4.0638,-4.0533,-4.0345,-4.0233,-4.0008,-3.9495,-3.887,-3.8222,-4.3579,-4.3192,-4.3077,-4.2459,-4.1588,-4.2492,-4.1019,-3.7978,-3.7392,-3.7743,-3.8942,-4.0984,-4.198,-4.2117,-4.2448,-4.259,-4.2622,-4.2607,-4.3041,-4.3797,-4.317,-4.3313,-4.4061,-4.4199,-4.389,-4.3279,-4.3974,-4.3904,-4.3053,-4.2892,-4.1654,-3.9445,-3.9207,-3.7906,-3.5619,0.0,0.0,0.0,-3.7116,-3.7395,-3.7185,-3.626,-3.4986,-3.3385,-3.3442,0.0,-3.1071,-3.096,-3.0892,-3.0738,-3.0722,0.0,0.0,0.0,0.0,0.0,0.0,0.0,0.0,0.0,0.0,0.0,-2.9101,-2.9079,-2.7871,-2.9888,-3.1897,-3.3379,-3.4531,-3.5689,-3.6952,-3.741,-3.7598,-3.7566,-3.8494,-3.9206,-3.9241,-4.0092,-4.0664,-4.0673,-4.0863,-4.1276,-4.1975,-4.228,-4.2674,-4.3281,-4.3431,-4.34,-4.3217,-4.2007,-4.1168,-4.1108,-4.1051,-4.1028,-4.0995,-4.0924,-4.087,-4.0926,-4.0968,-4.0974,-4.0963,-4.0981,-4.0994,-4.102,-4.0957,-4.0873,-4.0737,-4.066,-4.0557,-4.0346,-4.031,-4.0289,-4.0234,-3.9696,-3.9179,-4.4861,-4.4252,-4.4252,-4.3343,0.0,-4.2404,-4.106,-3.8636,-3.9556,-4.0188,-4.0662,-4.1763,-4.2453,-4.2737,-4.1581,-4.1268,-4.1484,-4.0046,-4.0454,-4.2362,-4.1997,-4.2948,-4.4994,-4.5059,-4.4886,-4.4503,-4.4959,-4.4755,-4.3949,-4.3701,-4.2716,-4.1045,-4.0311,-3.9305,-3.8098,-3.7564,-3.7157,-3.6852,-3.7652,-3.8012,-3.7943,-3.7474,-3.646,-3.4877,-3.4991,0.0,0.0,0.0,0.0,0.0,0.0,0.0,0.0,0.0,0.0,-3.0716,-2.9861,-2.9503,-2.9796,-2.9847,-3.0205,-3.0928,-3.234,-3.2444,-3.075,-3.2676,-3.4492,-3.5733,-3.6645,-3.7507,-3.8241,-3.8762,-3.901,-3.9005,-3.9737,-4.0295,-4.0344,-4.0655,-4.1063,-4.1475,-4.1581,-4.191,-4.2766,-4.3346,-4.3756,-4.4177,-4.4314,-4.4339,-4.4179,-4.2848,-4.1636,-4.1186,-4.102,-4.097,-4.094,-4.0815,-4.0819,-4.084,-4.0881,-4.0918,-4.0944,-4.0987,-4.102,-4.1042,-4.0995,-4.0894,-4.0785,-4.0715,-4.064,-4.0419,-4.0353,-4.0372,-4.0402,-4.02,-3.9915,-4.6104,-4.5528,-4.5509,-4.4468,-4.2793,-4.2735,-4.2044,-4.1099,-4.2871,0.0,0.0,-4.2524,-4.2937,-4.3391,-4.1125,-4.0444,-4.0903,-3.8386,-3.8685,-4.1303,-4.136,-4.2893,-4.5635,-4.5695,-4.5715,-4.5773,-4.5798,-4.5464,-4.4826,-4.4559,-4.3986,-4.3087,-4.2009,-4.1328,-4.1017,-4.0088,-3.899,-3.7802,-3.8302,-3.8574,-3.8471,-3.8652,-3.8059,-3.6601,-3.6871,-3.6291,-3.4791,-3.4776,-3.4134,-3.2766,-3.3229,-3.3211,-3.2595,-3.3012,-3.3039,-3.2494,-3.2301,-3.2255,-3.2318,-3.235,-3.2738,-3.363,-3.5275,-3.5668,-3.439,-3.5608,-3.6773,-3.7569,-3.8313,-3.8742,-3.8821,-3.9485,-3.992,-3.9902,-4.0499,-4.0888,-4.0907,-4.1058,-4.1442,-4.2049,-4.2296,-4.2752,-4.36,-4.4334,-4.4987,-4.5109,-4.5195,-4.5124,-4.4849,-4.3614,-4.2419,-4.1851,-4.1707,-4.1459,-4.1375,-4.1332,-4.1145,-4.1366,-4.1211,-4.1087,-4.1169,-4.1114,-4.1058,-4.1092,-4.1048,-4.0949,-4.0844,-4.08,-4.0713,-4.0434,-4.0397,-4.0372,-4.037,-4.0523,-4.0449,-4.6438,-4.6327,-4.6327,-4.6155,-4.5869,-4.5871,-4.5738,-4.5388,-4.3264,-4.1933,-4.146,-4.346,-4.4423,-4.4594,-4.433,-4.4235,-4.4144,-4.3879,-4.4094,-4.4624,-4.4624,-4.4968,-4.5603,-4.5673,-4.5714,-4.5715,-4.5781,-4.5752,-4.5631,-4.5401,-4.4867,-4.4056,-4.3479,-4.242,-4.0898,-4.0015,-3.9501,-3.9274,-3.8885,-3.8669,-3.8651,-3.8375,-3.7765,-3.6836,-3.7001,-3.6637,-3.5672,-3.5663,-3.5523,-3.5256,-3.4664,-3.4285,-3.4165,-3.3612,-3.349,-3.4034,-3.3444,-3.3293,-3.3916,-3.4018,-3.473,-3.6294,-3.7383,-3.7868,-3.7723,-3.7979,-3.8471,-3.9252,-3.9485,-3.9857,-4.0382,-4.0626,-4.0718,-4.0657,-4.0771,-4.0907,-4.0966,-4.1587,-4.2101,-4.2315,-4.2826,-4.3582,-4.4459,-4.4777,-4.5185,-4.5809,-4.5937,-4.5836,-4.5109,-4.4168,-4.354,-4.3363,-4.3269,-4.3212,-4.296,-4.3043,-4.2831,-4.2957,-4.2363,-4.1993,-4.2031,-4.1621,-4.1306,-4.1172,-4.1183,-4.1025,-4.0898,-4.0805,-4.0687,-4.0485,-4.0438,-4.0422,-4.0468,-4.0595,-4.0666,-4.7553,-4.7163,-4.7163,-4.6903,-4.6513,-4.6513,-4.6513,-4.6399,-4.5034,-4.4369,-4.4352,-4.5322,-4.5623,-4.5286,-4.4158,-4.3369,-4.2857,-4.1772,-4.2036,-4.3366,-4.3413,-4.4198,-4.5537,-4.5657,-4.569,-4.5714,-4.5777,-4.5815,-4.5783,-4.5605,-4.5323,-4.4957,-4.4149,-4.3012,-4.1681,-4.113,-4.0703,-4.0265,-3.9545,-3.9206,-3.9261,-3.9594,-3.9375,-3.8589,-3.9245,-3.9021,-3.7767,-3.7771,-3.7378,-3.6492,-3.6511,-3.6349,-3.5884,-3.592,-3.614,-3.6527,-3.6202,-3.612,-3.644,-3.6541,-3.712,-3.8365,-3.8867,-3.9344,-3.9821,-3.9453,-3.9343,-3.9688,-4.0131,-4.0575,-4.0874,-4.0946,-4.0927,-4.0858,-4.1277,-4.1587,-4.1704,-4.2374,-4.3082,-4.3529,-4.389,-4.4466,-4.5406,-4.5494,-4.5623,-4.6138,-4.6249,-4.613,-4.5736,-4.5365,-4.472,-4.3897,-4.363,-4.3589,-4.3579,-4.3475,-4.3389,-4.3344,-4.3077,-4.2874,-4.289,-4.2587,-4.2479,-4.242,-4.2074,-4.1705,-4.1567,-4.1146,-4.0856,-4.0675,-4.0621,-4.0614,-4.0581,-4.0668,-4.078,-4.8556,-4.798,-4.7961,-4.7608,-4.7051,-4.7033,-4.7051,-4.7033,-4.7132,-4.7317,-4.7446,-4.6971,-4.6561,-4.6177,-4.4393,-4.3274,-4.2525,-4.0747,-4.0984,-4.2727,-4.2689,-4.3675,-4.5441,-4.5648,-4.5693,-4.5709,-4.5773,-4.5792,-4.5792,-4.5629,-4.5588,-4.5511,-4.4411,-4.3399,-4.2576,-4.2196,-4.1685,-4.1079,-4.0265,-3.9896,-3.9982,-4.0764,-4.087,-4.0382,-4.1166,-4.1027,-3.9687,-3.9683,-3.9157,-3.7972,-3.832,-3.8253,-3.7632,-3.8001,-3.829,-3.8296,-3.8302,-3.8302,-3.8316,-3.8563,-3.8984,-3.9645,-4.0123,-4.065,-4.1218,-4.0764,-4.024,-4.012,-4.0601,-4.0961,-4.0971,-4.0945,-4.0912,-4.0966,-4.1684,-4.2136,-4.2272,-4.3136,-4.4005,-4.4665,-4.4893,-4.5279,-4.5893,-4.6118,-4.6145,-4.62,-4.6269,-4.6288,-4.6305,-4.6307,-4.5662,-4.4781,-4.4227,-4.4293,-4.4204,-4.4189,-4.4137,-4.4029,-4.386,-4.3808,-4.3775,-4.3737,-4.359,-4.3431,-4.3024,-4.2615,-4.2438,-4.182,-4.1295,-4.1129,-4.097,-4.0751,-4.0681,-4.0757,-4.0874,-4.8834,-4.8797,-4.876,-4.8779,-4.863,-4.863,-4.8612,-4.8646,-4.8982,-4.9288,-4.9267,-4.7726,-4.7282,-4.7635,-4.7221,-4.6915,-4.6748,-4.5948,-4.5649,-4.5868,-4.5332,-4.5208,-4.5566,-4.5594,-4.564,-4.5693,-4.569,-4.5738,-4.58,-4.5792,-4.5695,-4.5398,-4.436,-4.3703,-4.3333,-4.2498,-4.1986,-4.1892,-4.1079,-4.0685,-4.071,-4.0979,-4.1067,-4.1021,-4.1282,-4.1109,-4.0373,-4.0396,-4.0419,-4.039,-3.9745,-3.9358,-3.9209,-3.8636,-3.8235,-3.8258,-3.831,-3.8312,-3.8456,-3.9123,-3.9625,-3.98,-4.1128,-4.1996,-4.2132,-4.2058,-4.1712,-4.114,-4.0983,-4.0968,-4.0926,-4.0989,-4.1027,-4.1087,-4.182,-4.2214,-4.25,-4.3626,-4.4619,-4.4697,-4.54,-4.5933,-4.607,-4.6158,-4.6212,-4.6269,-4.6289,-4.6289,-4.6289,-4.6289,-4.6269,-4.6016,-4.5996,-4.5914,-4.582,-4.5925,-4.5677,-4.5657,-4.5196,-4.4835,-4.4649,-4.4248,-4.3721,-4.4093,-4.3647,-4.3458,-4.3233,-4.2714,-4.2068,-4.1859,-4.1443,-4.0837,-4.0809,-4.0872,-4.0993,-4.889,-4.889,-4.889,-4.889,-4.889,-4.889,-4.889,-4.8925,-4.9239,-4.9558,-4.9728,-4.9137,-4.8779,-4.8594,-4.8483,-4.8193,-4.7753,-4.6997,-4.6704,-4.6686,-4.5889,-4.5532,-4.5586,-4.5594,-4.5603,-4.564,-4.5665,-4.5717,-4.573,-4.575,-4.5698,-4.5566,-4.4897,-4.4528,-4.4386,-4.3792,-4.3262,-4.2769,-4.2449,-4.2036,-4.1542,-4.1154,-4.0755,-4.0401,-4.0905,-4.0988,-4.0454,-4.0449,-4.0583,-4.0765,-4.0448,-4.0274,-4.0274,-3.992,-3.9733,-3.9745,-3.9752,-3.9814,-3.9869,-4.0265,-4.0462,-4.0481,-4.11,-4.1735,-4.2221,-4.1832,-4.1731,-4.2283,-4.1591,-4.098,-4.1032,-4.1416,-4.1698,-4.1845,-4.2889,-4.3704,-4.3763,-4.4743,-4.5456,-4.55,-4.5818,-4.608,-4.6153,-4.6228,-4.6266,-4.6289,-4.6289,-4.6289,-4.6289,-4.6289,-4.6289,-4.6289,-4.6289,-4.6289,-4.6265,-4.6213,-4.6195,-4.6116,-4.5911,-4.5677,-4.556,-4.5521,-4.5245,-4.5102,-4.4663,-4.4356,-4.4268,-4.3593,-4.2951,-4.2701,-4.2193,-4.1514,-4.1027,-4.0957,-4.1016,-4.8995,-4.889,-4.889,-4.889,-4.889,-4.889,-4.889,-4.8959,-4.9349,-4.9627,-4.9811,-5.0178,-5.0063,-4.9569,-4.9496,-4.9163,-4.8602,-4.7924,-4.7586,-4.749,-4.6682,-4.6297,-4.6278,-4.6278,-4.6163,-4.5998,-4.6025,-4.5915,-4.574,-4.5682,-4.5682,-4.564,-4.533,-4.514,-4.5061,-4.4745,-4.4288,-4.367,-4.3444,-4.298,-4.2329,-4.1587,-4.0816,-4.0152,-4.0695,-4.0824,-4.0299,-4.0375,-4.0546,-4.0765,-4.0797,-4.0797,-4.0797,-4.0797,-4.0797,-4.0809,-4.0806,-4.0832,-4.0883,-4.0942,-4.0969,-4.0978,-4.1166,-4.1598,-4.2049,-4.1905,-4.2222,-4.3122,-4.2374,-4.1694,-4.1746,-4.2194,-4.2515,-4.2656,-4.3938,-4.4792,-4.4792,-4.5516,-4.5963,-4.6007,-4.6035,-4.6148,-4.621,-4.6269,-4.6289,-4.6289,-4.6289,-4.6289,-4.6289,-4.6289,-4.6289,-4.6289,-4.6289,-4.6289,-4.6289,-4.6266,-4.6234,-4.6227,-4.6163,-4.6152,-4.6233,-4.6257,-4.6261,-4.5653,-4.5431,-4.5253,-4.5064,-4.4481,-4.368,-4.3452,-4.2976,-4.2392,-4.2002,-4.1626,-4.1411,-4.9193,-4.8907,-4.889,-4.889,-4.889,-4.889,-4.889,-4.8942,-4.9521,-4.979,-4.9884,-5.0418,-5.0654,-5.0558,-5.05,-5.0577,-5.0404,-4.9548,-4.9144,-4.9048,-4.8279,-4.7952,-4.799,-4.7971,-4.7567,-4.6874,-4.6836,-4.6478,-4.5789,-4.5701,-4.5682,-4.5665,-4.5419,-4.5229,-4.5084,-4.487,-4.4667,-4.4322,-4.3707,-4.3248,-4.3043,-4.2353,-4.1567,-4.0866,-4.0785,-4.0655,-4.0253,-4.0195,-4.0408,-4.0803,-4.0816,-4.0797,-4.0816,-4.0797,-4.0803,-4.0808,-4.08,-4.0823,-4.0892,-4.0907,-4.0903,-4.098,-4.1553,-4.2141,-4.2335,-4.2699,-4.3169,-4.3469,-4.3388,-4.3239,-4.3359,-4.3329,-4.3382,-4.3481,-4.4268,-4.4812,-4.4851,-4.5574,-4.5944,-4.6003,-4.6096,-4.6199,-4.6286,-4.6289,-4.6289,-4.6289,-4.6289,-4.6289,-4.6289,-4.6289,-4.6289,-4.6289,-4.6289,-4.6289,-4.6289,-4.6289,-4.6289,-4.6286,-4.6279,-4.6296,-4.6295,-4.6279,-4.625,-4.6223,-4.6036,-4.5877,-4.5797,-4.5297,-4.4462,-4.4015,-4.3734,-4.3267,-4.2862,-4.2544,-4.2218,-4.901,-4.889,-4.889,-4.889,-4.889,-4.889,-4.889,-4.894,-4.9531,-4.9803,-4.991,-5.044,-5.0683,-5.0683,-5.0683,-5.0683,-5.0616,-4.9779,-4.9413,-4.9298,-4.8509,-4.8096,-4.8096,-4.8096,-4.799,-4.7721,-4.7663,-4.7249,-4.6478,-4.5973,-4.5682,-4.5657,-4.5466,-4.5272,-4.5102,-4.49,-4.4712,-4.4491,-4.4182,-4.3806,-4.331,-4.298,-4.2449,-4.1605,-4.1148,-4.0685,-4.0215,-4.0286,-4.0712,-4.1519,-4.1087,-4.1048,-4.1448,-4.1087,-4.0797,-4.0809,-4.0808,-4.0806,-4.0829,-4.0826,-4.0853,-4.0917,-4.117,-4.1927,-4.2664,-4.2834,-4.3244,-4.4463,-4.4433,-4.44,-4.4804,-4.4569,-4.4245,-4.4372,-4.5034,-4.553,-4.5589,-4.5827,-4.5982,-4.6008,-4.6107,-4.6208,-4.6239,-4.6288,-4.6289,-4.6289,-4.6289,-4.6289,-4.6289,-4.6289,-4.6289,-4.6289,-4.6289,-4.6289,-4.6289,-4.6289,-4.6289,-4.6289,-4.6305,-4.63,-4.6295,-4.6263,-4.623,-4.6223,-4.621,-4.6138,-4.5935,-4.5813,-4.505,-4.4623,-4.4341,-4.4132,-4.3668,-4.3237,-4.2735,-4.889,-4.889,-4.889,-4.889,-4.889,-4.889,-4.889,-4.8976,-4.9535,-4.9803,-4.9923,-5.0421,-5.0683,-5.0683,-5.0683,-5.0683,-5.0635,-5.0096,-4.9817,-4.9779,-4.9221,-4.8933,-4.8933,-4.8933,-4.8779,-4.8509,-4.8221,-4.7702,-4.6932,-4.6352,-4.5965,-4.5667,-4.5522,-4.5351,-4.5113,-4.4948,-4.4757,-4.4551,-4.4482,-4.4219,-4.3717,-4.3675,-4.3316,-4.2567,-4.2103,-4.1472,-4.0645,-4.0999,-4.142,-4.1847,-4.1474,-4.1313,-4.1525,-4.1074,-4.0784,-4.0797,-4.0809,-4.0808,-4.0839,-4.1069,-4.1247,-4.1313,-4.1585,-4.2244,-4.3272,-4.3131,-4.3895,-4.4956,-4.5299,-4.5273,-4.5583,-4.5382,-4.5089,-4.5146,-4.5639,-4.5986,-4.5986,-4.5977,-4.6017,-4.6036,-4.6118,-4.6182,-4.6212,-4.6247,-4.6289,-4.6289,-4.6289,-4.6289,-4.6289,-4.6289,-4.6289,-4.6289,-4.6289,-4.6289,-4.6289,-4.6289,-4.6289,-4.6289,-4.6303,-4.6299,-4.6297,-4.6265,-4.623,-4.6205,-4.6184,-4.6131,-4.6082,-4.6044,-4.5735,-4.5289,-4.522,-4.5092,-4.4506,-4.3861,-4.3506,-4.889,-4.889,-4.889,-4.889,-4.889,-4.889,-4.889,-4.8991,-4.955,-4.9803,-4.9884,-5.044,-5.0683,-5.0683,-5.0683,-5.0683,-5.0673,-5.0587,-5.0558,-5.0558,-5.051,-5.05,-5.0471,-5.0414,-5.0048,-4.9394,-4.8548,-4.7778,-4.7135,-4.698,-4.6527,-4.5796,-4.572,-4.5506,-4.5114,-4.5049,-4.4889,-4.4578,-4.4482,-4.4449,-4.4393,-4.4388,-4.4129,-4.3585,-4.3631,-4.302,-4.159,-4.2375,-4.2622,-4.2221,-4.2067,-4.1622,-4.121,-4.0984,-4.0829,-4.0894,-4.0868,-4.0842,-4.0943,-4.1588,-4.1968,-4.2172,-4.2817,-4.3224,-4.3548,-4.4053,-4.4524,-4.488,-4.5363,-4.5794,-4.5782,-4.5764,-4.5777,-4.5866,-4.5941,-4.5978,-4.5983,-4.5986,-4.6027,-4.6087,-4.6148,-4.6199,-4.621,-4.6245,-4.6308,-4.6445,-4.6465,-4.6484,-4.6562,-4.6641,-4.6465,-4.6308,-4.6445,-4.6601,-4.6445,-4.6289,-4.6289,-4.6306,-4.6301,-4.6294,-4.6295,-4.6281,-4.6229,-4.6209,-4.6202,-4.616,-4.6123,-4.6083,-4.6092,-4.5803,-4.5901,-4.5873,-4.5375,-4.4822,-4.4596,-4.889,-4.889,-4.889,-4.889,-4.889,-4.889,-4.889,-4.8957,-4.955,-4.9803,-4.991,-5.044,-5.0683,-5.0683,-5.0683,-5.0683,-5.0683,-5.0683,-5.0683,-5.0683,-5.0683,-5.0683,-5.0683,-5.0683,-5.0558,-5.0183,-4.9413,-4.8875,-4.8538,-4.8037,-4.7379,-4.6675,-4.6415,-4.5927,-4.5213,-4.4984,-4.4764,-4.4524,-4.4482,-4.4487,-4.4501,-4.4616,-4.4588,-4.4471,-4.4743,-4.4421,-4.3422,-4.3208,-4.3371,-4.3704,-4.3162,-4.2709,-4.2476,-4.2442,-4.2145,-4.1638,-4.1589,-4.1628,-4.1661,-4.1893,-4.2363,-4.282,-4.3214,-4.364,-4.4143,-4.4441,-4.4873,-4.5305,-4.5671,-4.5807,-4.5807,-4.5814,-4.5841,-4.5893,-4.5905,-4.5955,-4.5991,-4.598,-4.6016,-4.6032,-4.6093,-4.6118,-4.6167,-4.6222,-4.6614,-4.709,-4.7187,-4.7187,-4.7266,-4.7617,-4.7441,-4.6641,-4.6836,-4.7011,-4.6874,-4.6695,-4.6556,-4.6477,-4.6412,-4.6311,-4.6293,-4.6277,-4.6226,-4.621,-4.621,-4.6204,-4.6155,-4.6156,-4.6145,-4.6141,-4.6068,-4.6041,-4.6049,-4.5761,-4.532,-4.889,-4.889,-4.889,-4.889,-4.889,-4.889,-4.889,-4.8974,-4.955,-4.9803,-4.9923,-5.044,-5.0683,-5.0683,-5.0683,-5.0683,-5.0683,-5.0682,-5.0673,-5.0653,-5.0653,-5.0663,-5.0683,-5.0683,-5.0683,-5.0616,-5.0144,-4.9702,-4.9375,-4.8884,-4.8191,-4.7395,-4.6877,-4.6294,-4.5506,-4.504,-4.4712,-4.4537,-4.4573,-4.4608,-4.4655,-4.4819,-4.4969,-4.508,-4.5362,-4.5246,-4.4773,-4.4303,-4.4183,-4.4311,-4.3742,-4.3319,-4.311,-4.3006,-4.281,-4.2541,-4.2435,-4.2449,-4.2495,-4.2793,-4.3137,-4.3679,-4.4028,-4.4421,-4.4925,-4.5041,-4.5318,-4.5691,-4.5807,-4.5807,-4.5807,-4.5807,-4.5814,-4.5873,-4.5874,-4.5905,-4.5955,-4.5958,-4.5958,-4.6022,-4.6289,-4.6482,-4.6571,-4.6994,-4.73,-4.7904,-4.8047,-4.8066,-4.8183,-4.8516,-4.7969,-4.7617,-4.7832,-4.7772,-4.7418,-4.7141,-4.6861,-4.6703,-4.6562,-4.6404,-4.6287,-4.6272,-4.6241,-4.6261,-4.6267,-4.623,-4.619,-4.6205,-4.621,-4.6204,-4.6186,-4.6151,-4.6105,-4.5935,-4.5588,-4.8909,-4.8926,-4.889,-4.8926,-4.8942,-4.8907,-4.889,-4.8974,-4.9506,-4.9762,-4.991,-5.0347,-5.0653,-5.0673,-5.0663,-5.0663,-5.0663,-5.0623,-5.0593,-5.0593,-5.0573,-5.0613,-5.0663,-5.0683,-5.0683,-5.0673,-5.0635,-5.025,-4.9644,-4.9519,-4.8942,-4.8008,-4.7294,-4.6549,-4.6101,-4.5319,-4.4849,-4.4775,-4.4776,-4.4795,-4.4825,-4.5074,-4.5284,-4.5454,-4.5507,-4.556,-4.5595,-4.5362,-4.4972,-4.436,-4.4028,-4.3652,-4.3158,-4.29,-4.3156,-4.3211,-4.3231,-4.3254,-4.3416,-4.3812,-4.4344,-4.459,-4.516,-4.5807,-4.5671,-4.5652,-4.5671,-4.5787,-4.5807,-4.5807,-4.5807,-4.5807,-4.5845,-4.5904,-4.5944,-4.5919,-4.5899,-4.5969,-4.6125,-4.6253,-4.6771,-4.7368,-4.7403,-4.8045,-4.846,-4.8779,-4.8878,-4.8945,-4.9023,-4.916,-4.9023,-4.8867,-4.8691,-4.8535,-4.8183,-4.785,-4.7539,-4.7064,-4.6864,-4.6644,-4.6365,-4.6288,-4.627,-4.629,-4.6293,-4.6261,-4.6247,-4.625,-4.6247,-4.6231,-4.6232,-4.6211,-4.6134,-4.5982,-4.5907,-4.9044,-4.9241,-4.8993,-4.9044,-4.9209,-4.9029,-4.889,-4.8942,-4.9315,-4.9583,-4.9776,-5.0106,-5.0388,-5.0542,-5.0553,-5.0553,-5.0553,-5.0532,-5.0521,-5.0521,-5.0468,-5.0521,-5.0623,-5.0673,-5.0683,-5.0683,-5.0683,-5.0577,-5.0385,-5.0279,-4.9865,-4.9067,-4.8406,-4.78,-4.7141,-4.6048,-4.559,-4.5545,-4.5054,-4.4946,-4.5126,-4.5314,-4.5455,-4.549,-4.5642,-4.573,-4.5771,-4.5454,-4.5197,-4.4916,-4.4742,-4.4577,-4.4287,-4.4304,-4.4159,-4.3829,-4.391,-4.3995,-4.4078,-4.428,-4.4739,-4.5375,-4.5621,-4.581,-4.58,-4.5807,-4.5807,-4.5807,-4.5807,-4.5807,-4.5807,-4.5838,-4.6071,-4.6561,-4.6343,-4.6022,-4.6106,-4.6474,-4.6868,-4.6965,-4.7605,-4.805,-4.825,-4.8536,-4.8994,-4.9494,-4.9714,-4.9795,-4.9856,-5.0156,-5.0215,-4.9453,-4.9159,-4.9138,-4.8959,-4.8617,-4.8173,-4.7558,-4.7244,-4.6986,-4.6626,-4.6284,-4.6284,-4.6303,-4.6305,-4.6274,-4.6278,-4.6284,-4.6289,-4.6265,-4.6254,-4.6216,-4.6214,-4.6117,-4.6112,-4.9094,-4.9365,-4.9193,-4.9206,-4.9349,-4.9174,-4.9027,-4.8976,-4.9257,-4.9457,-4.9627,-4.9943,-5.019,-5.0333,-5.0448,-5.05,-5.05,-5.0478,-5.0468,-5.0457,-5.0424,-5.0468,-5.0562,-5.0623,-5.0663,-5.0683,-5.0683,-5.0683,-5.0673,-5.0683,-5.0345,-4.9701,-4.911,-4.8479,-4.7812,-4.697,-4.6501,-4.6512,-4.5978,-4.5719,-4.587,-4.5689,-4.5618,-4.5642,-4.5737,-4.5745,-4.5533,-4.5204,-4.4954,-4.4787,-4.4714,-4.4669,-4.4606,-4.4812,-4.4745,-4.4388,-4.4653,-4.4801,-4.4818,-4.4886,-4.5182,-4.5619,-4.5785,-4.5815,-4.5798,-4.5812,-4.5807,-4.5807,-4.5807,-4.5807,-4.5851,-4.6012,-4.6584,-4.7224,-4.7044,-4.6839,-4.6924,-4.7435,-4.7674,-4.7886,-4.8389,-4.8965,-4.9013,-4.9345,-4.9848,-5.0306,-5.0533,-5.0579,-5.067,-5.1102,-5.1189,-5.0386,-4.9994,-5.0031,-4.987,-4.9526,-4.9151,-4.8509,-4.7851,-4.7556,-4.696,-4.6495,-4.6319,-4.6319,-4.6321,-4.6303,-4.6288,-4.6294,-4.6302,-4.6269,-4.6246,-4.6233,-4.6216,-4.6211,-4.6209,-4.9094,-4.9399,-4.9349,-4.9384,-4.9399,-4.9349,-4.9125,-4.8993,-4.9174,-4.9352,-4.9488,-4.983,-4.9974,-5.0075,-5.0275,-5.0427,-5.0435,-5.0382,-5.0401,-5.039,-5.039,-5.0404,-5.0489,-5.0582,-5.0643,-5.0683,-5.0683,-5.0683,-5.0683,-5.0683,-5.0521,-5.0077,-4.9356,-4.8838,-4.845,-4.7835,-4.7561,-4.7478,-4.7072,-4.6858,-4.6786,-4.6399,-4.6081,-4.6042,-4.5761,-4.5533,-4.5225,-4.4938,-4.4657,-4.4205,-4.4221,-4.4192,-4.4132,-4.4428,-4.4732,-4.4973,-4.5167,-4.538,-4.5465,-4.546,-4.5635,-4.5717,-4.5762,-4.58,-4.5815,-4.5817,-4.587,-4.6097,-4.5962,-4.6136,-4.6358,-4.6632,-4.7239,-4.7942,-4.8096,-4.8209,-4.8516,-4.8577,-4.8546,-4.8604,-4.932,-4.9726,-5.0042,-5.0487,-5.1036,-5.0717,-5.0925,-5.0959,-5.1013,-5.1203,-5.1333,-5.1179,-5.1002,-5.1061,-5.0796,-5.0451,-5.0044,-4.9549,-4.8789,-4.8219,-4.7445,-4.6944,-4.6554,-4.6358,-4.6319,-4.6302,-4.6302,-4.629,-4.6295,-4.6301,-4.6269,-4.6247,-4.6233,-4.6212,-4.6209,-4.9094,-4.9384,-4.9127,-4.916,-4.9318,-4.9127,-4.8978,-4.8926,-4.8976,-4.9144,-4.9321,-4.9457,-4.9588,-4.974,-4.9987,-5.0101,-5.0151,-5.0236,-5.0314,-5.0314,-5.0314,-5.0348,-5.0435,-5.0521,-5.0623,-5.0673,-5.0683,-5.0683,-5.0683,-5.0634,-5.0634,-5.0434,-4.9941,-4.9752,-4.9478,-4.8689,-4.8377,-4.8424,-4.8025,-4.7834,-4.7791,-4.7225,-4.6786,-4.6675,-4.6028,-4.5381,-4.4988,-4.4843,-4.4414,-4.3878,-4.3788,-4.3871,-4.3849,-4.4117,-4.446,-4.4833,-4.5194,-4.5419,-4.5429,-4.5504,-4.5605,-4.5682,-4.5722,-4.5758,-4.58,-4.5861,-4.6165,-4.6586,-4.6832,-4.7088,-4.7619,-4.7713,-4.8135,-4.8673,-4.883,-4.9069,-4.9769,-4.9677,-4.9432,-4.9583,-5.0074,-5.0635,-5.0635,-5.0734,-5.1043,-5.1089,-5.1153,-5.12,-5.1245,-5.1311,-5.1351,-5.138,-5.1141,-5.1058,-5.1086,-5.0798,-5.0522,-5.0293,-4.9721,-4.9078,-4.8283,-4.7686,-4.7412,-4.6885,-4.6302,-4.6321,-4.6378,-4.6302,-4.6288,-4.6295,-4.6301,-4.6289,-4.6267,-4.6234,-4.6177,-4.9113,-4.9384,-4.9209,-4.9241,-4.9368,-4.9209,-4.9044,-4.8907,-4.889,-4.8959,-4.911,-4.9225,-4.9368,-4.9503,-4.9805,-4.9986,-5.0038,-5.0188,-5.0302,-5.0302,-5.0302,-5.0337,-5.0401,-5.0468,-5.0562,-5.0633,-5.0643,-5.0594,-5.0493,-5.0453,-5.0313,-5.0149,-4.994,-4.9679,-4.9745,-4.9327,-4.929,-4.9291,-4.8969,-4.8763,-4.8767,-4.8102,-4.7345,-4.6984,-4.629,-4.5651,-4.4887,-4.4519,-4.4061,-4.3625,-4.3526,-4.3545,-4.3562,-4.3831,-4.426,-4.4706,-4.503,-4.531,-4.5381,-4.5475,-4.5584,-4.5692,-4.5731,-4.5761,-4.5952,-4.6148,-4.6593,-4.7062,-4.7472,-4.7979,-4.8698,-4.8587,-4.8841,-4.9282,-4.9406,-4.9623,-5.0042,-5.0134,-5.0168,-5.0275,-5.0608,-5.0801,-5.0914,-5.0963,-5.1005,-5.1042,-5.1095,-5.115,-5.1176,-5.1226,-5.1305,-5.1262,-5.0979,-5.089,-5.1109,-5.1034,-5.0848,-5.072,-5.0591,-5.0019,-4.9394,-4.888,-4.8426,-4.7627,-4.6768,-4.6534,-4.6554,-4.6436,-4.6302,-4.6306,-4.6294,-4.6301,-4.6288,-4.6245,-4.6173,-4.9061,-4.9321,-4.9337,-4.9337,-4.9337,-4.9305,-4.9144,-4.8926,-4.889,-4.889,-4.8925,-4.9144,-4.9209,-4.9337,-4.9722,-4.9946,-5.0076,-5.0207,-5.0302,-5.0302,-5.0302,-5.0325,-5.0379,-5.0412,-5.0478,-5.0582,-5.0603,-5.0492,-5.0388,-5.026,-5.0183,-4.9735,-4.9612,-4.9573,-4.9454,-4.9707,-4.9873,-4.9796,-4.9719,-4.9667,-4.9611,-4.8932,-4.8062,-4.7155,-4.6766,-4.6218,-4.5464,-4.4965,-4.4419,-4.3858,-4.3681,-4.3539,-4.3573,-4.3742,-4.4188,-4.4693,-4.5004,-4.5262,-4.541,-4.5522,-4.5618,-4.5696,-4.5962,-4.6021,-4.6227,-4.686,-4.7414,-4.7835,-4.8319,-4.9013,-4.9404,-4.929,-4.9337,-4.9591,-4.9725,-4.9749,-4.9838,-5.021,-5.0491,-5.072,-5.0778,-5.0879,-5.0906,-5.0948,-5.0971,-5.0993,-5.1056,-5.1088,-5.1122,-5.1181,-5.1271,-5.1093,-5.0792,-5.0474,-5.0622,-5.1176,-5.1003,-5.1007,-5.1055,-5.0762,-5.0334,-5.009,-4.946,-4.8094,-4.7332,-4.7061,-4.6671,-4.638,-4.6302,-4.6302,-4.6305,-4.6294,-4.6266,-4.625,-4.6147,-4.8943,-4.8976,-4.8976,-4.8976,-4.8995,-4.8976,-4.8959,-4.889,-4.889,-4.889,-4.889,-4.896,-4.8976,-4.9092,-4.9469,-4.9874,-5.0182,-5.0278,-5.0302,-5.0302,-5.0302,-5.0314,-5.0337,-5.0356,-5.0416,-5.0511,-5.0542,-5.0542,-5.0554,-5.0575,-5.0237,-5.0062,-4.983,-4.9608,-4.951,-4.9749,-4.9923,-4.9981,-5.0176,-5.0383,-5.0226,-4.9704,-4.8776,-4.7716,-4.7357,-4.6954,-4.6675,-4.6475,-4.6287,-4.5821,-4.521,-4.4831,-4.4663,-4.446,-4.4542,-4.472,-4.5094,-4.5332,-4.5448,-4.5561,-4.561,-4.5847,-4.6452,-4.6879,-4.7105,-4.768,-4.8396,-4.9123,-4.9729,-5.0372,-5.0375,-4.9964,-4.9721,-4.9622,-4.9529,-4.9518,-4.9589,-4.9936,-5.0372,-5.0606,-5.0763,-5.0898,-5.0906,-5.0933,-5.0948,-5.0998,-5.1041,-5.1063,-5.1082,-5.1162,-5.1271,-5.0959,-5.0575,-5.0275,-5.0057,-5.0802,-5.1137,-5.1169,-5.1216,-5.125,-5.1006,-5.1148,-5.0438,-4.8933,-4.7918,-4.7471,-4.7042,-4.6554,-4.6339,-4.6358,-4.6341,-4.6303,-4.628,-4.625,-4.6134,-4.889,-4.889,-4.889,-4.889,-4.889,-4.889,-4.889,-4.889,-4.889,-4.889,-4.889,-4.889,-4.889,-4.9008,-4.9408,-4.9855,-5.02,-5.0302,-5.0302,-5.0302,-5.0302,-5.0325,-5.0302,-5.0255,-5.0379,-5.0438,-5.0429,-5.0388,-5.0421,-5.0268,-5.013,-4.9776,-4.9521,-4.9312,-4.9327,-4.9622,-4.9817,-4.9955,-5.0369,-5.0683,-5.0682,-5.02,-4.9431,-4.8582,-4.8042,-4.7648,-4.7041,-4.676,-4.6579,-4.6273,-4.5929,-4.5795,-4.5764,-4.5762,-4.5519,-4.5066,-4.5203,-4.5419,-4.562,-4.5877,-4.6345,-4.6577,-4.7308,-4.7804,-4.8099,-4.8668,-4.9433,-5.009,-5.034,-5.0653,-5.0366,-5.0152,-4.9752,-4.937,-4.9371,-4.9387,-4.9374,-4.9716,-5.0099,-5.0425,-5.069,-5.0858,-5.0898,-5.0925,-5.0933,-5.0956,-5.1012,-5.1041,-5.1049,-5.1125,-5.1226,-5.1067,-5.0739,-5.0635,-5.0386,-5.0763,-5.1219,-5.1263,-5.1315,-5.1347,-5.136,-5.1364,-5.0731,-4.9577,-4.8779,-4.8349,-4.7549,-4.712,-4.6788,-4.6436,-4.6358,-4.6303,-4.6274,-4.6229,-4.6118,-4.889,-4.889,-4.889,-4.889,-4.889,-4.889,-4.889,-4.889,-4.889,-4.889,-4.889,-4.889,-4.8925,-4.9092,-4.9469,-4.9908,-5.029,-5.0302,-5.0302,-5.0302,-5.029,-5.0333,-5.0243,-5.0163,-5.0151,-5.024,-5.0272,-5.0183,-5.0336,-5.0221,-4.9849,-4.9598,-4.922,-4.8976,-4.9075,-4.945,-4.9665,-4.9936,-5.0233,-5.0506,-5.0517,-5.0427,-5.0038,-4.9186,-4.8876,-4.8372,-4.7781,-4.7501,-4.7303,-4.7146,-4.6924,-4.677,-4.6975,-4.724,-4.6802,-4.5805,-4.5693,-4.5859,-4.6196,-4.6655,-4.7216,-4.7462,-4.8266,-4.8706,-4.9061,-4.9554,-5.0255,-5.0739,-5.0729,-5.0498,-5.0264,-4.9987,-4.9531,-4.9171,-4.9244,-4.9421,-4.9286,-4.9472,-4.9968,-5.0331,-5.0653,-5.0814,-5.0882,-5.0898,-5.0925,-5.0941,-5.0971,-5.1012,-5.1035,-5.108,-5.1133,-5.1147,-5.104,-5.1058,-5.0964,-5.0918,-5.1217,-5.1241,-5.131,-5.1386,-5.1381,-5.1382,-5.0697,-5.0207,-5.0243,-4.9735,-4.8718,-4.7664,-4.7256,-4.6866,-4.6515,-4.6323,-4.629,-4.621,-4.6093,-4.889,-4.889,-4.889,-4.889,-4.889,-4.889,-4.889,-4.889,-4.889,-4.889,-4.889,-4.8925,-4.9044,-4.9318,-4.9722,-5.0063,-5.0243,-5.0302,-5.0302,-5.0302,-5.029,-5.0219,-5.0095,-5.0095,-4.9954,-4.9968,-5.0075,-5.0358,-5.0418,-5.0396,-5.0186,-4.9762,-4.951,-4.9358,-4.8959,-4.9318,-4.9554,-4.9744,-4.9897,-5.0012,-5.0111,-5.0137,-4.9943,-4.9698,-4.9424,-4.9228,-4.8942,-4.874,-4.8784,-4.8696,-4.8397,-4.8216,-4.8182,-4.7938,-4.7818,-4.7648,-4.7683,-4.777,-4.7673,-4.7845,-4.8097,-4.8444,-4.9157,-4.9605,-4.9917,-5.0312,-5.079,-5.0847,-5.071,-5.0476,-5.0183,-4.9949,-4.9427,-4.9217,-4.926,-4.9209,-4.9055,-4.9506,-4.9974,-5.0252,-5.0596,-5.0771,-5.0874,-5.089,-5.0898,-5.0914,-5.0937,-5.0971,-5.1,-5.1037,-5.1072,-5.1092,-5.1097,-5.1119,-5.1161,-5.1167,-5.1226,-5.1252,-5.1312,-5.1386,-5.1383,-5.1389,-5.1387,-5.1054,-5.1107,-5.0731,-4.956,-4.8584,-4.7842,-4.7198,-4.6729,-4.6456,-4.6302,-4.6211,-4.6108,-4.889,-4.889,-4.889,-4.889,-4.889,-4.889,-4.889,-4.889,-4.889,-4.889,-4.8943,-4.9079,-4.9318,-4.9683,-4.9952,-5.0101,-5.0267,-5.0302,-5.0302,-5.029,-5.0278,-5.0207,-5.005,-4.9901,-4.974,-4.9735,-4.9781,-4.9844,-5.0113,-5.0174,-4.9993,-4.9817,-4.9446,-4.9141,-4.8978,-4.9222,-4.9408,-4.9598,-4.9749,-4.9897,-4.9923,-4.9922,-4.9898,-4.9792,-4.9589,-4.9521,-4.9509,-4.9509,-4.9493,-4.938,-4.9177,-4.9234,-4.9326,-4.9299,-4.9272,-4.9479,-4.9538,-4.9124,-4.8363,-4.8678,-4.8976,-4.9362,-4.9987,-5.0538,-5.0675,-5.0848,-5.0963,-5.0747,-5.0517,-5.0275,-5.005,-4.9828,-4.9446,-4.9268,-4.9352,-4.927,-4.9233,-4.9632,-5.0025,-5.0264,-5.0498,-5.069,-5.0866,-5.089,-5.0898,-5.0906,-5.0914,-5.0941,-5.0948,-5.094,-5.0997,-5.105,-5.1063,-5.1076,-5.1136,-5.118,-5.1265,-5.1297,-5.1342,-5.1386,-5.1402,-5.1395,-5.1393,-5.1387,-5.1283,-5.0791,-5.0087,-4.9286,-4.8369,-4.7608,-4.6885,-4.6619,-4.6354,-4.623,-4.6078,-4.889,-4.889,-4.889,-4.889,-4.889,-4.889,-4.889,-4.889,-4.889,-4.889,-4.8976,-4.9222,-4.9607,-4.9952,-5.0057,-5.0163,-5.029,-5.0302,-5.0267,-5.0243,-5.0207,-5.0095,-4.9852,-4.9617,-4.9539,-4.9575,-4.9514,-4.9573,-4.967,-4.9707,-4.9754,-4.9762,-4.942,-4.9125,-4.9077,-4.9144,-4.9255,-4.9286,-4.9693,-4.9803,-4.974,-4.9802,-4.9764,-4.9697,-4.9597,-4.9509,-4.9509,-4.9509,-4.9509,-4.9502,-4.9646,-4.976,-4.9917,-5.0073,-5.0212,-5.0394,-5.0451,-5.0084,-4.9514,-4.9528,-4.988,-5.0272,-5.0622,-5.1069,-5.1098,-5.1141,-5.0972,-5.0654,-5.0275,-5.0031,-4.983,-4.965,-4.9396,-4.9315,-4.9411,-4.9396,-4.942,-4.9809,-5.0106,-5.0309,-5.0518,-5.069,-5.0822,-5.0882,-5.0898,-5.0898,-5.0898,-5.0898,-5.0906,-5.0914,-5.0944,-5.1022,-5.1035,-5.1056,-5.1111,-5.1187,-5.1266,-5.1349,-5.1386,-5.1386,-5.1384,-5.1399,-5.1394,-5.139,-5.1364,-5.093,-5.0282,-4.956,-4.8876,-4.8175,-4.7497,-4.6766,-4.6404,-4.6266,-4.611,-4.889,-4.889,-4.889,-4.889,-4.889,-4.889,-4.889,-4.896,-4.8907,-4.8907,-4.9025,-4.9343,-4.9703,-4.9999,-5.0163,-5.0267,-5.0302,-5.0302,-5.0175,-5.0076,-5.0005,-4.9778,-4.9548,-4.9365,-4.9257,-4.9125,-4.9209,-4.9368,-4.9427,-4.9454,-4.9558,-4.9641,-4.9469,-4.9396,-4.9241,-4.9061,-4.9027,-4.9125,-4.9539,-4.9617,-4.9518,-4.9574,-4.9697,-4.9567,-4.9505,-4.9509,-4.9509,-4.9509,-4.949,-4.9505,-4.9774,-4.9986,-5.0133,-5.0363,-5.0554,-5.0673,-5.0739,-5.0524,-5.0377,-5.0364,-5.0712,-5.0975,-5.1146,-5.1245,-5.1191,-5.0912,-5.0711,-5.0558,-5.0171,-4.9825,-4.9637,-4.9465,-4.9365,-4.938,-4.9518,-4.9621,-4.9703,-4.9942,-5.0233,-5.0383,-5.0558,-5.0754,-5.0822,-5.089,-5.0898,-5.0898,-5.0941,-5.0941,-5.0941,-5.0948,-5.0963,-5.1012,-5.102,-5.105,-5.1111,-5.1172,-5.1247,-5.1328,-5.1385,-5.1386,-5.1387,-5.1385,-5.1396,-5.1299,-5.1217,-5.0857,-5.044,-4.9667,-4.9047,-4.8672,-4.8012,-4.6929,-4.6366,-4.6206,-4.6108,-4.889,-4.889,-4.889,-4.889,-4.889,-4.889,-4.901,-4.916,-4.8993,-4.9075,-4.9346,-4.9525,-4.9814,-5.0114,-5.0243,-5.0302,-5.0278,-5.0158,-5.0082,-4.9959,-4.9819,-4.9577,-4.9349,-4.9241,-4.9195,-4.8995,-4.9044,-4.9094,-4.9075,-4.9241,-4.9352,-4.9442,-4.9503,-4.9286,-4.9094,-4.8995,-4.8907,-4.8976,-4.9255,-4.9337,-4.9355,-4.944,-4.9582,-4.9505,-4.9509,-4.9509,-4.9509,-4.9509,-4.9509,-4.9582,-4.9778,-4.9939,-5.012,-5.0393,-5.0565,-5.0693,-5.0766,-5.081,-5.0844,-5.0877,-5.0961,-5.1125,-5.1245,-5.1285,-5.1181,-5.0879,-5.0612,-5.0368,-5.0062,-4.9721,-4.9693,-4.9659,-4.96,-4.9548,-4.9636,-4.9778,-4.9967,-5.0181,-5.0366,-5.0517,-5.0672,-5.083,-5.0882,-5.0898,-5.0898,-5.0898,-5.0941,-5.0963,-5.0963,-5.099,-5.1005,-5.1027,-5.1034,-5.1099,-5.1156,-5.1202,-5.1247,-5.1307,-5.1385,-5.1384,-5.1385,-5.1385,-5.1379,-5.1263,-5.0931,-5.0437,-4.9987,-4.9602,-4.9018,-4.8297,-4.7518,-4.666,-4.6316,-4.615,-4.6107,-4.9027,-4.9029,-4.8925,-4.889,-4.889,-4.8976,-4.9144,-4.9321,-4.919,-4.9331,-4.9703,-4.9674,-4.9868,-5.0188,-5.0302,-5.0224,-5.0182,-5.007,-4.9925,-4.9769,-4.9577,-4.938,-4.9257,-4.9162,-4.9062,-4.8907,-4.889,-4.8907,-4.8942,-4.9094,-4.9241,-4.9368,-4.9442,-4.9331,-4.9113,-4.8943,-4.889,-4.8943,-4.9079,-4.9179,-4.923,-4.9412,-4.9524,-4.9509,-4.9509,-4.9509,-4.9509,-4.9509,-4.9509,-4.9567,-4.9692,-4.9898,-5.0108,-5.0294,-5.0504,-5.0654,-5.0784,-5.0846,-5.0888,-5.0956,-5.1023,-5.1153,-5.1186,-5.1191,-5.1084,-5.0805,-5.044,-5.029,-4.9962,-4.9703,-4.9688,-4.963,-4.963,-4.9562,-4.9847,-5.0006,-5.0137,-5.0333,-5.0495,-5.0664,-5.0773,-5.0833,-5.089,-5.0898,-5.0898,-5.0898,-5.0906,-5.0956,-5.0978,-5.1012,-5.1041,-5.1055,-5.1075,-5.1141,-5.1202,-5.1249,-5.1274,-5.1338,-5.1386,-5.1399,-5.1402,-5.1387,-5.1131,-5.0781,-5.039,-4.9918,-4.9313,-4.8651,-4.8144,-4.7654,-4.6947,-4.6313,-4.6267,-4.6141,-4.6146,-4.9337,-4.9257,-4.9029,-4.889,-4.8926,-4.9176,-4.9289,-4.9365,-4.9484,-4.9674,-4.986,-4.9703,-4.9855,-5.0188,-5.0255,-5.0163,-5.0038,-4.9959,-4.9769,-4.9461,-4.9318,-4.9144,-4.9027,-4.8942,-4.8978,-4.8907,-4.889,-4.889,-4.889,-4.8942,-4.9092,-4.9302,-4.9439,-4.9525,-4.9273,-4.9027,-4.8907,-4.8907,-4.9096,-4.9162,-4.9246,-4.9393,-4.9474,-4.9509,-4.9509,-4.9509,-4.9509,-4.9509,-4.9509,-4.9536,-4.9678,-4.9885,-5.0095,-5.0291,-5.0486,-5.0692,-5.081,-5.0872,-5.0916,-5.1015,-5.1076,-5.1114,-5.1142,-5.1125,-5.0984,-5.0632,-5.0278,-5.0218,-4.9882,-4.9518,-4.9461,-4.9503,-4.9581,-4.9769,-5.0038,-5.0205,-5.0344,-5.0453,-5.0625,-5.0682,-5.071,-5.0747,-5.0841,-5.0909,-5.089,-5.089,-5.0898,-5.0941,-5.0986,-5.1048,-5.1101,-5.1115,-5.1121,-5.1191,-5.1245,-5.1268,-5.1323,-5.1361,-5.1386,-5.1381,-5.1372,-5.1356,-5.0989,-5.0406,-4.9863,-4.9413,-4.8496,-4.7558,-4.7254,-4.6971,-4.6606,-4.617,-4.6142,-4.6142,-4.6162,-4.9442,-4.9289,-4.9211,-4.9044,-4.8943,-4.8976,-4.9222,-4.9525,-4.9646,-4.9703,-4.9717,-4.9612,-4.9773,-5.0006,-5.0089,-5.0038,-4.9946,-4.9596,-4.9352,-4.9305,-4.9127,-4.8993,-4.8909,-4.889,-4.889,-4.889,-4.889,-4.889,-4.889,-4.889,-4.8925,-4.9092,-4.9315,-4.9374,-4.9499,-4.9377,-4.9141,-4.8976,-4.9079,-4.9214,-4.923,-4.9377,-4.9509,-4.9509,-4.9509,-4.9509,-4.9509,-4.9509,-4.9509,-4.9521,-4.9697,-4.9898,-5.0101,-5.0283,-5.0498,-5.071,-5.0855,-5.0897,-5.0893,-5.0952,-5.1002,-5.1037,-5.1069,-5.1063,-5.1017,-5.0539,-5.0301,-5.0159,-4.9874,-4.9625,-4.9659,-4.9683,-4.9788,-4.9986,-5.0212,-5.0374,-5.0504,-5.0576,-5.0692,-5.0692,-5.0701,-5.0692,-5.0747,-5.085,-5.0874,-5.0921,-5.0956,-5.0998,-5.106,-5.1115,-5.1178,-5.1178,-5.1194,-5.1239,-5.1268,-5.1294,-5.1314,-5.1385,-5.1386,-5.1363,-5.1356,-5.1343,-5.078,-5.0167,-4.9528,-4.8886,-4.7882,-4.7004,-4.6654,-4.6325,-4.6174,-4.6068,-4.6046,-4.6102,-4.6181,-4.9617,-4.9396,-4.9321,-4.9061,-4.8767,-4.8925,-4.9302,-4.9612,-4.9602,-4.9573,-4.9583,-4.9525,-4.9617,-4.9805,-4.986,-4.9778,-4.9741,-4.9476,-4.9211,-4.9179,-4.9012,-4.8926,-4.889,-4.889,-4.889,-4.889,-4.889,-4.889,-4.889,-4.889,-4.8993,-4.9127,-4.9158,-4.9404,-4.951,-4.9334,-4.911,-4.903,-4.9131,-4.923,-4.9279,-4.9393,-4.9509,-4.9509,-4.9509,-4.9509,-4.9509,-4.9509,-4.949,-4.9567,-4.9692,-4.9914,-5.0099,-5.032,-5.0567,-5.078,-5.081,-5.0827,-5.0799,-5.078,-5.083,-5.0887,-5.0961,-5.1016,-5.094,-5.05,-5.0323,-5.0147,-4.9908,-4.9866,-4.9871,-4.9898,-5.0057,-5.0252,-5.0385,-5.0535,-5.0615,-5.0701,-5.0729,-5.0729,-5.0616,-5.0616,-5.0664,-5.0773,-5.085,-5.0941,-5.1012,-5.106,-5.1088,-5.1153,-5.1196,-5.1202,-5.1214,-5.124,-5.1253,-5.128,-5.1325,-5.1386,-5.1386,-5.1365,-5.1358,-5.1328,-5.0627,-4.9905,-4.9228,-4.8405,-4.7292,-4.6534,-4.6301,-4.6177,-4.6104,-4.6022,-4.5963,-4.6047,-4.6146,-4.9901,-4.9602,-4.9365,-4.8906,-4.8495,-4.8906,-4.9299,-4.9525,-4.938,-4.9411,-4.9554,-4.9399,-4.9427,-4.9554,-4.9583,-4.9514,-4.9384,-4.9289,-4.9127,-4.8993,-4.8926,-4.889,-4.889,-4.889,-4.889,-4.889,-4.889,-4.889,-4.889,-4.889,-4.9044,-4.927,-4.9374,-4.9465,-4.9365,-4.9257,-4.9113,-4.9164,-4.9244,-4.9305,-4.9368,-4.944,-4.949,-4.9509,-4.9509,-4.9509,-4.9509,-4.9509,-4.9521,-4.9593,-4.9721,-4.9949,-5.0187,-5.0399,-5.0687,-5.0811,-5.0708,-5.0673,-5.0577,-5.0577,-5.0625,-5.0699,-5.0805,-5.0855,-5.0795,-5.0548,-5.0396,-5.0286,-5.0099,-5.0076,-5.0076,-5.0209,-5.0339,-5.0466,-5.0567,-5.0654,-5.07,-5.0745,-5.0763,-5.0709,-5.0537,-5.0507,-5.0567,-5.0691,-5.0841,-5.0948,-5.1027,-5.1074,-5.1101,-5.1128,-5.1184,-5.1202,-5.1206,-5.1205,-5.1222,-5.1255,-5.1324,-5.1386,-5.1387,-5.1386,-5.1381,-5.1121,-5.0322,-4.956,-4.8867,-4.7951,-4.6836,-4.6283,-4.6085,-4.6012,-4.6037,-4.6003,-4.5958,-4.6003,-4.6074,-4.9974,-4.9569,-4.9209,-4.8763,-4.8345,-4.8402,-4.8604,-4.8898,-4.9155,-4.9352,-4.9399,-4.9321,-4.9305,-4.938,-4.9399,-4.9337,-4.9241,-4.911,-4.8993,-4.8907,-4.889,-4.889,-4.889,-4.889,-4.889,-4.889,-4.889,-4.889,-4.889,-4.889,-4.8907,-4.9042,-4.9204,-4.9255,-4.9318,-4.9286,-4.9289,-4.9305,-4.9396,-4.9442,-4.9461,-4.9502,-4.9521,-4.9509,-4.9509,-4.9509,-4.9509,-4.9509,-4.9548,-4.9722,-4.9889,-5.0149,-5.0481,-5.0671,-5.0852,-5.069,-5.0606,-5.0518,-5.0372,-5.0328,-5.0383,-5.0527,-5.0663,-5.0771,-5.0771,-5.0663,-5.0467,-5.0404,-5.0309,-5.0279,-5.0291,-5.0393,-5.0508,-5.0616,-5.07,-5.0727,-5.078,-5.0825,-5.0833,-5.072,-5.0546,-5.0517,-5.0577,-5.0682,-5.0833,-5.0948,-5.1034,-5.1069,-5.1101,-5.1128,-5.1134,-5.1153,-5.1171,-5.1161,-5.1213,-5.1249,-5.132,-5.1363,-5.1386,-5.1367,-5.1288,-5.0876,-4.9997,-4.9075,-4.8108,-4.726,-4.6369,-4.6067,-4.6032,-4.6017,-4.6037,-4.5993,-4.5958,-4.6008,-4.606,-4.9954,-4.9554,-4.9062,-4.844,-4.7816,-4.7653,-4.7822,-4.8178,-4.8765,-4.9008,-4.9008,-4.9008,-4.9061,-4.9077,-4.9096,-4.9113,-4.9129,-4.8993,-4.889,-4.889,-4.889,-4.889,-4.889,-4.889,-4.889,-4.889,-4.889,-4.889,-4.889,-4.889,-4.889,-4.8907,-4.889,-4.9062,-4.9228,-4.9352,-4.9439,-4.9484,-4.9544,-4.9577,-4.957,-4.9548,-4.9521,-4.9505,-4.9505,-4.9505,-4.9505,-4.9505,-4.9615,-4.9776,-4.9981,-5.0278,-5.0615,-5.0874,-5.085,-5.0689,-5.0498,-5.0309,-5.0123,-5.0068,-5.0152,-5.0298,-5.0497,-5.0663,-5.07,-5.0644,-5.0596,-5.0567,-5.0477,-5.0436,-5.0488,-5.0567,-5.0673,-5.0773,-5.0799,-5.0797,-5.0858,-5.089,-5.0825,-5.072,-5.0664,-5.0616,-5.0663,-5.0736,-5.0841,-5.0998,-5.1088,-5.1121,-5.1115,-5.1101,-5.1075,-5.1075,-5.1089,-5.1101,-5.1172,-5.1218,-5.1277,-5.133,-5.1384,-5.1347,-5.123,-5.0586,-4.9687,-4.8472,-4.7189,-4.6548,-4.6107,-4.6111,-4.6095,-4.6066,-4.608,-4.6084,-4.6051,-4.6018,-4.6093,-4.9819,-4.9412,-4.8777,-4.7808,-4.6954,-4.6908,-4.712,-4.747,-4.8251,-4.8605,-4.8623,-4.866,-4.8785,-4.8942,-4.8978,-4.9027,-4.9077,-4.9044,-4.8993,-4.8907,-4.889,-4.889,-4.889,-4.889,-4.889,-4.889,-4.889,-4.889,-4.889,-4.889,-4.889,-4.889,-4.8926,-4.9046,-4.9244,-4.9427,-4.9558,-4.9703,-4.9703,-4.9689,-4.9604,-4.9551,-4.9536,-4.9551,-4.9548,-4.9514,-4.9517,-4.9563,-4.96,-4.9809,-5.0018,-5.0322,-5.072,-5.0946,-5.0855,-5.0605,-5.0353,-5.0099,-4.9897,-4.9836,-4.991,-5.0056,-5.0286,-5.0538,-5.0663,-5.0709,-5.0718,-5.0718,-5.0653,-5.0644,-5.0672,-5.0708,-5.0816,-5.0841,-5.0858,-5.0866,-5.0882,-5.0898,-5.0858,-5.0782,-5.0756,-5.0747,-5.0764,-5.0833,-5.0917,-5.106,-5.1108,-5.1121,-5.1102,-5.1069,-5.1041,-5.1,-5.1041,-5.1069,-5.1088,-5.1147,-5.1222,-5.1279,-5.1352,-5.1364,-5.1286,-5.0429,-4.9374,-4.812,-4.6903,-4.6462,-4.6119,-4.6108,-4.6123,-4.6165,-4.6158,-4.6193,-4.6166,-4.6098,-4.6106,-4.955,-4.8742,-4.7745,-4.6936,-4.6447,-4.6708,-4.7062,-4.7446,-4.7935,-4.8401,-4.8715,-4.8821,-4.8942,-4.9094,-4.9144,-4.9222,-4.9346,-4.9239,-4.9209,-4.911,-4.901,-4.8907,-4.889,-4.889,-4.889,-4.889,-4.889,-4.889,-4.889,-4.889,-4.889,-4.8909,-4.8979,-4.9098,-4.9321,-4.9499,-4.9617,-4.9847,-4.9882,-4.9814,-4.975,-4.9722,-4.9731,-4.9731,-4.9731,-4.9717,-4.9679,-4.957,-4.9773,-5.0025,-5.0075,-5.0387,-5.0839,-5.0893,-5.0692,-5.0357,-5.0104,-4.9903,-4.975,-4.9712,-4.98,-5.0038,-5.0298,-5.0528,-5.069,-5.078,-5.0822,-5.0841,-5.0841,-5.0822,-5.083,-5.0874,-5.0898,-5.0898,-5.0898,-5.0898,-5.0898,-5.089,-5.0882,-5.0866,-5.085,-5.0858,-5.0885,-5.0933,-5.1032,-5.1074,-5.1076,-5.1089,-5.1056,-5.1022,-5.0978,-5.0963,-5.1005,-5.1015,-5.103,-5.1099,-5.1189,-5.1232,-5.1282,-5.1304,-5.1261,-5.0111,-4.8901,-4.7832,-4.6838,-4.6394,-4.6115,-4.6117,-4.6141,-4.6185,-4.6201,-4.6208,-4.6212,-4.6154,-4.6181,-4.9259,-4.8476,-4.7367,-4.6625,-4.6343,-4.6684,-4.7066,-4.7446,-4.7915,-4.8439,-4.8872,-4.8957,-4.9059,-4.9255,-4.9334,-4.9472,-4.9602,-4.9484,-4.9349,-4.9241,-4.9146,-4.9029,-4.896,-4.889,-4.889,-4.889,-4.889,-4.889,-4.889,-4.889,-4.889,-4.8909,-4.8996,-4.9129,-4.9349,-4.9442,-4.9621,-4.9939,-4.9974,-4.9967,-4.9925,-4.9961,-4.9962,-4.9962,-4.9962,-4.9936,-4.9795,-4.9707,-4.9876,-5.0203,-5.041,-5.0587,-5.0844,-5.0805,-5.0591,-5.0325,-5.0081,-4.9828,-4.9702,-4.9678,-4.9783,-5.0044,-5.0264,-5.0477,-5.0673,-5.0754,-5.0866,-5.0874,-5.0874,-5.0874,-5.0874,-5.0898,-5.0898,-5.0898,-5.0898,-5.0898,-5.0898,-5.0898,-5.089,-5.089,-5.089,-5.0933,-5.0956,-5.1007,-5.1069,-5.1089,-5.1101,-5.1127,-5.1069,-5.094,-5.0902,-5.0898,-5.0921,-5.0971,-5.1015,-5.1088,-5.1206,-5.123,-5.1232,-5.0728,-5.0342,-4.9427,-4.8406,-4.7484,-4.6755,-4.6309,-4.6115,-4.6156,-4.6154,-4.6201,-4.6208,-4.6196,-4.6199,-4.6199,-4.6196,-4.8988,-4.8366,-4.7342,-4.6625,-4.6301,-4.6678,-4.7115,-4.7488,-4.8055,-4.8605,-4.9071,-4.9087,-4.912,-4.928,-4.9454,-4.9569,-4.9627,-4.9602,-4.9469,-4.9365,-4.926,-4.9079,-4.8925,-4.889,-4.889,-4.889,-4.889,-4.889,-4.889,-4.889,-4.889,-4.889,-4.896,-4.9029,-4.9146,-4.926,-4.9464,-4.9816,-4.9959,-5.0044,-5.0114,-5.0209,-5.0202,-5.0195,-5.0195,-5.0092,-4.9949,-4.9857,-4.9955,-5.0206,-5.0576,-5.0811,-5.0792,-5.0709,-5.0519,-5.029,-5.0044,-4.9866,-4.9745,-4.9736,-4.9847,-5.0019,-5.0206,-5.0415,-5.0635,-5.0782,-5.0874,-5.0898,-5.0898,-5.0898,-5.0898,-5.0914,-5.0914,-5.0933,-5.0933,-5.0933,-5.0933,-5.0933,-5.0933,-5.0933,-5.0956,-5.1005,-5.1041,-5.1082,-5.1108,-5.1121,-5.1133,-5.1159,-5.1134,-5.0932,-5.0811,-5.0811,-5.0819,-5.0879,-5.0978,-5.1089,-5.12,-5.122,-5.1096,-5.0254,-4.9525,-4.9081,-4.837,-4.7314,-4.6676,-4.629,-4.6227,-4.6292,-4.6279,-4.6364,-4.6215,-4.6219,-4.6199,-4.6199,-4.6199,-4.8711,-4.772,-4.7138,-4.6625,-4.6343,-4.6719,-4.716,-4.7611,-4.8094,-4.866,-4.9171,-4.9435,-4.9583,-4.9819,-4.9847,-4.9927,-4.9935,-4.9787,-4.9627,-4.9529,-4.9225,-4.901,-4.8907,-4.889,-4.889,-4.8907,-4.8907,-4.8907,-4.8993,-4.8942,-4.8907,-4.8925,-4.9013,-4.9081,-4.9162,-4.9292,-4.9476,-4.9824,-5.0057,-5.0169,-5.0448,-5.0504,-5.0445,-5.0446,-5.0477,-5.0331,-5.0159,-4.9923,-4.9851,-5.003,-5.0431,-5.0733,-5.0733,-5.0576,-5.0401,-5.0222,-4.998,-4.9857,-4.9778,-4.9788,-4.9914,-5.0195,-5.0385,-5.0508,-5.0681,-5.0841,-5.0898,-5.0898,-5.0898,-5.0906,-5.0914,-5.0956,-5.0971,-5.0998,-5.1005,-5.1005,-5.0978,-5.1012,-5.1039,-5.102,-5.102,-5.1041,-5.1055,-5.1089,-5.1114,-5.1133,-5.1165,-5.1159,-5.1069,-5.0894,-5.0741,-5.0758,-5.0775,-5.0835,-5.0944,-5.1115,-5.1206,-5.1211,-5.1097,-5.0557,-4.9928,-4.9231,-4.8419,-4.7661,-4.6889,-4.6387,-4.6362,-4.6589,-4.6726,-4.6792,-4.6391,-4.6238,-4.6258,-4.6199,-4.6199]},{"header":{"parameterUnit":"m.s-1","parameterCategory":1,"la1":31.0,"la2":29.5877,"lo1":-88.7671,"lo2":-86.6584,"dy":0.0162,"dx":0.0185,"nx":115,"ny":88,"refTime":"2024-07-02T06:00:00:Z","depth":0,"parameterNumber":3,"parameterNumberName":"V-component_of_WINDS"},"data":[0.0,0.0,0.0,0.0,0.0,0.0,0.0,0.0,0.0,0.0,0.0,0.0,0.0,0.0,0.0,0.0,0.0,0.0,0.0,0.0,0.0,0.0,0.0,0.0,0.0,0.0,0.0,0.0,0.0,0.0,0.0,0.0,0.0,0.0,0.0,0.0,0.0,0.0,0.0,0.0,0.0,0.0,0.0,0.0,0.0,0.0,0.0,0.0,0.0,0.0,0.0,0.0,0.0,0.0,0.0,0.0,0.0,0.0,0.0,0.0,0.0,0.0,0.0,0.0,0.0,0.0,0.0,0.0,0.0,0.0,0.0,0.0,0.0,0.0,0.0,0.0,0.0,0.0,0.0,0.0,0.0,0.0,0.0,0.0,0.0,0.0,0.0,0.0,0.0,0.0,0.0,0.0,0.0,0.0,0.0,0.0,0.0,0.0,0.0,0.0,0.0,0.0,0.0,0.0,0.0,0.0,0.0,0.0,0.0,0.0,0.0,0.0,0.0,0.0,0.0,0.0,0.0,0.0,0.0,0.0,0.0,0.0,0.0,0.0,0.0,0.0,0.0,0.0,0.0,0.0,0.0,0.0,0.0,0.0,0.0,0.0,0.0,0.0,0.0,0.0,0.0,0.0,0.0,0.0,0.0,0.0,0.0,0.0,0.0,0.0,0.0,0.0,0.0,0.0,0.0,0.0,0.0,0.0,0.0,0.0,0.0,0.0,0.0,0.0,0.0,0.0,0.0,0.0,0.0,0.0,0.0,0.0,0.0,0.0,0.0,0.0,0.0,0.0,0.0,0.0,0.0,0.0,0.0,0.0,0.0,0.0,0.0,0.0,0.0,0.0,0.0,0.0,0.0,0.0,0.0,0.0,0.0,0.0,0.0,0.0,0.0,0.0,0.0,0.0,0.0,0.0,0.0,0.0,0.0,0.0,0.0,0.0,0.0,0.0,0.0,0.0,0.0,0.0,0.0,0.0,0.0,0.0,0.0,0.0,0.0,0.0,0.0,0.0,0.0,0.0,0.0,0.0,0.0,0.0,0.0,0.0,0.0,0.0,0.0,0.0,0.0,0.0,0.0,0.0,0.0,0.0,0.0,0.0,0.0,0.0,0.0,0.0,0.0,0.0,0.0,0.0,0.0,0.0,0.0,0.0,0.0,0.0,0.0,0.0,0.0,0.0,0.0,0.0,0.0,0.0,0.0,0.0,0.0,0.0,0.0,0.0,0.0,0.0,0.0,0.0,0.0,0.0,0.0,0.0,0.0,0.0,0.0,0.0,0.0,0.0,0.0,0.0,0.0,0.0,0.0,0.0,0.0,0.0,0.0,0.0,0.0,0.0,0.0,0.0,0.0,0.0,0.0,0.0,0.0,0.0,0.0,0.0,0.0,0.0,0.0,0.0,0.0,0.0,0.0,0.0,0.0,0.0,0.0,0.0,0.0,0.0,0.0,0.0,0.0,0.0,0.0,0.0,0.0,0.0,0.0,0.0,0.0,0.0,0.0,0.0,0.0,0.0,0.0,0.0,0.0,0.0,0.0,0.0,0.0,0.0,0.0,0.0,0.0,0.0,0.0,0.0,0.0,0.0,0.0,0.0,0.0,0.0,0.0,0.0,0.0,0.0,0.0,0.0,0.0,0.0,0.0,0.0,0.0,0.0,0.0,0.0,0.0,0.0,0.0,0.0,0.0,0.0,0.0,0.0,0.0,0.0,0.0,0.0,0.0,0.0,0.0,0.0,0.0,0.0,0.0,0.0,0.0,0.0,0.0,0.0,0.0,0.0,0.0,0.0,0.0,0.0,0.0,0.0,0.0,0.0,0.0,0.0,0.0,0.0,0.0,0.0,0.0,0.0,0.0,0.0,0.0,0.0,0.0,0.0,0.0,0.0,0.0,0.0,0.0,0.0,0.0,0.0,0.0,0.0,0.0,0.0,0.0,0.0,0.0,0.0,0.0,0.0,0.0,0.0,0.0,0.0,0.0,0.0,0.0,0.0,0.0,0.0,0.0,0.0,0.0,0.0,0.0,0.0,0.0,0.0,0.0,0.0,0.0,0.0,0.0,0.0,0.0,0.0,0.0,0.0,0.0,0.0,0.0,0.0,0.0,0.0,0.0,0.0,0.0,0.0,0.0,0.0,0.0,0.0,0.0,0.0,0.0,0.0,0.0,0.0,0.0,0.0,0.0,0.0,0.0,0.0,0.0,0.0,0.0,0.0,0.0,0.0,0.0,0.0,0.0,0.0,0.0,0.0,0.0,0.0,0.0,0.0,0.0,0.0,0.0,0.0,0.0,0.0,0.0,0.0,0.0,0.0,0.0,0.0,0.0,0.0,0.0,0.0,0.0,0.0,0.0,0.0,0.0,0.0,0.0,0.0,0.0,0.0,0.0,0.0,0.0,0.0,0.0,0.0,0.0,0.0,0.0,0.0,0.0,0.0,0.0,0.0,0.0,0.0,0.0,0.0,0.0,0.0,0.0,0.0,0.0,0.0,0.0,0.0,0.0,0.0,0.0,0.0,0.0,0.0,0.0,0.0,0.0,0.0,0.0,0.0,0.0,0.0,0.0,0.0,0.0,0.0,0.0,0.0,0.0,0.0,0.0,0.0,0.0,0.0,0.0,0.0,0.0,0.0,0.0,0.0,0.0,0.0,0.0,0.0,0.0,0.0,0.0,0.0,0.0,0.0,0.0,0.0,0.0,0.0,0.0,0.0,0.0,0.0,0.0,0.0,0.0,0.0,0.0,0.0,0.0,0.0,0.0,0.0,0.0,0.0,0.0,0.0,0.0,0.0,0.0,0.0,0.0,0.0,0.0,0.0,0.0,0.0,0.0,0.0,0.0,0.0,0.0,0.0,0.0,0.0,0.0,0.0,0.0,0.0,0.0,0.0,0.0,0.0,0.0,0.0,0.0,0.0,0.0,0.0,0.0,0.0,0.0,0.0,0.0,0.0,0.0,0.0,0.0,0.0,0.0,0.0,0.0,0.0,0.0,0.0,0.0,0.0,0.0,0.0,0.0,0.0,0.0,0.0,0.0,0.0,0.0,0.0,0.0,0.0,0.0,0.0,0.0,0.0,0.0,0.0,0.0,0.0,0.0,0.0,0.0,0.0,0.0,0.0,0.0,0.0,0.0,0.0,0.0,0.0,0.0,0.0,0.0,0.0,0.0,0.0,0.0,0.0,0.0,0.0,0.0,0.0,0.0,0.0,0.0,0.0,0.0,0.0,0.0,0.0,0.0,0.0,0.0,0.0,0.0,0.0,0.0,0.0,0.0,0.0,0.0,0.0,0.0,0.0,0.0,0.0,0.0,0.0,0.0,0.0,0.0,0.0,0.0,0.0,0.0,0.0,0.0,0.0,0.0,0.0,0.0,0.0,0.0,0.0,0.0,0.0,0.0,0.0,0.0,0.0,0.0,0.0,0.0,0.0,0.0,0.0,0.0,0.0,0.0,0.0,0.0,0.0,0.0,0.0,0.0,0.0,0.0,0.0,0.0,0.0,0.0,0.0,0.0,0.0,0.0,0.0,0.0,0.0,0.0,0.0,0.0,0.0,0.0,0.0,0.0,0.0,0.0,0.0,0.0,0.0,0.0,0.0,0.0,0.0,0.0,0.0,0.0,0.0,0.0,0.0,0.0,0.0,0.0,0.0,0.0,0.0,0.0,0.0,0.0,0.0,0.0,0.0,0.0,0.0,0.0,0.0,0.0,0.0,0.0,0.0,0.0,0.0,0.0,0.0,0.0,0.0,0.0,0.0,0.0,0.0,0.0,0.0,0.0,0.0,0.0,0.0,0.0,0.0,0.0,0.0,0.0,0.0,0.0,0.0,0.0,0.0,0.0,0.0,0.0,0.0,0.0,0.0,0.0,0.0,0.0,0.0,0.0,0.0,0.0,0.0,0.0,0.0,0.0,0.0,0.0,0.0,0.0,0.0,0.0,0.0,0.0,0.0,0.0,0.0,0.0,0.0,0.0,0.0,0.0,0.0,0.0,0.0,0.0,0.0,0.0,0.0,0.0,0.0,0.0,0.0,0.0,0.0,0.0,0.0,0.0,0.0,0.0,0.0,0.0,0.0,0.0,0.0,0.0,0.0,0.0,0.0,0.0,0.0,0.0,0.0,0.0,0.0,0.0,0.0,0.0,0.0,0.0,0.0,0.0,0.0,0.0,0.0,0.0,0.0,0.0,0.0,0.0,0.0,0.0,0.0,0.0,0.0,0.0,0.0,0.0,0.0,0.0,0.0,0.0,0.0,0.0,0.0,0.0,0.0,0.0,0.0,1.4768,0.0,0.0,0.0,0.0,0.0,0.0,0.0,0.0,0.0,0.0,0.0,0.0,0.0,0.0,0.0,0.0,0.0,0.0,0.0,0.0,0.0,0.0,0.0,0.0,0.0,0.0,0.0,0.0,0.0,0.0,0.0,0.0,0.0,0.0,0.0,0.0,0.0,0.0,0.0,0.0,0.0,0.0,0.0,0.0,0.0,0.0,0.0,0.0,0.0,0.0,0.0,0.0,0.0,0.0,0.0,0.0,0.0,0.0,0.0,0.0,0.0,0.0,0.0,0.0,0.0,0.0,0.0,0.0,0.0,0.0,0.0,0.0,0.0,0.0,0.0,0.0,0.0,0.0,0.0,0.0,0.0,0.0,0.0,0.0,0.0,0.0,0.0,0.0,0.0,0.0,0.0,0.0,0.0,0.0,0.0,0.0,0.0,0.0,0.0,0.0,0.0,0.0,0.0,0.0,0.0,0.0,0.0,0.0,0.0,0.0,1.4712,1.4837,1.4622,1.4602,1.4803,0.0,0.0,0.0,0.0,0.0,0.0,0.0,0.0,0.0,0.0,0.0,0.0,0.0,0.0,0.0,0.0,0.0,0.0,0.0,0.0,0.0,0.0,0.0,0.0,0.0,0.0,0.0,0.0,0.0,0.0,0.0,0.0,0.0,0.0,0.0,0.0,0.0,0.0,0.0,0.0,0.0,0.0,0.0,0.0,0.0,0.0,0.0,0.0,0.0,0.0,0.0,0.0,0.0,0.0,0.0,0.0,0.0,0.0,0.0,0.0,0.0,0.0,0.0,0.0,0.0,0.0,0.0,0.0,0.0,0.0,0.0,0.0,0.0,0.0,0.0,0.0,0.0,0.0,0.0,0.0,0.0,0.0,0.0,0.0,0.0,0.0,0.0,0.0,0.0,0.0,0.0,0.0,0.0,0.0,0.0,0.0,0.0,0.0,0.0,0.0,0.0,0.0,0.0,0.0,0.0,0.0,0.0,0.0,0.0,0.0,0.0,0.0,1.509,1.5102,1.5271,0.0,0.0,0.0,0.0,0.0,0.0,0.0,0.0,0.0,0.0,0.0,0.0,0.0,0.0,0.0,0.0,0.0,0.0,0.0,0.0,0.0,0.0,0.0,0.0,0.0,0.0,0.0,0.0,0.0,0.0,0.0,0.0,0.0,0.0,0.0,0.0,0.0,0.0,0.0,0.0,0.0,0.0,0.0,0.0,0.0,0.0,0.0,0.0,0.0,0.0,0.0,0.0,0.0,0.0,0.0,0.0,0.0,0.0,0.0,0.0,0.0,0.0,0.0,0.0,0.0,0.0,0.0,0.0,0.0,0.0,0.0,0.0,0.0,0.0,0.0,0.0,0.0,0.0,0.0,0.0,0.0,0.0,0.0,0.0,0.0,0.0,0.0,0.0,0.0,0.0,0.0,0.0,0.0,0.0,0.0,0.0,0.0,0.0,0.0,0.0,0.0,0.0,0.0,0.0,0.0,0.0,0.0,0.0,0.0,0.0,1.5277,1.6301,1.6483,0.0,1.667,0.0,0.0,0.0,0.0,0.0,0.0,0.0,0.0,0.0,0.0,0.0,0.0,0.0,0.0,0.0,0.0,0.0,0.0,0.0,0.0,0.0,0.0,0.0,0.0,0.0,0.0,0.0,0.0,0.0,0.0,0.0,0.0,0.0,0.0,0.0,0.0,0.0,0.0,0.0,0.0,0.0,0.0,0.0,0.0,0.0,0.0,0.0,0.0,0.0,0.0,0.0,0.0,0.0,0.0,0.0,0.0,0.0,0.0,0.0,0.0,0.0,0.0,0.0,0.0,0.0,0.0,0.0,0.0,0.0,0.0,0.0,0.0,0.0,0.0,0.0,0.0,0.0,0.0,0.0,0.0,0.0,0.0,0.0,0.0,0.0,0.0,0.0,0.0,0.0,0.0,0.0,0.0,0.0,0.0,0.0,0.0,0.0,0.0,0.0,0.0,0.0,0.0,0.0,0.0,0.0,0.0,0.0,0.0,0.0,0.0,0.0,1.6302,1.6434,1.6456,0.0,0.0,0.0,0.0,0.0,0.0,0.0,0.0,0.0,0.0,0.0,0.0,0.0,0.0,0.0,0.0,0.0,0.0,0.0,0.0,0.0,0.0,0.0,0.0,0.0,0.0,0.0,0.0,0.0,0.0,0.0,0.0,0.0,0.0,0.0,0.0,0.0,0.0,0.0,0.0,0.0,0.0,0.0,0.0,0.0,0.0,0.0,0.0,0.0,0.0,0.0,0.0,0.0,0.0,0.0,0.0,0.0,0.0,0.0,0.0,0.0,0.0,0.0,0.0,0.0,0.0,0.0,0.0,0.0,0.0,0.0,0.0,0.0,0.0,0.0,0.0,0.0,0.0,0.0,0.0,0.0,0.0,0.0,0.0,0.0,0.0,0.0,0.0,0.0,0.0,0.0,0.0,0.0,0.0,0.0,0.0,0.0,0.0,0.0,0.0,0.0,0.0,0.0,0.0,0.0,0.0,0.0,0.0,0.0,0.0,1.5429,0.0,1.6484,1.6477,1.6367,1.6202,0.0,0.0,0.0,0.0,0.0,0.0,0.0,0.0,0.0,0.0,0.0,0.0,0.0,0.0,0.0,0.0,0.0,0.0,0.0,0.0,0.0,0.0,0.0,0.0,0.0,0.0,0.0,0.0,0.0,0.0,0.0,0.0,0.0,0.0,0.0,0.0,0.0,0.0,0.0,0.0,0.0,0.0,0.0,0.0,0.0,0.0,0.0,0.0,0.0,0.0,0.0,0.0,0.0,0.0,0.0,0.0,0.0,0.0,0.0,0.0,0.0,0.0,0.0,0.0,0.0,0.0,0.0,0.0,0.0,0.0,0.0,0.0,0.0,0.0,0.0,0.0,0.0,0.0,0.0,0.0,0.0,0.0,0.0,0.0,0.0,0.0,0.0,0.0,0.0,0.0,0.0,0.0,0.0,0.0,0.0,0.0,0.0,0.0,0.0,0.0,0.0,0.0,0.0,0.0,0.0,0.0,0.0,0.0,0.0,1.5869,1.5962,1.7282,1.6983,1.6739,0.0,0.0,0.0,0.0,0.0,0.0,0.0,0.0,0.0,0.0,0.0,0.0,0.0,0.0,0.0,0.0,0.0,0.0,0.0,0.0,0.0,0.0,0.0,0.0,0.0,0.0,0.0,0.0,0.0,0.0,0.0,0.0,0.0,0.0,0.0,0.0,0.0,0.0,0.0,0.0,0.0,0.0,0.0,0.0,0.0,0.0,0.0,0.0,0.0,0.0,0.0,0.0,0.0,0.0,0.0,0.0,0.0,0.0,0.0,0.0,0.0,0.0,0.0,0.0,0.0,0.0,0.0,0.0,0.0,0.0,0.0,0.0,0.0,0.0,0.0,0.0,0.0,0.0,0.0,0.0,0.0,0.0,0.0,0.0,0.0,0.0,0.0,0.0,0.0,0.0,0.0,0.0,0.0,0.0,0.0,0.0,0.0,0.0,0.0,0.0,0.0,0.0,0.0,0.0,0.0,0.0,0.0,0.0,0.0,1.4959,1.5069,1.5932,1.7534,1.6562,1.6322,0.0,0.0,0.0,0.0,0.0,0.0,0.0,0.0,0.0,0.0,0.0,0.0,0.0,0.0,0.0,0.0,0.0,0.0,0.0,0.0,0.0,0.0,0.0,0.0,0.0,0.0,0.0,0.0,0.0,0.0,0.0,0.0,0.0,0.0,0.0,0.0,0.0,0.0,0.0,0.0,0.0,0.0,0.0,0.0,0.0,0.0,0.0,0.0,0.0,0.0,0.0,0.0,0.0,0.0,0.0,0.0,0.0,0.0,0.0,0.0,0.0,0.0,0.0,0.0,0.0,0.0,0.0,0.0,0.0,0.0,0.0,0.0,0.0,0.0,0.0,0.0,0.0,0.0,0.0,0.0,0.0,0.0,0.0,0.0,0.0,0.0,0.0,0.0,0.0,0.0,0.0,0.0,0.0,0.0,0.0,0.0,0.0,0.0,0.0,0.0,0.0,0.0,0.0,0.0,0.0,0.0,0.0,0.0,0.0,1.4199,0.0,1.5604,0.0,1.5879,1.5638,0.0,0.0,0.0,0.0,0.0,0.0,0.0,0.0,0.0,0.0,0.0,0.0,0.0,0.0,0.0,0.0,0.0,0.0,0.0,0.0,0.0,0.0,0.0,0.0,0.0,0.0,0.0,0.0,0.0,0.0,0.0,0.0,0.0,0.0,0.0,0.0,0.0,0.0,0.0,0.0,0.0,0.0,0.0,0.0,0.0,0.0,0.0,0.0,0.0,0.0,0.0,0.0,0.0,0.0,0.0,0.0,0.0,0.0,0.0,0.0,0.0,0.0,0.0,0.0,0.0,0.0,0.0,0.0,0.0,0.0,0.0,0.0,0.0,0.0,0.0,0.0,0.0,0.0,0.0,0.0,0.0,0.0,0.0,0.0,0.0,0.0,0.0,0.0,0.0,0.0,0.0,0.0,0.0,0.0,0.0,0.0,0.0,0.0,0.0,0.0,0.0,0.0,0.0,0.0,0.0,0.0,0.0,0.0,1.4031,1.4907,1.5043,1.4916,1.4478,1.497,1.4712,0.0,0.0,0.0,0.0,0.0,0.0,0.0,0.0,0.0,0.0,0.0,0.0,0.0,0.0,0.0,0.0,0.0,0.0,0.0,0.0,0.0,0.0,0.0,0.0,0.0,0.0,0.0,0.0,0.0,0.0,0.0,0.0,0.0,0.0,0.0,0.0,0.0,0.0,0.0,0.0,0.0,0.0,0.0,0.0,0.0,0.0,0.0,0.0,0.0,0.0,0.0,0.0,0.0,0.0,0.0,0.0,0.0,0.0,0.0,0.0,0.0,0.0,0.0,0.0,0.0,0.0,0.0,0.0,0.0,0.0,0.0,0.0,0.0,0.0,0.0,0.0,0.0,0.0,0.0,0.0,0.0,0.0,0.0,0.0,0.0,0.0,0.0,0.0,0.0,0.0,0.0,0.0,0.0,0.0,0.0,0.0,0.0,0.0,0.0,0.0,0.0,0.0,0.0,0.0,0.0,0.0,0.0,0.0,0.0,1.3607,1.3771,1.4053,1.4502,1.4182,1.4335,0.0,0.0,0.0,0.0,0.0,0.0,0.0,0.0,0.0,0.0,0.0,0.0,0.0,0.0,0.0,0.0,0.0,0.0,0.0,0.0,0.0,0.0,0.0,0.0,0.0,0.0,0.0,0.0,0.0,0.0,0.0,0.0,0.0,0.0,0.0,0.0,0.0,0.0,0.0,0.0,0.0,0.0,0.0,0.0,0.0,0.0,0.0,0.0,0.0,0.0,0.0,0.0,0.0,0.0,0.0,0.0,0.0,0.0,0.0,0.0,0.0,0.0,0.0,0.0,0.0,0.0,0.0,0.0,0.0,0.0,0.0,0.0,0.0,0.0,0.0,0.0,0.0,0.0,0.0,0.0,0.0,0.0,0.0,0.0,0.0,0.0,0.0,0.0,0.0,0.0,0.0,0.0,0.0,0.0,0.0,0.0,0.0,0.0,0.0,0.0,0.0,0.0,0.0,0.0,0.0,0.0,0.0,0.0,0.0,1.2526,1.3258,1.3766,1.4029,1.4124,1.4392,1.4824,0.0,0.0,0.0,0.0,0.0,0.0,0.0,0.0,0.0,0.0,0.0,0.0,0.0,0.0,0.0,0.0,0.0,0.0,0.0,0.0,0.0,0.0,0.0,0.0,0.0,0.0,0.0,0.0,0.0,0.0,0.0,0.0,0.0,0.0,0.0,0.0,0.0,0.0,0.0,0.0,0.0,0.0,0.0,0.0,0.0,0.0,0.0,0.0,0.0,0.0,0.0,0.0,0.0,0.0,0.0,0.0,0.0,0.0,0.0,0.0,0.0,0.0,0.0,0.0,0.0,0.0,0.0,0.0,0.0,0.0,0.0,0.0,0.0,0.0,0.0,0.0,0.0,0.0,0.0,0.0,0.0,0.0,0.0,0.0,0.0,0.0,0.0,0.0,0.0,0.0,0.0,0.0,0.0,0.0,0.0,0.0,0.0,0.0,0.0,0.0,0.0,0.0,0.0,0.0,0.0,0.0,0.0,0.0,1.1601,1.3385,1.3932,1.3158,1.4601,1.4738,0.0,0.0,0.0,0.0,0.0,0.0,0.0,0.0,0.0,0.0,0.0,0.0,0.0,0.0,0.0,0.0,0.0,0.0,0.0,0.0,0.0,0.0,0.0,0.0,0.0,0.0,0.0,0.0,0.0,0.0,0.0,0.0,0.0,0.0,0.0,0.0,0.0,0.0,0.0,0.0,0.0,0.0,0.0,0.0,0.0,0.0,0.0,0.0,0.0,0.0,0.0,0.0,0.0,0.0,0.0,0.0,0.0,0.0,0.0,0.0,0.0,0.0,0.0,0.0,0.0,0.0,0.0,0.0,0.0,0.0,0.0,0.0,0.0,0.0,0.0,0.0,0.0,0.0,0.0,0.0,0.0,0.0,0.0,0.0,0.0,0.0,0.0,0.0,0.0,0.0,0.0,0.0,0.0,0.0,0.0,0.0,0.0,0.0,0.0,0.0,0.0,0.0,0.0,0.0,0.0,0.0,0.0,0.0,0.0,1.1385,1.2806,1.34,1.3067,1.4355,1.4633,0.0,0.0,0.0,0.0,0.0,0.0,0.0,0.0,0.0,0.0,0.0,0.0,0.0,0.0,0.0,0.0,0.0,0.0,0.0,0.0,0.0,0.0,0.0,0.0,0.0,0.0,0.0,0.0,0.0,0.0,0.0,0.0,0.0,0.0,0.0,0.0,0.0,0.0,0.0,0.0,0.0,0.0,0.0,0.0,0.0,0.0,0.0,0.0,0.0,0.0,0.0,0.0,0.0,0.0,0.0,0.0,0.0,0.0,0.0,0.0,0.0,0.0,0.0,0.0,0.0,0.0,0.0,0.0,0.0,0.0,0.0,0.0,0.0,0.0,0.0,0.0,0.0,0.0,0.0,0.0,0.0,0.0,0.0,0.0,0.0,0.0,0.0,0.0,0.0,0.0,0.0,0.0,0.0,0.0,0.0,0.0,0.0,0.0,0.0,0.0,0.0,0.0,0.0,0.0,0.0,0.0,0.0,0.0,1.0701,1.0312,1.1877,1.298,1.356,1.5156,1.5336,0.0,0.0,0.0,0.0,0.0,0.0,0.0,0.0,0.0,0.0,0.0,0.0,0.0,0.0,0.0,0.0,0.0,0.0,0.0,0.0,0.0,0.0,0.0,0.0,0.0,0.0,0.0,0.0,0.0,0.0,0.0,0.0,0.0,0.0,0.0,0.0,0.0,0.0,0.0,0.0,0.0,0.0,0.0,0.0,0.0,0.0,0.0,0.0,0.0,0.0,0.0,0.0,0.0,0.0,0.0,0.0,0.0,0.0,0.0,0.0,0.0,0.0,0.0,0.0,0.0,0.0,0.0,0.0,0.0,0.0,0.0,0.0,0.0,0.0,0.0,0.0,0.0,0.0,0.0,0.0,0.0,0.0,0.0,0.0,0.0,0.0,0.0,0.0,0.0,0.0,0.0,0.0,0.0,0.0,0.0,0.0,0.0,0.0,0.0,0.0,0.0,0.0,0.0,0.0,0.0,0.0,0.0,0.0,0.9785,0.8819,1.0672,1.2498,1.4189,1.6266,1.6357,0.0,0.0,0.0,0.0,0.0,0.0,0.0,0.0,0.0,0.0,0.0,0.0,0.0,0.0,0.0,0.0,0.0,0.0,0.0,0.0,0.0,0.0,0.0,0.0,0.0,0.0,0.0,0.0,0.0,0.0,0.0,0.0,0.0,0.0,0.0,0.0,0.0,0.0,0.0,0.0,0.0,0.0,0.0,0.0,0.0,0.0,0.0,0.0,0.0,0.0,0.0,0.0,0.0,0.0,0.0,0.0,0.0,0.0,0.0,0.0,0.0,0.0,0.0,0.0,0.0,0.0,0.0,0.0,0.0,0.0,0.0,0.0,0.0,0.0,0.0,0.0,0.0,0.0,0.0,0.0,0.0,0.0,0.0,0.0,0.0,0.0,0.0,0.0,0.0,0.0,0.0,0.0,0.0,0.0,0.0,0.0,0.0,0.0,0.0,0.0,0.0,0.0,0.0,0.0,0.0,0.0,0.0,0.0,0.858,0.7509,0.9109,1.0978,1.3038,1.5294,1.6009,0.0,0.0,0.0,0.0,0.0,0.0,0.0,0.0,0.0,0.0,0.0,0.0,0.0,0.0,0.0,0.0,0.0,0.0,0.0,0.0,0.0,0.0,0.0,0.0,0.0,0.0,0.0,0.0,0.0,0.0,0.0,0.0,0.0,0.0,0.0,0.0,0.0,0.0,0.0,0.0,0.0,0.0,0.0,0.0,0.0,0.0,0.0,0.0,1.2384,0.0,0.0,0.0,0.0,0.0,0.0,0.0,0.0,0.0,0.0,0.0,0.0,0.0,0.0,0.0,0.0,0.0,0.0,0.0,0.0,0.0,0.0,0.0,0.0,0.0,0.0,0.0,0.0,0.0,0.0,0.0,0.0,0.0,0.0,0.0,0.0,0.0,0.0,0.0,0.0,0.0,0.0,0.0,0.0,0.0,0.0,0.0,0.0,0.0,0.0,0.0,0.0,0.0,0.0,0.0,0.0,0.0,0.0,0.0,0.6368,0.5982,0.7617,0.9562,1.1706,1.3808,1.4955,0.0,0.0,0.0,0.0,0.0,0.0,0.0,0.0,0.0,0.0,0.0,0.0,0.0,0.0,0.0,0.0,0.0,0.0,0.0,0.0,0.0,0.0,0.0,0.0,0.0,0.0,0.0,0.0,0.0,0.0,0.0,0.0,0.0,0.0,0.0,0.0,0.0,0.0,0.0,0.0,0.0,0.0,0.0,0.0,0.0,0.0,0.0,0.0,0.0,0.0,0.0,0.0,0.0,0.0,0.0,0.0,0.0,0.0,0.0,0.0,0.0,0.0,0.0,0.0,0.0,0.0,0.0,0.0,0.0,0.0,0.0,0.0,0.0,0.0,0.0,0.0,0.0,0.0,0.0,0.0,0.0,0.0,0.0,0.0,0.0,0.0,0.0,0.0,0.0,0.0,0.0,0.0,0.0,0.0,0.0,0.0,0.0,0.0,0.0,0.0,0.0,0.0,0.0,0.0,0.0,0.0,0.0,0.5065,0.4205,0.4354,0.5979,0.797,1.0199,1.1992,1.3473,1.4592,0.0,0.0,0.0,0.0,0.0,0.0,0.0,0.0,0.0,0.0,0.0,0.0,0.0,0.0,0.0,0.0,0.0,0.0,0.0,0.0,0.0,0.0,0.0,0.0,0.0,0.0,0.0,0.0,0.0,0.0,0.0,0.0,0.0,0.0,0.0,0.0,0.0,0.0,1.069,1.092,0.0,0.0,0.0,0.0,0.0,0.0,0.0,0.0,1.1838,0.0,0.0,0.0,0.0,0.0,0.0,0.0,0.0,0.0,0.0,0.0,0.0,0.0,0.0,0.0,0.0,0.0,0.0,0.0,0.0,0.0,0.0,0.0,0.0,0.0,0.0,0.0,0.0,0.0,0.0,0.0,0.0,0.0,0.0,0.0,0.0,0.0,0.0,0.0,0.0,0.0,0.0,0.0,0.0,0.0,0.0,0.0,0.0,0.0,0.0,0.0,0.0,0.0,0.0,0.0,0.0,0.4973,0.4624,0.3828,0.2566,0.386,0.5711,0.8129,0.992,1.157,1.2973,0.0,0.0,0.0,0.0,0.0,0.0,0.0,0.0,0.0,0.0,0.0,0.0,0.0,0.0,0.0,0.0,0.0,0.0,0.0,0.0,0.0,0.0,0.0,0.0,0.0,0.0,0.0,0.0,0.0,0.0,0.0,0.0,0.0,0.0,0.0,0.0,0.0,0.0,0.0,1.0871,1.1132,0.0,0.0,0.0,0.0,0.0,0.0,0.0,0.0,1.107,0.0,0.0,0.0,0.0,0.0,0.0,0.0,0.0,0.0,0.0,0.0,0.0,0.0,0.0,0.0,0.0,0.0,0.0,0.0,0.0,0.0,0.0,0.0,0.0,0.0,0.0,0.0,0.0,0.0,0.0,0.0,0.0,0.0,0.0,0.0,0.0,0.0,0.0,0.0,0.0,0.0,0.0,0.0,0.0,0.0,0.0,0.0,0.0,0.0,0.0,0.0,0.0,0.0,0.0,0.0,0.4012,0.2221,0.1184,0.0998,0.2143,0.3842,0.6065,0.7794,0.9419,0.0,0.0,0.0,0.0,0.0,0.0,0.0,0.0,0.0,0.0,0.0,0.0,0.0,0.0,0.0,0.0,0.0,0.0,0.0,0.0,0.0,0.0,0.0,0.0,0.0,0.0,0.0,0.0,0.0,0.0,0.0,0.0,0.0,0.0,0.0,0.0,0.0,0.0,0.0,0.0,1.0928,1.1022,1.0627,0.0,0.0,0.0,0.0,0.0,0.0,1.1396,1.1211,0.0,0.0,0.0,0.0,0.0,0.0,0.0,0.0,0.0,0.0,0.0,0.0,0.0,0.0,0.0,0.0,0.0,0.0,0.0,0.0,0.0,0.0,0.0,0.0,0.0,0.0,0.0,0.0,0.0,0.0,0.0,0.0,0.0,0.0,0.0,0.0,0.0,0.0,0.0,0.0,0.0,0.0,0.0,0.0,0.0,0.0,0.0,0.0,0.0,0.0,0.0,0.0,0.0,0.0,0.0,0.3109,0.0033,-0.1273,-0.0603,0.054,0.2101,0.4054,0.5998,0.7706,0.0,0.0,0.0,0.0,0.0,0.0,0.0,0.0,0.0,0.0,0.0,0.0,0.0,0.0,0.0,0.0,0.0,0.0,0.0,0.0,0.0,0.0,0.0,0.0,0.0,0.0,0.0,0.0,0.0,0.0,0.0,0.0,0.0,0.0,0.0,0.0,0.0,0.0,0.0,0.0,0.0,1.0677,1.024,1.0622,0.0,0.0,0.0,0.0,1.1609,1.1495,0.0,0.0,0.0,0.0,0.0,0.0,0.0,0.0,0.0,0.0,0.0,0.0,0.0,0.0,0.0,0.0,0.0,0.0,0.0,0.0,0.0,0.0,0.0,0.0,0.0,0.0,0.0,0.0,0.0,0.0,0.0,0.0,0.0,0.0,0.0,0.0,0.0,0.0,0.0,0.0,0.0,0.0,0.0,0.0,0.0,0.0,0.0,0.0,0.0,0.0,0.0,0.0,0.0,0.0,0.0,0.0,0.1915,-0.0159,-0.164,-0.2292,-0.104,0.0424,0.2036,0.5026,0.7185,0.0,0.0,0.0,0.0,0.0,0.0,0.0,0.0,0.0,0.0,0.0,0.0,0.0,0.0,0.0,0.0,0.0,0.0,0.0,0.0,0.0,0.0,0.0,0.0,0.0,0.0,0.0,0.0,0.0,0.0,0.0,0.0,0.0,0.0,0.0,0.0,0.0,0.0,0.0,0.0,0.0,1.005,1.0018,1.0177,1.0483,0.0,0.0,1.1621,1.2143,1.1835,0.0,0.0,0.0,0.0,0.0,0.0,0.0,0.0,0.0,0.0,0.0,0.0,0.0,0.0,0.0,0.0,0.0,0.0,0.0,0.0,0.0,0.0,0.0,0.0,0.0,0.0,0.0,0.0,0.0,0.0,0.0,0.0,0.0,0.0,0.0,0.0,0.0,0.0,0.0,0.0,0.0,0.0,0.0,0.0,0.0,0.0,0.0,0.0,0.0,0.0,0.0,0.0,0.0,0.0,0.0,0.2093,0.0974,-0.1523,-0.2925,-0.3069,-0.1943,-0.0425,0.1468,0.3741,0.5684,0.0,0.0,0.0,0.0,0.0,0.0,0.0,0.0,0.0,0.0,0.0,0.0,0.0,0.0,0.0,0.0,0.0,0.0,0.0,0.0,0.0,0.0,0.0,0.0,0.0,0.0,0.0,0.0,0.0,0.0,0.0,0.0,0.0,0.0,0.0,0.0,0.0,0.0,0.0,0.0,0.0,0.0,0.9184,0.9299,0.0,0.0,0.0,1.1013,1.1036,0.0,0.0,0.0,0.0,0.0,0.0,0.0,0.0,0.0,0.0,0.0,0.0,0.0,0.0,0.0,0.0,0.0,0.0,0.0,0.0,0.0,0.0,0.0,0.0,0.0,0.0,0.0,0.0,0.0,0.0,0.0,0.0,0.0,0.0,0.0,0.0,0.0,0.0,0.0,0.0,0.0,0.0,0.0,0.0,0.0,0.0,0.0,0.0,0.0,0.0,0.0,0.0,0.0,0.0,0.0,0.0,0.0,0.0333,-0.2636,-0.3987,-0.355,-0.2584,-0.104,0.108,0.2809,0.0,0.0,0.0,0.0,0.0,0.0,0.0,0.0,0.0,0.0,0.0,0.0,0.0,0.0,0.0,0.0,0.0,0.0,0.0,0.0,0.0,0.0,0.0,0.0,0.0,0.0,0.0,0.8603,0.0,0.0,0.0,0.0,0.0,0.0,0.0,0.0,0.0,0.0,0.0,0.0,0.0,0.0,0.8659,0.8551,0.8409,0.8181,0.0,0.0,0.9931,0.9713,1.0912,1.1548,0.0,0.0,0.0,0.0,0.0,0.0,0.0,0.0,0.0,0.0,0.0,0.0,0.0,0.0,0.0,0.0,0.0,0.0,0.0,0.0,0.0,0.0,0.0,0.0,0.0,0.0,0.0,0.0,0.0,0.0,0.0,0.0,0.0,0.0,0.0,0.0,0.0,0.0,0.0,0.0,0.0,0.0,0.0,0.0,0.0,0.0,0.0,0.0,0.0,0.0,0.0,0.0,0.0,0.0,0.0,-0.0061,-0.2876,-0.4281,-0.4021,-0.3012,-0.1567,0.0327,0.255,0.455,0.0,0.0,0.0,0.0,0.0,0.0,0.0,0.0,0.0,0.0,0.0,0.0,0.0,0.0,0.0,0.0,0.0,0.0,0.0,0.0,0.0,0.0,0.0,0.0,0.0,0.0,0.0,0.0,0.0,0.0,0.0,0.0,0.0,0.0,0.0,0.0,0.0,0.0,0.0,0.0,0.0,0.7665,0.8567,0.7674,0.7041,0.0,0.8011,0.846,0.8495,0.9646,1.0113,0.8865,0.0,0.0,0.0,0.0,0.0,0.0,0.0,0.0,0.0,0.0,0.0,0.0,0.0,0.0,0.0,0.0,0.0,0.0,0.0,0.0,0.0,0.0,0.0,0.0,0.0,0.0,0.0,0.0,0.0,0.0,0.0,0.0,0.0,0.0,0.0,0.0,0.0,0.0,0.0,0.0,0.0,0.0,0.0,0.0,0.0,0.0,0.0,0.0,0.0,0.0,0.0,0.0,0.0,0.0053,-0.0455,-0.3291,-0.4733,-0.4611,-0.3483,-0.2193,-0.078,0.164,0.3749,0.0,0.0,0.0,0.0,0.0,0.0,0.0,0.0,0.0,0.0,0.0,0.0,0.0,0.0,0.0,0.0,0.0,0.0,0.0,0.0,0.0,0.0,0.0,0.0,0.0,0.0,0.0,0.0,0.6559,0.6644,0.7108,0.0,0.0,0.0,0.0,0.0,0.0,0.0,0.0,0.0,0.0,0.653,0.6546,0.588,0.0,0.0,0.5914,0.6551,0.6506,0.7954,0.8845,0.8121,0.8305,0.0,0.0,0.0,0.0,0.0,0.0,0.0,0.0,0.0,0.0,0.0,0.0,0.0,0.0,0.0,0.0,0.0,0.0,0.0,0.0,0.0,0.0,0.0,0.0,0.0,0.0,0.0,0.0,0.0,0.0,0.0,0.0,0.0,0.0,0.0,0.0,0.0,0.0,0.0,0.0,0.0,0.0,0.0,0.0,0.0,0.0,0.0,0.0,0.0,0.0,0.0,0.0,-0.0431,-0.0975,-0.3641,-0.4958,-0.4815,-0.3915,-0.2706,-0.1243,0.0673,0.2517,0.0,0.0,0.0,0.0,0.0,0.0,0.0,0.0,0.0,0.0,0.0,0.0,0.0,0.0,0.0,0.0,0.0,0.0,0.0,0.0,0.0,0.0,0.0,0.0,0.0,0.0,0.0,0.0,0.5999,0.6179,0.6692,0.0,0.0,0.0,0.0,0.0,0.0,0.0,0.0,0.0,0.0,0.5499,0.5219,0.4587,0.4042,0.3609,0.4265,0.4859,0.4995,0.6325,0.7295,0.7118,0.0,0.0,0.0,0.0,0.0,0.0,0.0,0.0,0.0,0.0,0.0,0.0,0.0,0.0,0.0,0.0,0.0,0.0,0.0,0.0,0.0,0.0,0.0,0.0,0.0,0.0,0.0,0.2024,0.0,0.0,0.2383,0.0,0.0,0.0,0.0,0.0,0.0,0.0,0.0,0.0,0.0,0.0,0.0,0.0,0.0,0.0,0.0,0.0,0.0,0.0,0.0,0.0,0.0,-0.0831,-0.159,-0.3822,-0.481,-0.4455,-0.4187,-0.3053,-0.0983,-0.0368,0.094,0.3187,0.0,0.0,0.0,0.0,0.0,0.0,0.0,0.0,0.0,0.0,0.0,0.0,0.0,0.0,0.0,0.0,0.0,0.0,0.0,0.0,0.0,0.0,0.0,0.0,0.0,0.0,0.7041,0.6976,0.6818,0.0,0.0,0.0,0.0,0.0,0.0,0.0,0.0,0.0,0.0,0.5292,0.4618,0.5081,0.4172,0.3386,0.3342,0.3345,0.36,0.4285,0.4904,0.5389,0.0,0.0,0.0,0.0,0.0,0.0,0.0,0.0,0.0,0.0,0.0,0.0,0.0,0.0,0.0,0.0,0.0,0.0,0.0,0.0,0.0,0.0,0.0,0.0,0.0,0.0,0.0,0.1273,0.1264,0.0,0.0,0.0,0.0,0.0,0.0,0.0,0.0,0.0,0.0,0.0,-0.1351,-0.1233,0.0,0.0,0.0,0.0,0.0,0.0,0.0,0.0,0.0,0.0,0.0,0.0,-0.109,-0.1739,-0.3918,-0.5,-0.4813,-0.4462,-0.3818,-0.282,-0.1262,0.0761,0.3166,0.0,0.0,0.0,0.0,0.0,0.0,0.0,0.0,0.0,0.0,0.0,0.0,0.0,0.0,0.0,0.0,0.0,0.0,0.0,0.0,0.0,0.0,0.0,0.0,0.0,0.6159,0.0,0.0,0.0,0.0,0.0,0.0,0.0,0.0,0.0,0.0,0.0,0.4582,0.4216,0.3765,0.3449,0.3361,0.2916,0.2319,0.0,0.0,0.0,0.0,0.0,0.0,0.0,0.0,0.0,0.0,0.0,0.0,0.0,0.0,0.5623,0.6185,0.7303,0.8204,0.8293,0.0,0.0,0.0,0.0,0.0,0.0,0.0,0.0,0.0,0.0,0.0,0.0,0.0,0.0,-0.0458,-0.0531,-0.0262,0.0,0.0,0.0,0.0,0.0,0.0,0.0,0.0,-0.2932,-0.328,-0.3244,-0.2766,-0.2948,0.0,-0.298,-0.1683,0.0,0.0,0.0,0.0,0.0,0.0,0.0,0.0,-0.1433,-0.196,-0.4291,-0.5494,-0.5431,-0.5473,-0.5038,-0.41,-0.1901,0.0313,0.2403,0.2907,0.3681,0.0,0.0,0.0,0.0,0.0,0.0,0.0,0.0,0.0,0.0,0.0,0.0,0.0,0.0,0.0,0.0,0.0,0.0,0.0,0.0,0.0,0.0,0.0,0.5673,0.0,0.0,0.0,0.0,0.0,0.0,0.0,0.0,0.0,0.5448,0.4435,0.3513,0.3066,0.2765,0.2595,0.2639,0.0,0.0,0.0,0.0,0.0,0.0,0.0,0.4772,0.5443,0.5411,0.5161,0.4643,0.4041,0.3491,0.3098,0.0,0.0,0.4994,0.605,0.6814,0.7048,0.7007,0.6971,0.7082,0.7097,0.702,0.0,0.0,0.0,0.0,0.0,0.0,0.0,0.0,-0.2558,-0.2989,0.0,-0.2525,0.0,0.0,0.0,0.0,-0.1424,-0.2976,0.0,0.0,-0.5539,-0.5973,-0.5655,-0.4508,-0.4426,-0.5234,-0.4147,-0.3861,-0.4224,-0.2756,0.0,0.0,0.0,0.0,0.0,0.0,-0.184,-0.2357,-0.5015,-0.6328,-0.6237,-0.7015,-0.6588,-0.4714,-0.2309,-0.0461,0.0808,0.1741,0.2441,0.2871,0.4379,0.0,0.0,0.0,0.0,0.0,0.0,0.0,0.0,0.0,0.0,0.0,0.0,0.0,0.0,0.0,0.0,0.0,0.0,0.0,0.0,0.4978,0.0,0.0,0.0,0.0,0.0,0.0,0.0,0.0,0.0,0.0,0.5302,0.3748,0.2659,0.3011,0.0,0.0,0.0,0.0,0.3448,0.4208,0.4354,0.4534,0.5117,0.4273,0.374,0.4424,0.0,0.0,0.2482,0.2994,0.3204,0.2432,0.18,0.1987,0.4134,0.5029,0.5687,0.6085,0.5895,0.5986,0.6258,0.61,0.6137,-0.4526,0.0,0.0,0.0,0.0,-0.2175,-0.2717,-0.36,-0.3886,-0.4297,-0.4723,-0.4504,0.0,0.0,0.0,0.0,0.0,0.0,-0.4414,-0.4648,-0.5465,-0.5797,-0.5705,-0.5225,-0.5416,-0.6192,-0.5594,-0.5657,-0.6275,-0.5247,-0.3371,-0.0877,0.0,0.0,0.0,0.0,-0.3142,-0.3885,-0.5791,-0.674,-0.6703,-0.6938,-0.6304,-0.476,-0.2994,-0.1576,-0.0485,0.0361,0.1186,0.2001,0.2631,0.0,0.0,0.0,0.0,0.0,0.0,0.0,0.0,0.0,0.0,0.0,0.0,0.0,0.0,0.0,0.0,0.0,0.0,0.0,0.4873,0.4368,0.4521,0.0,0.0,0.0,0.0,0.0,0.0,0.0,0.0,0.0,0.3956,0.3551,0.3303,0.0,0.0,0.3125,0.3782,0.3258,0.2707,0.2529,0.2784,0.0,0.3103,0.3358,0.3896,0.4768,0.415,0.3469,0.3264,0.2902,0.2525,0.2144,0.1495,0.1248,0.179,0.1967,0.2038,0.2145,0.2208,0.2446,0.3067,0.3321,0.3633,-0.7305,-0.4949,-0.4045,-0.364,-0.3642,-0.3642,-0.4358,-0.5491,-0.5874,-0.6461,-0.7162,-0.6786,-0.6352,-0.5813,-0.4384,0.0,0.0,0.0,-0.5527,-0.597,-0.6169,-0.6317,-0.6405,-0.5789,-0.5993,-0.685,-0.6478,-0.6723,-0.7453,-0.6327,-0.4955,-0.3217,0.0,0.0,-0.1762,-0.3257,-0.4466,-0.539,-0.6851,-0.7581,-0.7504,-0.7088,-0.6273,-0.496,-0.3362,-0.201,-0.0997,-0.041,0.0295,0.1067,0.14,0.207,0.0,0.0,0.0,0.0,0.0,0.0,0.0,0.0,0.0,0.0,0.0,0.4952,0.5385,0.0,0.0,0.0,0.3794,0.3847,0.3901,0.3939,0.0,0.0,0.0,0.0,0.0,0.0,0.0,0.3828,0.3127,0.2743,0.32,0.3451,0.3401,0.2933,0.2654,0.2778,0.3507,0.0,0.2613,0.2584,0.2812,0.2959,0.2913,0.3128,0.3542,0.3987,0.3593,0.3236,0.3132,0.2911,0.259,0.2064,0.1428,0.0755,-0.0042,-0.08,-0.1116,-0.0539,-0.0229,0.0114,0.0569,0.1395,0.2251,-0.9708,-0.8597,-0.6215,-0.5198,-0.5162,-0.5086,-0.6028,-0.7593,-0.8233,-0.9133,-1.0104,-0.9231,-0.8402,-0.7512,-0.5351,0.0,-0.5418,-0.617,-0.6993,-0.7889,-0.7414,-0.7286,-0.7476,-0.631,-0.6251,-0.7182,-0.6893,-0.7068,-0.763,-0.6384,-0.5967,-0.6227,-0.4489,-0.3642,-0.3744,-0.467,-0.571,-0.6705,-0.7965,-0.8558,-0.8493,-0.7414,-0.6423,-0.5428,-0.3579,-0.2123,-0.1163,-0.0779,-0.0409,0.0,0.0469,0.1032,0.1695,0.0,0.0,0.0,0.0,0.0,0.0,0.0,0.0,0.0,0.0,0.0,0.0,0.0,0.0,0.0,0.2346,0.0,0.2037,0.3443,0.0,0.0,0.0,0.3512,0.1857,0.1182,0.1119,0.1788,0.0,0.0,0.2778,0.3302,0.3073,0.1597,0.1448,0.1799,0.2672,0.2709,0.2862,0.3519,0.3675,0.3644,0.3407,0.3128,0.2814,0.2608,0.2289,0.2354,0.2576,0.3002,0.3065,0.2296,0.1518,0.0463,-0.1472,-0.2986,-0.3789,-0.239,-0.185,-0.1495,-0.121,0.0159,0.1528,-1.094,-0.9789,-0.8506,-0.7727,-0.7323,-0.7335,-0.8305,-0.9883,-1.0084,-1.0568,-1.1209,-1.0841,-0.9771,-0.8165,-0.7209,-0.6495,-0.613,-0.7165,-0.7456,-0.7248,-0.7489,-0.7455,-0.7133,-0.6445,-0.6209,-0.6354,-0.6177,-0.6129,-0.6213,-0.5904,-0.5622,-0.5465,-0.4851,-0.4561,-0.4597,-0.5395,-0.6177,-0.6996,-0.7624,-0.8341,-0.9089,-0.769,-0.6725,-0.6368,-0.4377,-0.3154,-0.2824,-0.1994,-0.1515,-0.1395,-0.1066,-0.0343,0.0743,0.1832,0.0,0.0,0.0,0.0,0.0,0.0,0.0,0.0,0.0,0.3972,0.4805,0.0,0.3735,0.0,0.1638,0.0655,0.0605,0.1049,0.0,0.0,0.1734,0.1607,0.0666,-0.0515,-0.0759,0.0569,0.0554,0.0694,0.139,0.2295,0.2529,0.1548,0.2258,0.3028,0.3383,0.2862,0.2534,0.2651,0.2376,0.1998,0.2081,0.206,0.2126,0.1971,0.211,0.2462,0.3157,0.329,0.3195,0.2873,0.1629,0.0,-0.1757,-0.3955,-0.5537,-0.5697,-0.4984,-0.3814,-0.2487,-0.1467,-0.0321,-1.1882,-1.1161,-1.015,-0.9318,-0.87,-0.8542,-0.9473,-1.1138,-1.1283,-1.1702,-1.22,-1.1149,-1.0065,-0.8956,-0.7901,-0.7149,-0.6851,-0.7353,-0.7452,-0.7184,-0.7372,-0.7232,-0.6916,-0.6545,-0.6273,-0.6116,-0.6048,-0.5923,-0.5814,-0.5902,-0.6207,-0.6644,-0.6682,-0.6728,-0.6824,-0.6201,-0.6328,-0.7223,-0.7863,-0.8637,-0.9449,-0.7964,-0.6815,-0.605,-0.4082,-0.2687,-0.2099,-0.1412,-0.0952,-0.0705,-0.0728,-0.0259,0.0816,0.1526,0.2291,0.0,0.0,0.0,0.0,0.0,0.0,0.0,0.0,0.0,0.0,0.0,0.2416,0.2362,0.1164,0.0454,0.0576,0.0651,0.0554,0.0106,0.0036,-0.0412,-0.1523,-0.2431,-0.2501,-0.135,-0.1308,-0.0949,0.0086,0.0925,0.139,0.1271,0.2008,0.2571,0.2633,0.2257,0.1945,0.1947,0.1634,0.157,0.1973,0.2552,0.2776,0.251,0.2466,0.2599,0.2777,0.2957,0.2957,0.242,0.1297,-0.0312,-0.2362,-0.4548,-0.6378,-0.7339,-0.7227,-0.6184,-0.4671,-0.3039,-0.1228,-1.2656,-1.2429,-1.1368,-1.0503,-0.9802,-0.9512,-1.0109,-1.1367,-1.1625,-1.2126,-1.2657,-1.0796,-0.9974,-0.9827,-0.7964,-0.7268,-0.7573,-0.7261,-0.7233,-0.7424,-0.7181,-0.7018,-0.6913,-0.6673,-0.6431,-0.6181,-0.615,-0.6045,-0.5928,-0.6296,-0.7118,-0.8257,-0.8682,-0.8909,-0.8976,-0.6965,-0.6405,-0.7402,-0.8312,-0.9026,-0.9493,-0.7886,-0.644,-0.5092,-0.3218,-0.1687,-0.0663,-0.0279,0.0103,0.0539,0.0202,0.0332,0.1037,0.1448,0.1785,0.0,0.2716,0.0,0.0,0.0,0.0,0.0,0.0,0.0,0.0,0.0671,0.0727,0.0881,0.0756,0.0604,0.0499,0.0557,0.0,-0.1452,-0.1748,-0.2367,-0.3734,-0.413,-0.397,-0.3311,-0.3058,-0.242,-0.1169,-0.0503,0.0185,0.0788,0.125,0.1558,0.145,0.1481,0.1431,0.1391,0.148,0.1883,0.2642,0.3534,0.389,0.3314,0.2956,0.2688,0.2286,0.2599,0.2644,0.1792,0.0984,-0.0535,-0.3115,-0.4945,-0.6647,-0.8208,-0.846,-0.8003,-0.6698,-0.4429,-0.2129,-1.3376,-1.2487,-1.225,-1.1925,-1.1631,-1.1734,-1.0895,-0.9469,-0.9714,-1.029,-1.0937,-1.0409,-1.037,-1.055,-0.8251,-0.7702,-0.8478,-0.7609,-0.7396,-0.7723,-0.7564,-0.754,-0.7571,-0.7099,-0.6804,-0.6661,-0.6376,-0.617,-0.6051,-0.6985,-0.7392,-0.7311,-0.8021,-0.823,-0.7897,0.0,0.0,0.0,-0.8186,-0.8547,-0.8414,-0.6027,-0.449,-0.3914,-0.2742,0.0,-0.1628,-0.1014,-0.0607,-0.0503,-0.0168,0.0,0.0,0.0,0.0,0.0,0.0,0.0,0.0,0.0,0.0,0.0,-0.108,-0.0381,0.0061,0.0913,0.1044,0.0073,-0.0075,-0.1012,-0.3192,-0.2862,-0.2959,-0.3948,-0.3707,-0.3646,-0.4081,-0.4214,-0.4184,-0.4096,-0.353,-0.3022,-0.2521,-0.143,-0.0419,0.0094,0.0758,0.1231,0.1462,0.1421,0.1393,0.1436,0.1882,0.233,0.2552,0.3266,0.389,0.3491,0.2955,0.2865,0.3269,0.3045,0.2867,0.2464,0.1251,-0.0713,-0.3161,-0.5082,-0.6741,-0.83,-0.8568,-0.8288,-0.723,-0.58,-0.4118,-1.4252,-1.3582,-1.3582,-1.2942,0.0,-1.2259,-1.1194,-0.941,-1.1063,-1.1904,-1.2093,-1.1288,-1.1127,-1.1351,-0.8791,-0.7975,-0.8487,-0.7287,-0.6997,-0.7422,-0.7358,-0.7476,-0.7681,-0.7288,-0.7009,-0.68,-0.6519,-0.629,-0.6274,-0.7362,-0.7773,-0.7468,-0.8752,-0.93,-0.9059,-0.9192,-0.8963,-0.8381,-0.8736,-0.9082,-0.9285,-0.7327,-0.5775,-0.4863,-0.3601,0.0,0.0,0.0,0.0,0.0,0.0,0.0,0.0,0.0,0.0,-0.0637,-0.0391,-0.0708,-0.1692,-0.1825,-0.2311,-0.3387,-0.2794,-0.1913,-0.0839,0.0107,0.0,-0.1443,-0.104,-0.1556,-0.3682,-0.3775,-0.3842,-0.4272,-0.422,-0.4146,-0.424,-0.4273,-0.4316,-0.4314,-0.405,-0.3667,-0.3272,-0.2129,-0.1098,-0.0482,0.0483,0.1209,0.135,0.1403,0.1408,0.1438,0.2464,0.3179,0.3312,0.4245,0.4741,0.4383,0.3981,0.358,0.3267,0.2956,0.2464,0.1613,0.0268,-0.1383,-0.3299,-0.4954,-0.6346,-0.7628,-0.8072,-0.8076,-0.7716,-0.6502,-0.4901,-1.498,-1.4793,-1.4787,-1.3808,-1.2321,-1.2659,-1.1957,-1.0821,-1.2954,0.0,0.0,-1.2194,-1.1807,-1.1779,-0.9494,-0.8597,-0.8787,-0.7548,-0.7126,-0.7469,-0.7479,-0.7563,-0.7637,-0.7391,-0.7138,-0.6892,-0.6589,-0.644,-0.635,-0.7557,-0.8103,-0.8132,-0.9747,-1.064,-1.0751,-1.1118,-1.0767,-0.9688,-0.9461,-0.9662,-1.0218,-0.8657,-0.7183,-0.5879,-0.4364,-0.3135,-0.2242,-0.1823,-0.1341,-0.0679,-0.0943,-0.087,-0.0427,-0.1009,-0.1334,-0.1277,-0.1234,-0.1796,-0.3041,-0.3115,-0.3549,-0.4614,-0.4058,-0.3081,-0.1727,-0.1088,-0.1324,-0.2833,-0.1882,-0.1903,-0.3567,-0.3802,-0.3976,-0.415,-0.4257,-0.4297,-0.43,-0.4361,-0.4447,-0.4466,-0.4539,-0.4305,-0.3623,-0.2663,-0.1718,-0.0837,0.0247,0.1083,0.1125,0.1285,0.1389,0.1416,0.2414,0.3445,0.3938,0.4892,0.5737,0.5262,0.4923,0.4273,0.315,0.2515,0.1703,0.0403,-0.0761,-0.1967,-0.3528,-0.4739,-0.5858,-0.7221,-0.7533,-0.7665,-0.7984,-0.6827,-0.5191,-1.5089,-1.5052,-1.5052,-1.4885,-1.4627,-1.4683,-1.4586,-1.4202,-1.2867,-1.1629,-1.0674,-1.1594,-1.1851,-1.1585,-1.0285,-1.0263,-1.1057,-0.9979,-0.9272,-0.8927,-0.8927,-0.8588,-0.7939,-0.7643,-0.7394,-0.7138,-0.6842,-0.6634,-0.6515,-0.7496,-0.8063,-0.8265,-0.9888,-1.102,-1.1486,-1.138,-1.1187,-1.0984,-0.9785,-0.9105,-0.9012,-0.6637,-0.5224,-0.4809,-0.3522,-0.2723,-0.2534,-0.2064,-0.1745,-0.1616,-0.1286,-0.1459,-0.2239,-0.2314,-0.2636,-0.3352,-0.3368,-0.3683,-0.439,-0.4365,-0.4341,-0.4256,-0.4012,-0.348,-0.2597,-0.1907,-0.1848,-0.2573,-0.2285,-0.2874,-0.478,-0.436,-0.4235,-0.4947,-0.4645,-0.43,-0.4306,-0.4555,-0.4704,-0.4728,-0.5069,-0.4821,-0.389,-0.3082,-0.2121,-0.1,0.0,0.06,0.0837,0.1012,0.114,0.1183,0.1653,0.2454,0.3287,0.4145,0.5022,0.5894,0.4827,0.4043,0.3631,0.2546,0.1352,0.0135,-0.0809,-0.2015,-0.3578,-0.4694,-0.5764,-0.7048,-0.7312,-0.7401,-0.7363,-0.6384,-0.5489,-1.5451,-1.5324,-1.5324,-1.524,-1.5113,-1.5113,-1.5113,-1.502,-1.4091,-1.2985,-1.204,-1.2996,-1.2867,-1.187,-1.0754,-1.0362,-1.0487,-0.8926,-0.8219,-0.8233,-0.8193,-0.8142,-0.7978,-0.7743,-0.7543,-0.7394,-0.6995,-0.6745,-0.6689,-0.758,-0.7839,-0.7776,-0.9485,-1.0674,-1.1217,-1.16,-1.1671,-1.1498,-1.0735,-1.0185,-0.9971,-0.8461,-0.7476,-0.7109,-0.5778,-0.4964,-0.4763,-0.4053,-0.3476,-0.3072,-0.3074,-0.314,-0.3297,-0.3538,-0.3878,-0.4283,-0.4205,-0.4235,-0.4515,-0.4163,-0.3901,-0.3821,-0.3486,-0.3183,-0.2828,-0.2154,-0.2019,-0.2775,-0.2586,-0.2971,-0.4431,-0.4304,-0.4302,-0.4746,-0.4521,-0.4371,-0.4383,-0.4547,-0.4718,-0.4767,-0.5049,-0.4821,-0.3823,-0.3181,-0.2341,-0.1158,-0.0202,0.0453,0.0748,0.0742,0.0732,0.091,0.1381,0.1951,0.2522,0.3708,0.4608,0.5178,0.4765,0.427,0.3894,0.2745,0.1344,-0.0416,-0.1148,-0.2094,-0.3774,-0.4461,-0.5243,-0.5988,-0.6343,-0.6387,-0.6473,-0.5897,-0.4736,-1.5777,-1.559,-1.5584,-1.5469,-1.5288,-1.5282,-1.5288,-1.5282,-1.4974,-1.4241,-1.3381,-1.3969,-1.3351,-1.162,-1.0863,-1.0339,-0.9769,-0.829,-0.7688,-0.7823,-0.7816,-0.7849,-0.7961,-0.7793,-0.7646,-0.7547,-0.7147,-0.6895,-0.6895,-0.7431,-0.768,-0.7667,-0.9187,-1.0319,-1.0961,-1.1702,-1.2002,-1.1779,-1.1498,-1.1299,-1.1135,-1.04,-0.9812,-0.9416,-0.8188,-0.7234,-0.673,-0.6019,-0.5285,-0.4536,-0.4748,-0.4655,-0.4246,-0.4624,-0.4829,-0.4787,-0.4576,-0.4406,-0.4281,-0.3798,-0.3496,-0.3556,-0.3246,-0.3021,-0.3018,-0.2493,-0.2417,-0.3025,-0.2884,-0.3044,-0.3855,-0.4123,-0.4255,-0.4306,-0.4381,-0.4382,-0.4396,-0.4581,-0.4722,-0.4793,-0.4867,-0.4559,-0.3612,-0.2922,-0.2065,-0.1008,-0.0202,0.0353,0.0556,0.0404,0.0398,0.0586,0.1013,0.145,0.1737,0.2799,0.3764,0.4094,0.4223,0.3929,0.3397,0.2819,0.1427,-0.0758,-0.1408,-0.228,-0.39,-0.4395,-0.4705,-0.5415,-0.5576,-0.5591,-0.5808,-0.5095,-0.3846,-1.5867,-1.5855,-1.5843,-1.5849,-1.5801,-1.5801,-1.5795,-1.5689,-1.4742,-1.3611,-1.2627,-1.2956,-1.1953,-1.018,-1.0523,-1.0723,-1.0578,-1.0397,-0.9755,-0.9176,-0.9069,-0.8685,-0.8035,-0.7988,-0.7842,-0.7646,-0.7543,-0.7244,-0.6845,-0.6895,-0.7391,-0.8312,-0.9429,-1.0391,-1.1156,-1.1786,-1.2089,-1.2062,-1.1779,-1.1666,-1.1577,-1.0741,-1.0239,-1.018,-0.9246,-0.8177,-0.7119,-0.6987,-0.6492,-0.5632,-0.5453,-0.54,-0.5336,-0.5344,-0.5246,-0.5079,-0.4831,-0.4492,-0.4084,-0.3896,-0.3772,-0.3789,-0.3643,-0.3582,-0.3593,-0.3541,-0.3466,-0.3509,-0.327,-0.3449,-0.4121,-0.4082,-0.4086,-0.4273,-0.4395,-0.439,-0.4467,-0.4778,-0.5034,-0.5043,-0.4722,-0.4069,-0.307,-0.2217,-0.1311,0.0,0.0,0.0,0.0,0.0,0.0,0.0,0.0,0.0601,0.135,0.1704,0.2444,0.3093,0.2962,0.2791,0.2633,0.2077,0.0906,-0.0866,-0.1477,-0.223,-0.3782,-0.4489,-0.4654,-0.5093,-0.5272,-0.524,-0.483,-0.4071,-0.3136,-1.5885,-1.5885,-1.5885,-1.5885,-1.5885,-1.5885,-1.5885,-1.5779,-1.4702,-1.3511,-1.2398,-1.1854,-1.0982,-0.9887,-1.0416,-1.0464,-1.0096,-0.9508,-0.9078,-0.8758,-0.8557,-0.8336,-0.8038,-0.7988,-0.7939,-0.7842,-0.7693,-0.7497,-0.7294,-0.7297,-0.7494,-0.8035,-0.9441,-1.0383,-1.081,-1.1939,-1.2456,-1.2264,-1.2172,-1.2054,-1.1863,-1.122,-1.0825,-1.0637,-0.9915,-0.8946,-0.7863,-0.736,-0.67,-0.5774,-0.564,-0.5615,-0.5615,-0.561,-0.554,-0.5453,-0.5101,-0.4756,-0.4454,-0.4054,-0.3851,-0.3853,-0.3731,-0.3651,-0.3694,-0.366,-0.3697,-0.3885,-0.373,-0.3765,-0.4041,-0.4125,-0.4245,-0.4352,-0.4508,-0.4594,-0.46,-0.4801,-0.4928,-0.4883,-0.4462,-0.3728,-0.2671,-0.1412,-0.0555,0.0,0.0,0.0,0.0,0.0,0.0,0.0,0.0,0.0,0.0656,0.1261,0.1815,0.2266,0.2456,0.2444,0.2438,0.2037,0.0888,-0.1181,-0.1462,-0.2276,-0.4263,-0.4534,-0.4657,-0.496,-0.4761,-0.4501,-0.4086,-0.3583,-0.3093,-1.5624,-1.5885,-1.5885,-1.5885,-1.5885,-1.5885,-1.5885,-1.5672,-1.4326,-1.3181,-1.2304,-1.0895,-1.0015,-0.9691,-0.9958,-0.9835,-0.9447,-0.872,-0.8391,-0.8374,-0.8231,-0.8163,-0.816,-0.816,-0.814,-0.8059,-0.7908,-0.7735,-0.7603,-0.7593,-0.7593,-0.7842,-0.9274,-1.0162,-1.0507,-1.178,-1.249,-1.2522,-1.2457,-1.2375,-1.2238,-1.1778,-1.1415,-1.1182,-1.0667,-0.9754,-0.8336,-0.7757,-0.6922,-0.5774,-0.5688,-0.5688,-0.5688,-0.5688,-0.5688,-0.5599,-0.5327,-0.4968,-0.4703,-0.4348,-0.408,-0.3991,-0.3873,-0.3868,-0.3864,-0.3943,-0.4112,-0.4342,-0.436,-0.429,-0.4158,-0.4388,-0.4515,-0.4483,-0.4618,-0.4708,-0.4708,-0.4734,-0.478,-0.4734,-0.4028,-0.3075,-0.1917,0.0,0.0,0.0,0.0,0.0,0.0,0.0,0.0,0.0,0.0,0.0,0.0,0.0555,0.1211,0.1463,0.1612,0.1914,0.2271,0.1716,0.0908,-0.0996,-0.1289,-0.2322,-0.4141,-0.4675,-0.4639,-0.4567,-0.4422,-0.4175,-0.3952,-0.355,-0.3305,-1.4922,-1.5832,-1.5885,-1.5885,-1.5885,-1.5885,-1.5885,-1.5725,-1.3501,-1.2472,-1.2091,-1.0029,-0.8989,-0.8972,-0.9075,-0.8975,-0.8944,-0.8737,-0.8665,-0.8648,-0.8513,-0.8455,-0.8462,-0.8459,-0.8387,-0.8265,-0.8258,-0.8039,-0.7662,-0.7596,-0.7593,-0.7693,-0.8726,-0.9665,-1.0408,-1.1292,-1.2073,-1.2657,-1.2533,-1.2503,-1.2648,-1.2295,-1.1919,-1.167,-1.1599,-1.0514,-0.874,-0.8452,-0.758,-0.578,-0.5691,-0.5688,-0.5691,-0.5688,-0.5644,-0.5463,-0.5371,-0.5193,-0.4795,-0.4661,-0.4525,-0.4352,-0.4322,-0.4336,-0.4356,-0.4629,-0.4823,-0.4953,-0.5135,-0.507,-0.4701,-0.4793,-0.4847,-0.4666,-0.4653,-0.471,-0.4714,-0.474,-0.4778,-0.4582,-0.3527,-0.2169,-0.0505,-0.005,0.0,0.0,0.0,0.0,0.0,0.0,0.0,0.0,0.0,0.0,0.0,0.0,0.0,0.0505,0.0959,0.1061,0.1111,0.0959,0.0,-0.0807,-0.1306,-0.2354,-0.4057,-0.4761,-0.4673,-0.4626,-0.45,-0.4261,-0.3986,-0.3816,-0.3508,-1.5512,-1.5885,-1.5885,-1.5885,-1.5885,-1.5885,-1.5885,-1.5666,-1.3388,-1.2417,-1.1982,-0.9919,-0.8937,-0.8937,-0.8937,-0.8937,-0.8868,-0.8777,-0.8713,-0.8693,-0.8554,-0.8535,-0.8535,-0.8535,-0.8462,-0.8414,-0.8404,-0.8278,-0.8039,-0.7745,-0.7593,-0.7743,-0.8478,-0.9365,-1.0154,-1.1091,-1.198,-1.2705,-1.2721,-1.2613,-1.2572,-1.2375,-1.2172,-1.193,-1.1315,-1.0238,-0.8548,-0.8105,-0.7224,-0.5881,-0.5729,-0.5723,-0.5825,-0.5729,-0.5688,-0.5599,-0.5463,-0.5327,-0.5149,-0.5013,-0.479,-0.4572,-0.46,-0.4684,-0.4767,-0.4833,-0.5023,-0.5361,-0.5603,-0.555,-0.5303,-0.5127,-0.5041,-0.4958,-0.4833,-0.4785,-0.4792,-0.4766,-0.4782,-0.4531,-0.3376,-0.1967,-0.1009,-0.0303,0.0,0.0,0.0,0.0,0.0,0.0,0.0,0.0,0.0,0.0,0.0,0.0,0.0,0.0,0.0606,0.0909,0.1111,0.0757,0.0,-0.0807,-0.1361,-0.2216,-0.3817,-0.4512,-0.4487,-0.4641,-0.4514,-0.4249,-0.3964,-0.3735,-0.341,-1.5885,-1.5885,-1.5885,-1.5885,-1.5885,-1.5885,-1.5885,-1.5618,-1.3447,-1.2417,-1.1928,-0.9915,-0.8937,-0.8937,-0.8937,-0.8937,-0.8871,-0.8777,-0.8784,-0.8777,-0.8679,-0.8628,-0.8628,-0.8628,-0.8601,-0.8554,-0.8503,-0.8411,-0.8275,-0.7965,-0.7795,-0.7796,-0.8283,-0.9072,-1.0105,-1.0895,-1.1731,-1.2565,-1.2807,-1.2732,-1.2639,-1.2575,-1.2267,-1.1755,-1.084,-0.9813,-0.8686,-0.7923,-0.7024,-0.6068,-0.5783,-0.5806,-0.5836,-0.5818,-0.5777,-0.5688,-0.5599,-0.5463,-0.5377,-0.527,-0.511,-0.489,-0.4922,-0.5,-0.5122,-0.5153,-0.5341,-0.5669,-0.5913,-0.596,-0.5849,-0.5572,-0.5387,-0.5243,-0.5049,-0.4935,-0.4935,-0.4832,-0.4634,-0.423,-0.3225,-0.2117,-0.1311,-0.0504,0.0,0.0,0.0,0.0,0.0,0.0,0.0,0.0,0.0,0.0,0.0,0.0,0.0,0.0,0.0707,0.096,0.101,0.0606,0.0101,-0.0756,-0.1562,-0.2367,-0.3172,-0.3927,-0.4303,-0.4461,-0.4354,-0.4044,-0.3796,-0.3548,-0.3328,-1.5885,-1.5885,-1.5885,-1.5885,-1.5885,-1.5885,-1.5885,-1.5506,-1.3393,-1.2417,-1.2091,-0.9919,-0.8937,-0.8937,-0.8937,-0.8937,-0.8878,-0.892,-0.8858,-0.8858,-0.8906,-0.8848,-0.8899,-0.8889,-0.8825,-0.871,-0.856,-0.8425,-0.8364,-0.8231,-0.8099,-0.7972,-0.8062,-0.8897,-1.0364,-1.0556,-1.1296,-1.2467,-1.2807,-1.2851,-1.3044,-1.278,-1.2186,-1.1272,-1.0274,-0.9439,-0.884,-0.7902,-0.6941,-0.6075,-0.5912,-0.585,-0.5837,-0.6034,-0.6011,-0.5838,-0.5744,-0.5649,-0.5481,-0.5521,-0.5479,-0.5271,-0.5305,-0.5355,-0.5443,-0.5653,-0.5812,-0.5958,-0.6174,-0.6334,-0.6282,-0.6126,-0.5874,-0.5632,-0.5336,-0.5188,-0.5138,-0.4935,-0.4533,-0.388,-0.3075,-0.2169,-0.1361,-0.0706,0.0,0.0,0.0,0.0,0.0,0.0,0.0,0.0,0.0,0.0,0.0253,0.0,0.0,0.0505,0.0859,0.1162,0.1111,0.0858,0.0403,-0.0353,-0.0907,-0.1713,-0.2115,-0.2869,-0.3577,-0.3756,-0.3764,-0.3862,-0.3721,-0.3528,-0.3412,-1.5885,-1.5885,-1.5885,-1.5885,-1.5885,-1.5885,-1.5885,-1.5613,-1.3393,-1.2417,-1.1982,-0.9919,-0.8937,-0.8937,-0.8937,-0.8937,-0.8937,-0.8937,-0.8937,-0.8937,-0.8937,-0.8937,-0.8937,-0.8937,-0.8858,-0.8849,-0.8713,-0.8618,-0.8504,-0.8308,-0.7982,-0.7811,-0.8393,-0.9083,-0.992,-1.0748,-1.1785,-1.2662,-1.2807,-1.2861,-1.2813,-1.2111,-1.1531,-1.1036,-0.951,-0.8434,-0.8146,-0.723,-0.6579,-0.6191,-0.6258,-0.6383,-0.649,-0.658,-0.6581,-0.6409,-0.6215,-0.6082,-0.5994,-0.5888,-0.5765,-0.559,-0.5593,-0.5648,-0.5714,-0.5851,-0.6007,-0.6166,-0.6368,-0.6387,-0.6387,-0.6337,-0.6137,-0.5889,-0.5636,-0.5388,-0.524,-0.4985,-0.4836,-0.4686,-0.4033,-0.3225,-0.242,-0.1614,-0.0814,0.0,0.0,0.0,0.0,0.0,0.0,0.0,0.0,0.0154,0.0358,0.0611,0.0762,0.0811,0.1114,0.1263,0.1212,0.106,0.0656,0.0252,-0.0302,-0.0806,-0.1259,-0.1813,-0.2469,-0.3176,-0.3373,-0.3472,-0.3624,-0.3551,-0.3418,-1.5885,-1.5885,-1.5885,-1.5885,-1.5885,-1.5885,-1.5885,-1.5559,-1.3393,-1.2417,-1.1928,-0.9919,-0.8937,-0.8937,-0.8937,-0.8937,-0.8937,-0.9051,-0.9106,-0.9103,-0.9103,-0.9047,-0.8937,-0.8937,-0.8937,-0.8868,-0.8842,-0.8764,-0.8706,-0.8455,-0.8335,-0.8464,-0.89,-0.9629,-1.0401,-1.1178,-1.198,-1.2613,-1.2414,-1.2214,-1.1965,-1.1175,-1.0382,-0.9891,-0.8715,-0.7826,-0.7342,-0.7066,-0.6949,-0.7018,-0.7467,-0.7736,-0.7456,-0.7486,-0.7356,-0.6833,-0.6626,-0.6534,-0.6493,-0.6348,-0.6158,-0.609,-0.5992,-0.5996,-0.6064,-0.608,-0.6218,-0.6371,-0.6387,-0.6387,-0.6387,-0.6387,-0.6337,-0.6192,-0.5887,-0.5636,-0.5388,-0.5186,-0.5186,-0.5142,-0.4661,-0.4067,-0.3461,-0.2309,-0.1497,-0.0784,0.0,0.0,0.0,0.0,0.0,0.0,0.0,0.0313,0.0569,0.0823,0.1125,0.1223,0.1372,0.1418,0.1414,0.1262,0.0908,0.0908,0.0505,0.005,-0.0353,-0.0756,-0.1361,-0.2068,-0.2774,-0.3025,-0.3123,-0.3313,-0.3238,-1.5891,-1.5838,-1.5885,-1.5838,-1.5725,-1.5832,-1.5885,-1.5559,-1.3555,-1.258,-1.1982,-1.0186,-0.9103,-0.8992,-0.9047,-0.9047,-0.9047,-0.9268,-0.9434,-0.9434,-0.943,-0.9323,-0.9047,-0.8937,-0.8937,-0.8878,-0.8871,-0.8804,-0.8754,-0.8676,-0.9016,-0.9332,-0.9515,-1.0213,-1.1281,-1.1668,-1.207,-1.2417,-1.1736,-1.1272,-1.1072,-1.0096,-0.911,-0.8219,-0.7922,-0.7369,-0.6763,-0.7489,-0.8031,-0.8122,-0.9208,-0.9378,-0.8585,-0.8679,-0.8291,-0.7328,-0.7089,-0.6948,-0.6925,-0.6792,-0.6677,-0.6614,-0.6498,-0.6387,-0.6368,-0.6365,-0.6368,-0.6384,-0.6387,-0.6387,-0.6387,-0.6387,-0.6392,-0.64,-0.61,-0.5842,-0.5687,-0.5593,-0.5612,-0.5526,-0.5122,-0.4665,-0.4512,-0.3096,-0.2328,-0.1703,-0.0907,0.0,0.0,0.0,0.0,0.0,0.0,-0.0053,0.0053,-0.0313,0.0052,0.077,0.1023,0.1221,0.1417,0.1364,0.1313,0.1313,0.1212,0.0858,0.0504,0.005,-0.0555,-0.1312,-0.1867,-0.2321,-0.267,-0.2913,-0.316,-1.5405,-1.4761,-1.5565,-1.5405,-1.4869,-1.5517,-1.5885,-1.5725,-1.4374,-1.3344,-1.2526,-1.1223,-1.008,-0.9596,-0.9541,-0.9541,-0.9541,-0.9651,-0.9706,-0.9706,-0.9981,-0.9706,-0.9268,-0.8992,-0.8937,-0.8937,-0.8937,-0.8861,-0.8828,-0.8866,-0.8849,-0.8762,-1.0124,-1.0706,-1.1046,-1.2123,-1.2323,-1.1885,-1.1442,-1.0739,-0.9953,-0.8962,-0.8322,-0.8021,-0.7229,-0.6783,-0.6637,-0.8219,-0.9247,-0.9445,-0.997,-1.0343,-1.0123,-0.9873,-0.9437,-0.8917,-0.8089,-0.7609,-0.7475,-0.7211,-0.6936,-0.6781,-0.6716,-0.6642,-0.6437,-0.6387,-0.6387,-0.6387,-0.6387,-0.6387,-0.6387,-0.6442,-0.6475,-0.6492,-0.6359,-0.611,-0.5917,-0.5809,-0.5807,-0.5975,-0.5898,-0.5634,-0.5071,-0.4353,-0.3533,-0.2756,-0.179,-0.0978,-0.087,0.0,0.0,0.0,-0.0375,-0.0536,-0.0748,-0.122,-0.0999,-0.0052,0.0412,0.0769,0.117,0.1515,0.1515,0.1516,0.1465,0.1161,0.101,0.0707,0.005,-0.0606,-0.1211,-0.1765,-0.227,-0.2619,-0.3022,-1.5244,-1.4272,-1.4922,-1.4809,-1.4326,-1.4917,-1.5458,-1.5618,-1.4708,-1.3948,-1.3181,-1.176,-1.084,-1.0355,-0.9978,-0.9816,-0.9816,-0.9926,-0.9981,-1.0036,-1.0202,-0.9981,-0.9599,-0.9268,-0.9047,-0.8937,-0.8937,-0.8937,-0.8878,-0.8937,-0.9161,-0.983,-1.0663,-1.1415,-1.2087,-1.2147,-1.2243,-1.1489,-1.0615,-0.9614,-0.8968,-0.7902,-0.7378,-0.7229,-0.6734,-0.6684,-0.7773,-0.9402,-1.0534,-1.1063,-1.1512,-1.176,-1.1848,-1.1121,-1.0485,-0.9942,-0.8781,-0.8101,-0.8004,-0.7612,-0.7257,-0.7123,-0.6945,-0.6745,-0.6589,-0.6489,-0.6387,-0.6387,-0.6387,-0.6387,-0.6495,-0.6877,-0.7274,-0.748,-0.7241,-0.6896,-0.6438,-0.6298,-0.6276,-0.6464,-0.6532,-0.6501,-0.5964,-0.5295,-0.458,-0.3794,-0.2704,-0.2153,-0.1825,-0.1059,-0.0503,-0.066,-0.0764,-0.0873,-0.1143,-0.1567,-0.1663,-0.0794,0.0209,0.0467,0.1076,0.1624,0.1618,0.1618,0.1567,0.1516,0.1364,0.1162,0.0758,0.0101,-0.0605,-0.1261,-0.1765,-0.2321,-0.2725,-1.5244,-1.4223,-1.4326,-1.4277,-1.4223,-1.4326,-1.5078,-1.5565,-1.4917,-1.4385,-1.384,-1.2309,-1.171,-1.1273,-1.0629,-1.0088,-1.0147,-1.0308,-1.0312,-1.0366,-1.0366,-1.0198,-0.9871,-0.9489,-0.9158,-0.8937,-0.8937,-0.8937,-0.8937,-0.8937,-0.9706,-1.053,-1.0998,-1.2007,-1.2587,-1.2315,-1.1803,-1.1234,-0.963,-0.8579,-0.8092,-0.7193,-0.6681,-0.6676,-0.6839,-0.7773,-0.9304,-1.0685,-1.1653,-1.2989,-1.3414,-1.3511,-1.344,-1.2425,-1.1361,-1.028,-0.9292,-0.8513,-0.8375,-0.7965,-0.7637,-0.7497,-0.7095,-0.6845,-0.6745,-0.6592,-0.6498,-0.6427,-0.6408,-0.6433,-0.667,-0.7594,-0.8223,-0.8399,-0.8535,-0.823,-0.7305,-0.6881,-0.6823,-0.6831,-0.6931,-0.6989,-0.6699,-0.5976,-0.5083,-0.4939,-0.3896,-0.3117,-0.2506,-0.1676,-0.1232,-0.1117,-0.1169,-0.117,-0.1552,-0.1927,-0.1857,-0.146,-0.016,0.0579,0.1242,0.1639,0.1626,0.1619,0.1618,0.1566,0.1566,0.1313,0.1111,0.0808,0.0151,-0.0555,-0.1261,-0.1866,-0.2371,-1.5244,-1.4277,-1.5137,-1.503,-1.4433,-1.5137,-1.5678,-1.5838,-1.5618,-1.5083,-1.4493,-1.3948,-1.3403,-1.2748,-1.1828,-1.1509,-1.1291,-1.0907,-1.0637,-1.0637,-1.0637,-1.0472,-1.0147,-0.9706,-0.9268,-0.8992,-0.8937,-0.8937,-0.8937,-0.9099,-0.9099,-0.9746,-1.1243,-1.1715,-1.2107,-1.2365,-1.1838,-1.0957,-0.9444,-0.8219,-0.7516,-0.6953,-0.6575,-0.6664,-0.729,-0.8718,-1.0386,-1.1077,-1.2474,-1.431,-1.4704,-1.4519,-1.4459,-1.3488,-1.2382,-1.1282,-0.9916,-0.8931,-0.8676,-0.8382,-0.8041,-0.7593,-0.7344,-0.7247,-0.6845,-0.6701,-0.6642,-0.6599,-0.653,-0.667,-0.6958,-0.7878,-0.865,-0.9076,-0.9602,-0.9705,-0.8608,-0.7591,-0.7112,-0.7024,-0.7037,-0.7116,-0.7116,-0.6679,-0.6098,-0.5877,-0.5094,-0.4142,-0.3246,-0.2409,-0.1905,-0.1626,-0.1786,-0.1895,-0.2175,-0.2496,-0.2537,-0.1976,-0.0705,0.0642,0.1317,0.1665,0.1656,0.1637,0.1566,0.1567,0.162,0.1566,0.1364,0.1111,0.0859,0.0202,-0.0505,-0.1211,-0.2218,-1.525,-1.4277,-1.4869,-1.4761,-1.4331,-1.4869,-1.5405,-1.5832,-1.5885,-1.5672,-1.519,-1.4815,-1.4331,-1.3786,-1.2649,-1.2001,-1.1782,-1.1126,-1.0692,-1.0692,-1.0692,-1.0527,-1.0312,-0.9981,-0.9599,-0.9213,-0.9158,-0.932,-0.9644,-0.975,-1.0351,-1.1118,-1.2105,-1.2906,-1.2807,-1.247,-1.172,-1.0928,-0.9297,-0.7996,-0.7343,-0.7028,-0.7076,-0.7494,-0.8318,-0.9651,-1.0984,-1.2242,-1.3734,-1.5181,-1.552,-1.5527,-1.548,-1.4453,-1.3216,-1.1927,-1.0551,-0.9373,-0.8924,-0.8428,-0.7935,-0.7288,-0.7039,-0.6839,-0.6612,-0.6486,-0.6548,-0.6719,-0.6883,-0.7064,-0.7659,-0.8786,-0.9549,-1.0419,-1.0953,-1.1058,-1.0409,-0.9009,-0.761,-0.729,-0.7169,-0.7196,-0.7099,-0.6879,-0.6715,-0.6267,-0.5822,-0.4925,-0.4421,-0.3526,-0.252,-0.2182,-0.2393,-0.2611,-0.2902,-0.3177,-0.3333,-0.2492,-0.1214,0.0218,0.1401,0.16,0.1744,0.1663,0.1633,0.1625,0.1626,0.1622,0.1566,0.1415,0.1162,0.0808,0.0252,-0.0656,-0.1865,-1.5351,-1.4493,-1.4439,-1.4439,-1.4439,-1.4546,-1.5083,-1.5838,-1.5885,-1.5885,-1.5779,-1.5083,-1.4869,-1.4439,-1.2975,-1.2164,-1.1618,-1.1131,-1.0692,-1.0692,-1.0692,-1.0582,-1.0421,-1.0257,-0.9926,-0.9489,-0.9379,-0.9757,-1.008,-1.0511,-1.0781,-1.2689,-1.3236,-1.3457,-1.3889,-1.2797,-1.1629,-1.1268,-0.9327,-0.8033,-0.7636,-0.7422,-0.7558,-0.858,-0.9568,-1.0617,-1.1811,-1.3106,-1.454,-1.5639,-1.5899,-1.6116,-1.5967,-1.4902,-1.3457,-1.1975,-1.0493,-0.9414,-0.8775,-0.8283,-0.7736,-0.688,-0.6408,-0.6263,-0.6343,-0.6325,-0.6453,-0.6829,-0.7167,-0.7544,-0.8656,-0.9693,-1.0994,-1.2135,-1.2571,-1.2635,-1.2195,-1.0558,-0.8903,-0.775,-0.7362,-0.7207,-0.7154,-0.699,-0.6824,-0.6657,-0.6156,-0.5708,-0.5204,-0.4365,-0.3136,-0.2454,-0.2606,-0.3364,-0.3762,-0.3691,-0.3902,-0.2617,-0.1393,-0.0055,0.1318,0.164,0.1781,0.1732,0.1705,0.1643,0.163,0.1569,0.1566,0.1566,0.1465,0.1162,0.0555,-0.0151,-0.1511,-1.5785,-1.5618,-1.5618,-1.5618,-1.5624,-1.5618,-1.5672,-1.5885,-1.5885,-1.5885,-1.5885,-1.5731,-1.5618,-1.5185,-1.3835,-1.2377,-1.124,-1.0802,-1.0692,-1.0692,-1.0692,-1.0637,-1.0527,-1.0531,-1.0143,-0.9761,-0.9596,-0.9596,-0.9427,-0.9316,-1.0621,-1.1328,-1.2309,-1.3176,-1.3614,-1.2635,-1.1928,-1.1596,-0.964,-0.8375,-0.8124,-0.7928,-0.8272,-0.96,-1.0716,-1.1816,-1.2725,-1.3436,-1.4207,-1.5276,-1.5072,-1.5218,-1.5107,-1.3965,-1.2667,-1.1565,-1.01,-0.9069,-0.8577,-0.8393,-0.7786,-0.7056,-0.6425,-0.6328,-0.6411,-0.6383,-0.6479,-0.7068,-0.7377,-0.7697,-0.8769,-1.0109,-1.1593,-1.2891,-1.3619,-1.3732,-1.3171,-1.1701,-0.9962,-0.8809,-0.7983,-0.721,-0.7154,-0.7102,-0.699,-0.6771,-0.6437,-0.61,-0.5764,-0.4589,-0.3136,-0.2782,-0.2651,-0.3681,-0.4655,-0.4445,-0.4193,-0.2514,-0.1229,-0.0168,0.1002,0.1563,0.1761,0.1762,0.1726,0.1658,0.1643,0.1626,0.1618,0.1619,0.1568,0.1516,0.0909,0.0151,-0.1309,-1.5885,-1.5885,-1.5885,-1.5885,-1.5885,-1.5885,-1.5885,-1.5885,-1.5885,-1.5885,-1.5885,-1.5885,-1.5885,-1.5452,-1.4051,-1.2372,-1.1072,-1.0692,-1.0692,-1.0692,-1.0692,-1.0582,-1.0692,-1.0911,-1.0421,-1.0033,-0.9974,-1.008,-0.9915,-1.057,-1.1114,-1.2526,-1.3501,-1.4315,-1.4261,-1.3122,-1.2363,-1.1705,-1.0076,-0.8709,-0.8595,-0.8401,-0.9273,-1.0327,-1.1478,-1.2489,-1.3378,-1.4129,-1.4519,-1.5091,-1.5201,-1.5045,-1.4375,-1.323,-1.1984,-1.1236,-0.9969,-0.8931,-0.8507,-0.8296,-0.7652,-0.6235,-0.5913,-0.5552,-0.5374,-0.5384,-0.6234,-0.7207,-0.8029,-0.8533,-0.979,-1.0832,-1.2462,-1.404,-1.439,-1.4337,-1.4099,-1.2684,-1.1164,-0.9688,-0.8312,-0.7487,-0.721,-0.7157,-0.7102,-0.6935,-0.6659,-0.6437,-0.6212,-0.4979,-0.3526,-0.3571,-0.3492,-0.4096,-0.4907,-0.4664,-0.4143,-0.2574,-0.1176,-0.0112,0.084,0.1513,0.1772,0.1785,0.1703,0.1688,0.166,0.1645,0.1634,0.1622,0.1619,0.1516,0.1161,0.0353,-0.1157,-1.5885,-1.5885,-1.5885,-1.5885,-1.5885,-1.5885,-1.5885,-1.5885,-1.5885,-1.5885,-1.5885,-1.5885,-1.5779,-1.5185,-1.3835,-1.2155,-1.0747,-1.0692,-1.0692,-1.0692,-1.0747,-1.0641,-1.0966,-1.1236,-1.1291,-1.0794,-1.0457,-1.0781,-1.0241,-1.0789,-1.2313,-1.329,-1.4696,-1.5618,-1.5238,-1.383,-1.296,-1.1873,-1.0735,-0.9475,-0.9306,-0.9574,-1.0237,-1.113,-1.2017,-1.2961,-1.3701,-1.424,-1.4688,-1.4865,-1.4852,-1.4691,-1.3748,-1.2272,-1.129,-1.0838,-0.9921,-0.9122,-0.8614,-0.8384,-0.7531,-0.5775,-0.5286,-0.4636,-0.44,-0.499,-0.5948,-0.7357,-0.8318,-0.9302,-1.0398,-1.1655,-1.3388,-1.4857,-1.4821,-1.4288,-1.4541,-1.3604,-1.1651,-1.0069,-0.8533,-0.7651,-0.7321,-0.721,-0.7157,-0.7046,-0.6824,-0.6659,-0.6323,-0.5425,-0.4474,-0.4531,-0.4634,-0.486,-0.502,-0.4679,-0.3918,-0.2629,-0.1344,-0.0224,0.0729,0.157,0.1604,0.1644,0.1755,0.1737,0.1754,0.1717,0.165,0.1637,0.1624,0.1516,0.1313,0.0252,-0.1358,-1.5885,-1.5885,-1.5885,-1.5885,-1.5885,-1.5885,-1.5885,-1.5885,-1.5885,-1.5885,-1.5885,-1.5779,-1.5405,-1.4433,-1.2975,-1.1673,-1.0966,-1.0692,-1.0692,-1.0692,-1.0747,-1.1076,-1.1623,-1.1623,-1.205,-1.1823,-1.1273,-1.0131,-1.0029,-1.0139,-1.0954,-1.258,-1.3614,-1.4153,-1.5672,-1.4433,-1.3452,-1.2575,-1.2037,-1.1546,-1.1109,-1.1173,-1.1588,-1.2276,-1.3185,-1.3826,-1.3976,-1.4322,-1.445,-1.454,-1.3535,-1.3089,-1.2685,-1.1067,-1.0164,-0.964,-0.9161,-0.8584,-0.846,-0.8383,-0.7457,-0.5787,-0.5221,-0.4667,-0.4477,-0.5066,-0.6236,-0.7429,-0.8429,-0.9526,-1.0781,-1.1819,-1.3766,-1.4637,-1.4767,-1.4869,-1.5173,-1.3555,-1.171,-1.0453,-0.8865,-0.7928,-0.7376,-0.7265,-0.721,-0.7099,-0.6932,-0.6824,-0.6601,-0.5815,-0.5312,-0.5314,-0.5258,-0.5429,-0.4814,-0.4533,-0.3526,-0.2406,-0.1288,-0.0224,0.0617,0.1346,0.1402,0.1448,0.1617,0.1772,0.1731,0.1697,0.1671,0.1648,0.1632,0.1622,0.1566,0.0151,-0.1509,-1.5885,-1.5885,-1.5885,-1.5885,-1.5885,-1.5885,-1.5885,-1.5885,-1.5885,-1.5885,-1.5785,-1.5357,-1.4433,-1.3197,-1.2223,-1.1509,-1.0857,-1.0692,-1.0692,-1.0747,-1.0802,-1.1131,-1.1728,-1.2268,-1.2748,-1.2689,-1.2585,-1.2254,-1.1282,-1.1008,-1.1714,-1.2363,-1.3771,-1.5024,-1.5678,-1.4756,-1.4051,-1.329,-1.2635,-1.2037,-1.1928,-1.21,-1.2441,-1.2703,-1.3694,-1.4083,-1.4196,-1.4196,-1.425,-1.4218,-1.335,-1.2676,-1.207,-1.0986,-1.0081,-0.9226,-0.8791,-0.8441,-0.8256,-0.8146,-0.6992,-0.5679,-0.4978,-0.4755,-0.4545,-0.5008,-0.6427,-0.8208,-0.9306,-1.0343,-1.1383,-1.2481,-1.3771,-1.4535,-1.4385,-1.4595,-1.4583,-1.3009,-1.1492,-1.0398,-0.9302,-0.8312,-0.7432,-0.7265,-0.721,-0.7154,-0.7099,-0.7046,-0.699,-0.6763,-0.6318,-0.6042,-0.5931,-0.5819,-0.4868,-0.414,-0.2911,-0.1791,-0.0784,0.0168,0.0617,0.1065,0.1177,0.1402,0.1623,0.1718,0.1749,0.1721,0.1689,0.1662,0.1637,0.1424,0.1113,0.005,-0.181,-1.5885,-1.5885,-1.5885,-1.5885,-1.5885,-1.5885,-1.5885,-1.5885,-1.5885,-1.5885,-1.5618,-1.4756,-1.3408,-1.2223,-1.1787,-1.1236,-1.0747,-1.0692,-1.0857,-1.0966,-1.1131,-1.1623,-1.2545,-1.3295,-1.3506,-1.3226,-1.3673,-1.3457,-1.3019,-1.2797,-1.2694,-1.258,-1.3938,-1.5078,-1.5298,-1.5083,-1.4648,-1.4541,-1.2852,-1.2417,-1.2748,-1.2822,-1.3044,-1.3374,-1.3813,-1.4196,-1.4196,-1.4196,-1.4196,-1.4078,-1.3186,-1.2349,-1.1697,-1.0643,-0.976,-0.8999,-0.8556,-0.8269,-0.8119,-0.7789,-0.6733,-0.545,-0.4484,-0.43,-0.4639,-0.4812,-0.6033,-0.8647,-1.0343,-1.1378,-1.2309,-1.3246,-1.4164,-1.4374,-1.411,-1.4164,-1.3938,-1.2476,-1.1223,-1.0178,-0.9192,-0.8312,-0.7595,-0.7321,-0.721,-0.721,-0.721,-0.721,-0.7154,-0.7099,-0.6877,-0.6434,-0.6323,-0.5986,-0.4921,-0.3804,-0.2519,-0.1345,-0.0336,0.0224,0.0504,0.0841,0.1121,0.129,0.1513,0.1667,0.1756,0.1731,0.1707,0.163,0.1451,0.102,0.0456,-0.0555,-0.1963,-1.5885,-1.5885,-1.5885,-1.5885,-1.5885,-1.5885,-1.5885,-1.5731,-1.5832,-1.5832,-1.5399,-1.4207,-1.297,-1.1946,-1.1236,-1.0857,-1.0692,-1.0692,-1.1181,-1.1618,-1.2005,-1.2758,-1.3624,-1.4272,-1.4708,-1.5078,-1.4869,-1.4331,-1.4056,-1.3889,-1.3511,-1.3127,-1.3835,-1.4164,-1.4761,-1.5351,-1.5458,-1.5078,-1.3506,-1.3295,-1.3732,-1.3748,-1.3374,-1.3921,-1.4137,-1.4196,-1.4196,-1.4196,-1.4191,-1.4137,-1.293,-1.2001,-1.1459,-1.0304,-0.9427,-0.8878,-0.8377,-0.8115,-0.7923,-0.7752,-0.6845,-0.5301,-0.4081,-0.3808,-0.4479,-0.6364,-0.7805,-0.8972,-1.0836,-1.225,-1.3068,-1.3776,-1.4272,-1.4218,-1.3732,-1.3354,-1.297,-1.1932,-1.0735,-0.9908,-0.8972,-0.8039,-0.7595,-0.7265,-0.721,-0.721,-0.7046,-0.7046,-0.7046,-0.699,-0.6879,-0.6659,-0.6604,-0.6042,-0.4921,-0.3747,-0.2518,-0.14,-0.0392,-0.0112,-0.0056,0.0392,0.1009,0.1007,0.1173,0.1498,0.1706,0.1409,0.1231,0.1381,0.1205,0.0614,-0.0354,-0.1513,-0.277,-1.5885,-1.5885,-1.5885,-1.5885,-1.5885,-1.5885,-1.5512,-1.503,-1.5565,-1.5238,-1.4266,-1.356,-1.2536,-1.1455,-1.0966,-1.0692,-1.0802,-1.135,-1.1678,-1.211,-1.2595,-1.3516,-1.4326,-1.4761,-1.4982,-1.5624,-1.5405,-1.5244,-1.5238,-1.4761,-1.4385,-1.4002,-1.3786,-1.4541,-1.5244,-1.5624,-1.5832,-1.5618,-1.4648,-1.4439,-1.4444,-1.4293,-1.3867,-1.4137,-1.4196,-1.4196,-1.4196,-1.4196,-1.4196,-1.3867,-1.2989,-1.2278,-1.1514,-1.0253,-0.9372,-0.8768,-0.8211,-0.7934,-0.7712,-0.749,-0.6596,-0.4979,-0.3808,-0.353,-0.459,-0.6473,-0.8186,-0.9677,-1.1328,-1.2743,-1.3083,-1.3364,-1.3581,-1.3624,-1.33,-1.2758,-1.1996,-1.1067,-1.019,-0.9306,-0.8423,-0.754,-0.7321,-0.721,-0.721,-0.721,-0.7046,-0.6879,-0.6879,-0.6826,-0.6715,-0.6548,-0.6492,-0.5427,-0.4195,-0.33,-0.2518,-0.1456,-0.0392,-0.0504,-0.0392,0.0392,0.0897,0.0839,0.0833,0.1101,0.1145,0.0866,0.0695,0.058,0.0363,0.0051,-0.1061,-0.2368,-0.3376,-1.5458,-1.5517,-1.5779,-1.5885,-1.5885,-1.5618,-1.5083,-1.4493,-1.4863,-1.432,-1.297,-1.3078,-1.2318,-1.1126,-1.0692,-1.0962,-1.124,-1.1732,-1.2332,-1.2871,-1.3516,-1.4218,-1.4708,-1.5089,-1.541,-1.5832,-1.5885,-1.5832,-1.5725,-1.5244,-1.4761,-1.4331,-1.4002,-1.432,-1.525,-1.5785,-1.5885,-1.5785,-1.5357,-1.5035,-1.4934,-1.4461,-1.4142,-1.4196,-1.4196,-1.4196,-1.4196,-1.4196,-1.4196,-1.3921,-1.3315,-1.2441,-1.1568,-1.0633,-0.9588,-0.8761,-0.81,-0.7826,-0.7549,-0.6935,-0.6265,-0.5094,-0.4534,-0.4479,-0.52,-0.7027,-0.9292,-1.0174,-1.1764,-1.297,-1.3256,-1.3472,-1.3472,-1.357,-1.2486,-1.1832,-1.1173,-1.0355,-0.953,-0.8706,-0.8042,-0.7654,-0.7265,-0.721,-0.721,-0.721,-0.7154,-0.6935,-0.6768,-0.6659,-0.6437,-0.6325,-0.6158,-0.4812,-0.33,-0.2854,-0.2351,-0.1008,-0.0336,-0.0841,-0.0673,0.0056,0.039,0.0222,0.0275,0.0599,0.0592,0.0371,-0.0053,-0.0416,-0.0768,-0.1162,-0.1969,-0.3176,-0.3379,-1.4439,-1.4708,-1.5517,-1.5885,-1.5838,-1.4976,-1.46,-1.4272,-1.3781,-1.3078,-1.2432,-1.297,-1.2372,-1.1126,-1.0911,-1.1236,-1.1782,-1.211,-1.2871,-1.4008,-1.4433,-1.5083,-1.5458,-1.5725,-1.5678,-1.5832,-1.5885,-1.5885,-1.5885,-1.5725,-1.5185,-1.4487,-1.3943,-1.356,-1.4654,-1.5458,-1.5832,-1.5832,-1.5303,-1.5089,-1.488,-1.4455,-1.4245,-1.4196,-1.4196,-1.4196,-1.4196,-1.4196,-1.4196,-1.4029,-1.3369,-1.2495,-1.1623,-1.046,-0.9471,-0.854,-0.7934,-0.766,-0.7496,-0.649,-0.5989,-0.5654,-0.5206,-0.5373,-0.626,-0.8303,-1.0229,-1.0617,-1.2264,-1.3732,-1.4008,-1.3786,-1.3576,-1.2871,-1.1782,-1.0958,-1.03,-0.975,-0.8927,-0.8595,-0.8429,-0.8208,-0.7598,-0.7268,-0.7265,-0.7265,-0.721,-0.7046,-0.6712,-0.6381,-0.6105,-0.5993,-0.5768,-0.4479,-0.3246,-0.2855,-0.2129,-0.0784,-0.0224,-0.0729,-0.1233,-0.1065,-0.0834,-0.0605,-0.0218,0.0216,0.0106,-0.0156,-0.1031,-0.1948,-0.2239,-0.2723,-0.3429,-0.3682,-0.3684,-1.4002,-1.46,-1.4928,-1.5405,-1.5785,-1.5618,-1.4756,-1.356,-1.3186,-1.297,-1.2916,-1.3236,-1.2698,-1.1832,-1.1564,-1.1782,-1.2164,-1.3521,-1.4385,-1.4546,-1.5137,-1.5565,-1.5891,-1.5885,-1.5885,-1.5885,-1.5885,-1.5885,-1.5885,-1.5885,-1.5779,-1.5185,-1.4374,-1.4099,-1.3727,-1.4159,-1.5024,-1.5618,-1.5357,-1.4987,-1.4934,-1.4509,-1.4196,-1.4196,-1.4196,-1.4196,-1.4196,-1.4196,-1.4196,-1.4083,-1.3374,-1.2441,-1.1509,-1.0402,-0.9302,-0.8429,-0.7771,-0.7493,-0.7379,-0.6821,-0.6432,-0.6154,-0.5875,-0.5931,-0.6151,-0.8854,-1.012,-1.0891,-1.2377,-1.3413,-1.3364,-1.3197,-1.2876,-1.2001,-1.1017,-1.0249,-0.9588,-0.9089,-0.854,-0.854,-0.8484,-0.854,-0.8208,-0.7543,-0.7376,-0.7043,-0.6935,-0.6771,-0.6439,-0.5993,-0.5605,-0.5605,-0.5268,-0.4145,-0.3192,-0.2744,-0.1848,-0.0448,-0.0168,-0.0616,-0.1065,-0.1569,-0.1441,-0.093,-0.054,-0.0213,-0.0888,-0.159,-0.2802,-0.3595,-0.3533,-0.3626,-0.413,-0.3932,-0.3432,-1.3295,-1.4164,-1.4493,-1.5351,-1.6258,-1.5779,-1.4487,-1.3236,-1.3349,-1.3457,-1.3344,-1.356,-1.3295,-1.2649,-1.2432,-1.2758,-1.298,-1.3954,-1.4928,-1.5035,-1.5571,-1.5838,-1.5885,-1.5885,-1.5885,-1.5885,-1.5885,-1.5885,-1.5885,-1.5885,-1.5565,-1.5137,-1.497,-1.3992,-1.3614,-1.4379,-1.519,-1.5577,-1.5256,-1.4934,-1.4773,-1.4455,-1.4196,-1.4196,-1.4196,-1.4196,-1.4196,-1.4196,-1.4191,-1.3921,-1.3315,-1.2214,-1.1164,-1.0123,-0.8916,-0.7873,-0.7934,-0.7823,-0.7875,-0.7873,-0.754,-0.7152,-0.6596,-0.632,-0.6763,-0.9075,-1.001,-1.0945,-1.2155,-1.2491,-1.255,-1.2441,-1.1614,-1.0739,-1.0194,-0.9423,-0.8982,-0.8484,-0.8318,-0.8318,-0.8868,-0.8868,-0.8706,-0.8042,-0.7543,-0.7046,-0.6659,-0.6439,-0.6216,-0.5828,-0.5437,-0.5382,-0.527,-0.437,-0.3415,-0.2631,-0.1512,-0.0112,-0.0112,-0.0448,-0.0953,-0.14,-0.1326,-0.1307,-0.102,-0.1109,-0.222,-0.3152,-0.3898,-0.4192,-0.4135,-0.4381,-0.478,-0.4332,-0.3632,-1.2268,-1.3349,-1.4272,-1.5773,-1.7054,-1.5773,-1.4428,-1.356,-1.4218,-1.411,-1.3452,-1.4223,-1.4056,-1.3452,-1.3344,-1.3673,-1.4277,-1.46,-1.5137,-1.5565,-1.5838,-1.5885,-1.5885,-1.5885,-1.5885,-1.5885,-1.5885,-1.5885,-1.5885,-1.5885,-1.5405,-1.4595,-1.4099,-1.3776,-1.4272,-1.4708,-1.525,-1.5148,-1.4821,-1.4546,-1.4331,-1.4293,-1.4191,-1.4196,-1.4196,-1.4196,-1.4196,-1.4196,-1.4083,-1.3753,-1.3207,-1.1647,-1.0382,-0.9512,-0.8085,-0.7537,-0.8202,-0.8537,-0.8975,-0.8975,-0.8699,-0.8257,-0.7706,-0.7374,-0.7648,-0.8913,-0.9739,-1.0288,-1.1164,-1.1446,-1.1618,-1.0844,-1.0127,-0.9581,-0.9144,-0.8647,-0.8371,-0.8094,-0.7983,-0.8315,-0.9196,-0.9361,-0.903,-0.8426,-0.7598,-0.699,-0.6548,-0.6328,-0.6105,-0.5882,-0.5549,-0.5382,-0.5156,-0.4761,-0.3863,-0.2742,-0.1568,-0.028,0.0,-0.0224,-0.0785,-0.1115,-0.0988,-0.1027,-0.1386,-0.1884,-0.2711,-0.3643,-0.4539,-0.4684,-0.4433,-0.4582,-0.483,-0.4582,-0.4031,-1.1882,-1.3398,-1.446,-1.5962,-1.7417,-1.7199,-1.644,-1.5476,-1.4911,-1.4385,-1.4223,-1.4493,-1.4546,-1.4218,-1.4223,-1.4439,-1.4761,-1.519,-1.5565,-1.5832,-1.5885,-1.5885,-1.5885,-1.5885,-1.5885,-1.5885,-1.5885,-1.5885,-1.5885,-1.5885,-1.5832,-1.5345,-1.475,-1.4648,-1.4433,-1.4541,-1.46,-1.4546,-1.4164,-1.4002,-1.4008,-1.4078,-1.4083,-1.4196,-1.4196,-1.4196,-1.4196,-1.4196,-1.3916,-1.2975,-1.215,-1.066,-0.8731,-0.8309,-0.7657,-0.8312,-0.8809,-0.9192,-0.9962,-1.0182,-0.9908,-0.9251,-0.8592,-0.7928,-0.7928,-0.8478,-0.9467,-0.9798,-1.0178,-1.0515,-1.046,-0.9853,-0.9247,-0.8754,-0.8371,-0.8205,-0.7873,-0.7709,-0.7654,-0.8374,-0.9254,-0.9306,-0.8975,-0.8481,-0.7654,-0.699,-0.6492,-0.6214,-0.6105,-0.5882,-0.5826,-0.5659,-0.5491,-0.5208,-0.3974,-0.2854,-0.168,-0.0616,-0.0336,-0.0056,-0.0224,-0.0499,-0.0545,-0.0803,-0.126,-0.2063,-0.2988,-0.3879,-0.4686,-0.4634,-0.4433,-0.4682,-0.483,-0.4531,-0.4182,-1.205,-1.3452,-1.4883,-1.6797,-1.8715,-1.9072,-1.8537,-1.7476,-1.608,-1.5452,-1.5452,-1.5452,-1.5351,-1.5298,-1.5303,-1.525,-1.5196,-1.5565,-1.5885,-1.5885,-1.5885,-1.5885,-1.5885,-1.5885,-1.5885,-1.5885,-1.5885,-1.5885,-1.5885,-1.5885,-1.5885,-1.5832,-1.5885,-1.541,-1.4874,-1.4385,-1.3943,-1.3781,-1.3565,-1.3516,-1.3689,-1.3916,-1.4083,-1.4137,-1.4137,-1.4137,-1.4137,-1.4137,-1.3527,-1.2526,-1.1596,-0.983,-0.779,-0.6811,-0.7543,-0.8198,-0.9302,-1.0178,-1.1055,-1.1214,-1.0832,-1.0233,-0.9416,-0.8592,-0.8371,-0.8702,-0.8865,-0.903,-0.9412,-0.9633,-0.9357,-0.903,-0.8537,-0.8042,-0.7875,-0.7762,-0.7487,-0.7265,-0.7709,-0.8374,-0.8706,-0.8868,-0.8592,-0.8149,-0.7598,-0.6771,-0.6216,-0.5938,-0.5993,-0.6105,-0.6158,-0.6158,-0.6047,-0.5766,-0.4477,-0.3357,-0.2295,-0.1344,-0.0504,-0.0224,-0.0056,0.0,-0.0108,-0.0635,-0.1287,-0.2236,-0.3376,-0.3831,-0.4438,-0.4334,-0.4183,-0.4133,-0.4282,-0.4431,-0.4033,-1.2595,-1.3819,-1.579,-1.8411,-2.0783,-2.0885,-2.0305,-1.942,-1.7562,-1.6736,-1.6624,-1.6577,-1.6205,-1.5725,-1.5678,-1.5458,-1.5298,-1.5405,-1.5565,-1.5832,-1.5885,-1.5885,-1.5885,-1.5885,-1.5885,-1.5885,-1.5885,-1.5885,-1.5885,-1.5885,-1.5885,-1.5885,-1.5838,-1.5464,-1.4821,-1.4056,-1.3511,-1.297,-1.297,-1.3024,-1.364,-1.3975,-1.4029,-1.3975,-1.3916,-1.3964,-1.4024,-1.3862,-1.3581,-1.2476,-1.126,-0.9497,-0.7354,-0.5748,-0.6808,-0.8468,-0.9959,-1.1164,-1.2037,-1.2368,-1.1982,-1.1269,-1.0288,-0.9082,-0.8592,-0.8315,-0.826,-0.826,-0.8533,-0.8589,-0.8423,-0.8202,-0.7765,-0.7598,-0.7487,-0.7432,-0.7321,-0.721,-0.7487,-0.7986,-0.8152,-0.8208,-0.8097,-0.7654,-0.7213,-0.6439,-0.6049,-0.5768,-0.5935,-0.6214,-0.6437,-0.6601,-0.6437,-0.6214,-0.5708,-0.4531,-0.3301,-0.2239,-0.1233,-0.056,-0.0504,-0.0165,0.0269,-0.0682,-0.1689,-0.274,-0.3731,-0.4085,-0.4137,-0.3887,-0.3734,-0.3534,-0.3633,-0.3982,-0.3882,-1.3393,-1.5837,-1.8627,-2.0775,-2.203,-2.1471,-2.0585,-1.9531,-1.8461,-1.7318,-1.6477,-1.6158,-1.5725,-1.5244,-1.5083,-1.4756,-1.4266,-1.4702,-1.4869,-1.519,-1.5512,-1.5832,-1.5885,-1.5885,-1.5885,-1.5885,-1.5885,-1.5885,-1.5885,-1.5885,-1.5885,-1.5891,-1.5737,-1.5363,-1.4493,-1.3727,-1.3295,-1.2486,-1.2264,-1.2536,-1.3098,-1.2975,-1.2861,-1.2861,-1.2861,-1.2916,-1.3137,-1.3689,-1.2698,-1.1492,-1.1273,-0.968,-0.7485,-0.6362,-0.7406,-0.9731,-1.1051,-1.2096,-1.2866,-1.3088,-1.259,-1.1437,-1.0233,-0.9137,-0.8312,-0.7873,-0.7595,-0.7598,-0.7598,-0.7595,-0.754,-0.7376,-0.721,-0.721,-0.721,-0.721,-0.721,-0.7265,-0.7321,-0.7432,-0.7543,-0.7487,-0.7435,-0.7102,-0.6662,-0.6328,-0.5989,-0.5877,-0.6156,-0.6434,-0.6768,-0.6879,-0.6715,-0.649,-0.6209,-0.5427,-0.4029,-0.3134,-0.2183,-0.1567,-0.0951,-0.0765,-0.0694,-0.1357,-0.2301,-0.3193,-0.3781,-0.3984,-0.3935,-0.3635,-0.3433,-0.3332,-0.3282,-0.3531,-0.3432,-1.4358,-1.6632,-1.962,-2.1556,-2.2291,-2.1522,-2.0526,-1.9531,-1.8513,-1.7153,-1.5879,-1.5613,-1.5292,-1.4648,-1.4379,-1.3894,-1.3349,-1.3781,-1.4326,-1.4761,-1.5143,-1.5517,-1.5731,-1.5885,-1.5885,-1.5885,-1.5885,-1.5885,-1.5885,-1.5885,-1.5885,-1.5891,-1.5684,-1.5196,-1.4326,-1.4002,-1.3354,-1.2278,-1.1882,-1.1996,-1.2332,-1.1937,-1.1764,-1.1764,-1.1764,-1.1873,-1.2531,-1.3029,-1.2205,-1.0499,-0.9457,-0.8692,-0.7315,-0.7027,-0.8069,-0.9896,-1.1332,-1.2481,-1.3202,-1.3369,-1.2817,-1.1496,-1.0398,-0.9412,-0.8537,-0.8039,-0.7432,-0.7376,-0.7376,-0.7376,-0.7376,-0.721,-0.721,-0.721,-0.721,-0.721,-0.721,-0.721,-0.7265,-0.7265,-0.7265,-0.7102,-0.6935,-0.6546,-0.6214,-0.6047,-0.5766,-0.5712,-0.6044,-0.6763,-0.7041,-0.721,-0.7043,-0.6824,-0.649,-0.5708,-0.4536,-0.3751,-0.3134,-0.2326,-0.1703,-0.1618,-0.1743,-0.2281,-0.2757,-0.3289,-0.3781,-0.3987,-0.3784,-0.3433,-0.3332,-0.323,-0.318,-0.318,-0.323,-1.5387,-1.7009,-1.9731,-2.1556,-2.2333,-2.1395,-2.0364,-1.9428,-1.8146,-1.6617,-1.512,-1.5066,-1.4959,-1.4422,-1.3889,-1.3398,-1.3181,-1.3349,-1.3835,-1.4272,-1.4767,-1.5357,-1.5779,-1.5885,-1.5885,-1.5885,-1.5885,-1.5885,-1.5885,-1.5885,-1.5885,-1.5885,-1.5731,-1.5517,-1.5143,-1.4767,-1.4067,-1.2767,-1.211,-1.1841,-1.1455,-1.0844,-1.0785,-1.0726,-1.0726,-1.1105,-1.1819,-1.22,-1.1705,-1.0386,-0.852,-0.7537,-0.7534,-0.7692,-0.8738,-1.0174,-1.1669,-1.2491,-1.3039,-1.3152,-1.2486,-1.1605,-1.0672,-0.9743,-0.8758,-0.7986,-0.7376,-0.721,-0.721,-0.721,-0.721,-0.7099,-0.7099,-0.7102,-0.7102,-0.7102,-0.7102,-0.7102,-0.7102,-0.7102,-0.6935,-0.6715,-0.6437,-0.6102,-0.588,-0.5768,-0.5656,-0.5603,-0.5826,-0.6818,-0.7537,-0.7537,-0.7482,-0.7207,-0.6768,-0.5877,-0.4817,-0.4594,-0.3965,-0.3129,-0.2541,-0.2787,-0.2905,-0.2894,-0.3366,-0.3796,-0.3841,-0.3999,-0.3693,-0.3344,-0.3232,-0.3181,-0.318,-0.318,-0.318,-1.618,-1.8797,-2.0313,-2.1556,-2.2291,-2.1353,-2.0261,-1.9176,-1.8042,-1.6518,-1.4857,-1.3884,-1.3344,-1.2595,-1.2486,-1.2159,-1.2046,-1.2644,-1.3181,-1.3619,-1.4815,-1.5512,-1.5832,-1.5885,-1.5885,-1.5832,-1.5832,-1.5832,-1.5565,-1.5725,-1.5832,-1.5779,-1.563,-1.5416,-1.5089,-1.4659,-1.3954,-1.2654,-1.1614,-1.1122,-0.9978,-0.9588,-0.9691,-0.9578,-0.9412,-1.0069,-1.0891,-1.1928,-1.2141,-1.1206,-0.9233,-0.7922,-0.7922,-0.852,-0.9398,-1.0503,-1.1941,-1.2604,-1.2989,-1.2876,-1.2214,-1.0726,-0.9794,-0.9247,-0.8367,-0.7598,-0.721,-0.721,-0.721,-0.7154,-0.7099,-0.6935,-0.6824,-0.6771,-0.6715,-0.6715,-0.6768,-0.6659,-0.6606,-0.6604,-0.6604,-0.6437,-0.6325,-0.6047,-0.5824,-0.5656,-0.5547,-0.5603,-0.6214,-0.7096,-0.7867,-0.7756,-0.7645,-0.7371,-0.6877,-0.5993,-0.5156,-0.51,-0.4864,-0.409,-0.3875,-0.4253,-0.4343,-0.3803,-0.3896,-0.4262,-0.4311,-0.3974,-0.3729,-0.3375,-0.3244,-0.3183,-0.3184,-0.318,-0.318]}]]